GFSSW_sfc_rhum_000.txt.gz
RH
78 78 77 78 78 78 80 81 82 83 83 83 85 86 86 88 87 41 14 27 31 70 66 16 11 5 5 4 4 4 7 7 6 7 7 5 6 8 8 8 9 10 15 31 35
78 78 79 79 79 79 81 83 84 83 83 84 85 87 88 91 40 11 36 59 61 63 16 8 7 5 6 5 6 7 9 8 6 6 7 6 6 7 7 8 10 14 15 23 31
79 79 80 80 79 81 82 83 84 84 83 84 86 88 90 83 25 13 56 59 59 48 14 10 8 6 8 7 8 8 9 7 8 10 7 7 7 7 8 9 12 12 16 19 23
84 83 83 82 83 84 85 88 86 84 85 86 87 87 90 42 21 13 48 54 59 25 13 10 8 9 10 10 9 11 10 10 11 10 10 12 11 11 10 10 11 11 13 17 21
87 87 86 86 86 88 89 91 89 86 85 86 86 88 60 22 16 12 41 38 15 10 9 10 10 12 11 10 11 12 12 12 12 12 12 12 12 12 11 9 11 11 16 18 20
88 87 86 87 88 88 90 91 91 88 87 86 86 92 44 19 11 11 11 11 10 10 10 11 12 12 13 14 15 13 13 13 12 12 11 13 12 10 9 9 12 13 16 18 19
88 88 88 86 86 87 88 89 90 90 88 87 86 52 21 16 10 10 11 12 10 11 11 10 12 13 15 18 14 13 16 14 14 10 9 11 10 10 10 11 12 12 15 16 15
87 89 89 87 86 86 87 88 88 89 89 89 88 47 19 12 11 10 10 11 11 10 10 10 12 13 16 14 16 15 14 11 9 10 10 10 12 8 8 9 12 12 13 15 16
89 89 89 88 86 85 85 87 88 89 89 86 59 42 18 22 13 11 11 13 12 12 12 10 11 13 16 20 16 12 14 13 13 8 9 10 13 9 8 8 10 12 12 12 15
90 89 87 87 85 79 84 84 83 78 64 35 20 17 14 16 13 12 11 13 14 14 14 13 14 16 13 16 22 20 18 16 16 12 13 15 16 11 10 9 10 11 12 13 14
90 89 86 84 84 84 68 33 23 26 16 18 15 15 13 12 12 10 10 12 13 14 16 12 19 19 16 17 15 14 16 16 15 12 14 16 15 12 9 9 12 13 15 16 17
90 89 85 82 83 77 59 30 34 35 21 14 13 13 12 12 14 12 10 14 15 16 12 13 22 16 14 14 15 13 16 19 16 15 18 17 16 12 11 12 12 13 16 18 18
90 89 85 82 80 69 34 34 31 35 32 16 14 14 14 13 15 14 13 14 15 14 14 15 20 14 14 15 19 16 23 24 23 19 15 16 14 13 12 12 13 15 16 16 19
91 90 88 83 49 31 35 33 40 47 39 19 16 16 13 12 17 13 11 15 17 17 14 16 15 16 16 17 19 23 19 23 25 26 28 19 22 13 13 14 14 16 21 22 21
92 89 88 81 44 29 38 36 42 55 70 22 16 12 12 15 14 15 12 15 19 17 16 24 18 16 18 20 19 24 23 26 24 27 26 20 20 15 13 13 14 17 19 23 25
91 90 84 41 51 40 38 47 53 82 73 24 16 18 18 16 16 14 15 14 15 17 14 14 14 16 19 18 19 21 24 23 22 27 51 24 25 21 15 15 14 14 17 22 25
90 90 58 40 48 43 54 53 58 69 24 22 22 18 19 20 19 18 20 25 27 37 32 19 18 17 20 24 20 25 33 58 76 70 60 22 26 26 18 14 15 18 21 26 30
90 92 65 45 44 55 53 52 62 30 25 21 20 20 23 22 22 20 21 24 25 28 29 33 40 22 22 26 32 30 34 69 73 65 55 30 32 19 13 13 14 16 23 24 30
92 55 48 60 55 58 46 78 51 28 23 23 21 23 25 23 22 22 26 27 29 30 40 45 34 22 24 24 27 32 43 32 57 90 74 45 28 20 16 15 18 19 20 28 30
48 39 47 55 56 61 73 53 28 23 22 22 28 24 28 26 26 26 28 27 30 30 30 36 52 30 26 26 27 31 29 53 67 91 68 38 39 32 24 26 26 26 26 30 30
62 42 51 46 58 43 72 39 26 21 23 29 28 27 28 30 31 29 30 30 29 30 30 36 48 47 37 32 35 33 41 45 37 54 75 76 46 30 31 30 29 27 28 30 33
59 59 48 50 48 43 39 27 47 25 24 28 29 31 34 34 38 34 34 35 31 31 38 42 53 72 50 31 24 28 35 35 79 68 64 74 61 30 28 28 28 27 27 29 30
37 38 44 53 82 90 33 31 28 27 30 30 35 34 33 37 52 39 38 37 32 33 48 44 62 70 45 35 32 38 32 34 44 81 78 97 66 28 29 29 26 28 31 32 32
38 88 58 42 34 37 37 36 39 35 33 31 33 33 36 40 36 47 38 36 38 38 67 53 51 66 74 58 44 53 41 38 44 70 60 60 49 34 28 28 27 30 35 34 34
35 49 44 72 57 39 36 33 37 42 35 32 36 36 38 66 55 44 37 37 36 61 41 48 76 56 50 45 46 50 48 41 42 43 56 47 38 30 28 28 31 35 37 38 36
58 49 37 38 35 36 50 36 35 35 33 36 39 34 37 49 47 53 43 46 48 38 48 56 89 85 84 58 50 56 52 47 42 38 36 38 39 28 25 28 35 39 40 44 52
38 37 45 68 51 62 51 34 32 33 41 32 36 42 72 47 43 42 44 44 45 51 61 63 95 100 89 64 76 91 63 49 42 36 37 52 41 29 31 39 45 48 45 58 59

GFSSW_sfc_rhum_003.txt.gz
RH
76 77 78 78 78 79 81 84 88 87 85 84 85 87 88 90 84 45 24 31 36 62 73 30 21 18 14 11 8 10 15 17 13 10 17 9 10 14 14 13 15 16 44 50 49
78 78 78 79 79 80 81 86 88 87 85 84 86 89 91 92 56 22 37 56 69 76 27 21 17 15 12 11 11 15 16 13 14 14 13 12 10 12 11 11 18 20 37 46 45
80 80 79 80 80 82 86 88 88 87 86 86 87 90 92 91 46 20 45 68 72 67 26 19 16 15 14 13 14 16 19 16 16 16 14 14 15 12 14 16 20 22 29 42 46
82 82 82 82 83 86 89 90 90 87 86 86 87 88 92 63 26 20 46 57 61 48 22 18 16 17 15 16 14 17 14 16 16 15 16 19 18 16 18 17 14 16 25 28 32
89 88 87 86 87 89 92 92 92 90 88 85 87 87 68 42 21 16 40 37 27 18 18 16 17 19 18 18 18 18 17 16 15 15 17 16 17 17 16 12 15 15 22 28 29
89 89 89 88 89 91 92 93 93 92 89 86 87 92 55 39 15 15 14 14 14 15 14 15 18 17 21 21 24 21 18 19 17 17 16 18 19 20 13 14 16 16 24 28 28
89 89 89 88 88 90 91 91 91 90 89 85 86 57 64 24 15 16 14 17 15 14 16 15 16 21 22 28 22 19 22 21 18 17 15 16 16 16 12 16 16 18 20 22 23
89 89 88 87 87 87 88 89 89 90 90 88 87 67 35 16 19 14 14 17 15 14 15 16 15 21 27 22 23 24 26 27 19 16 16 14 19 14 12 17 18 17 19 21 22
90 89 88 87 85 84 83 86 88 89 89 91 84 67 28 23 18 14 18 18 18 17 18 12 21 23 26 33 35 24 29 23 20 14 16 16 20 17 15 14 16 18 18 21 23
89 88 86 85 83 81 83 85 86 76 78 52 38 45 20 21 18 15 14 14 20 21 22 24 26 29 27 30 36 28 26 22 27 19 18 22 23 20 16 17 19 21 24 23 23
90 89 86 82 84 80 70 57 34 45 43 26 22 20 16 15 16 15 14 15 18 23 28 20 31 33 26 26 23 22 22 26 25 20 25 26 25 20 19 18 20 23 23 23 23
90 88 86 84 84 79 78 56 54 56 44 22 17 17 16 17 19 16 14 20 22 25 20 24 35 24 18 19 22 23 28 34 27 23 26 28 25 23 18 19 20 23 25 24 24
91 89 87 87 83 82 53 56 53 64 62 24 21 19 20 18 22 19 17 20 24 22 21 28 28 18 19 24 26 27 33 35 35 31 28 30 29 20 21 19 21 22 22 23 23
91 90 91 85 53 58 58 52 62 75 76 25 24 21 18 19 28 17 18 24 28 26 21 26 21 19 22 25 26 31 30 31 34 42 47 31 44 24 23 22 22 22 28 29 28
90 91 90 82 76 56 55 58 63 77 84 32 21 16 16 20 19 22 19 25 26 23 26 29 25 23 28 26 25 31 31 34 36 43 47 35 40 25 24 25 25 28 29 31 31
91 90 93 62 78 66 66 76 76 93 83 33 21 24 26 22 23 18 24 25 24 28 23 22 20 24 29 25 28 29 38 40 46 44 66 40 40 39 27 23 24 28 31 32 33
92 91 82 62 75 66 82 82 88 86 32 28 29 24 26 27 25 24 29 37 46 57 55 34 28 27 29 34 34 36 53 83 77 78 77 35 40 38 28 24 26 30 31 32 32
92 93 77 72 76 80 86 86 74 41 32 27 27 26 32 28 31 28 33 41 39 42 52 56 60 35 30 38 43 44 47 87 82 89 78 43 51 34 24 21 22 23 27 35 32
92 78 79 82 77 84 83 94 77 40 29 31 27 33 36 34 32 32 41 42 40 42 56 70 52 36 30 32 36 44 67 46 66 90 87 68 46 27 27 29 30 30 31 34 37
81 82 76 72 74 88 94 64 39 30 27 31 41 33 43 35 39 37 42 38 42 40 43 52 68 46 39 37 37 41 42 69 84 93 90 61 57 50 41 36 35 39 39 43 44
91 77 70 64 82 84 92 54 32 24 29 38 41 42 41 44 44 44 45 44 39 42 44 53 66 65 51 49 52 48 61 56 52 75 94 98 76 43 38 40 41 31 38 40 41
87 79 66 73 82 91 72 38 45 33 34 38 41 45 48 48 50 49 53 49 42 42 59 57 65 88 58 41 38 37 48 46 88 91 87 93 76 37 42 38 30 42 39 42 39
87 77 72 71 90 98 46 42 44 40 39 41 47 43 45 53 65 54 53 50 40 52 60 56 78 91 68 53 53 54 46 51 65 84 81 95 76 38 37 38 38 44 46 46 44
84 90 90 84 73 54 50 48 49 46 43 40 42 46 50 53 52 58 51 52 50 51 63 60 67 77 90 73 62 70 57 53 63 90 77 74 59 42 36 38 44 50 50 51 53
80 74 66 91 80 58 56 46 49 57 47 42 50 49 51 71 62 62 54 53 53 70 57 59 82 73 67 61 57 59 57 56 60 59 73 60 52 42 39 40 50 50 51 50 62
83 87 80 68 55 56 63 54 47 41 44 50 51 51 52 68 63 77 66 69 68 59 69 67 86 87 88 69 67 72 67 59 57 58 55 51 49 39 34 50 55 57 57 66 66
72 70 84 94 76 82 79 51 48 48 54 44 49 58 70 66 63 65 67 64 64 69 77 78 89 98 85 80 84 88 66 62 54 46 52 72 61 61 63 60 62 65 72 73 68

GFSSW_sfc_rhum_006.txt.gz
RH
77 76 76 78 78 79 80 84 89 88 85 85 86 88 90 91 84 44 23 27 32 72 66 30 22 21 20 18 12 13 16 19 21 15 21 12 16 15 14 14 18 35 46 50 48
78 77 77 77 79 82 82 87 90 88 87 87 88 90 92 93 51 22 31 51 68 77 20 22 21 20 17 13 14 14 19 25 16 14 18 18 17 14 12 20 22 50 46 51 59
78 78 78 80 80 83 88 90 90 87 87 88 88 90 92 88 32 19 41 59 71 65 30 27 23 20 15 14 16 39 23 19 19 19 19 23 19 17 16 20 22 51 47 57 62
84 82 81 81 82 86 91 92 91 89 88 86 87 89 91 61 26 19 47 63 68 49 26 20 18 20 17 17 18 20 19 18 19 19 20 23 23 20 40 16 17 33 51 57 58
91 91 89 86 87 91 92 93 93 91 88 85 88 88 59 34 25 16 49 34 16 17 18 18 21 24 27 24 21 21 20 19 17 17 19 20 19 18 19 16 18 26 31 38 45
90 90 90 90 91 92 92 93 92 91 89 85 87 90 43 32 16 15 16 16 16 17 17 17 21 21 26 23 25 26 22 22 19 19 21 20 22 22 17 18 18 26 29 30 30
89 89 88 88 89 90 91 92 92 90 89 85 85 58 57 24 18 20 17 18 17 20 19 17 21 20 24 28 24 24 25 22 21 21 20 17 18 18 14 16 19 21 27 28 26
89 88 88 87 86 87 89 89 89 88 88 87 85 65 34 18 20 16 17 19 18 18 19 15 17 22 30 26 27 28 28 29 21 21 17 16 20 14 16 20 21 22 24 26 27
88 88 87 87 85 84 82 84 87 88 92 90 68 61 33 23 18 16 18 19 19 21 22 16 24 27 24 32 31 29 30 29 23 17 18 20 20 18 20 19 20 22 23 26 28
88 87 86 86 86 86 84 82 87 88 82 63 44 44 24 24 19 17 15 15 20 24 23 29 30 31 30 31 37 33 29 25 33 23 29 27 27 24 19 20 19 22 22 24 25
90 87 86 85 86 84 62 54 50 37 42 27 26 25 20 16 19 16 16 18 22 30 33 25 31 34 28 29 26 29 32 37 31 27 32 34 34 28 22 26 27 28 28 29 32
91 89 86 86 83 79 73 55 58 55 46 23 21 20 18 19 23 18 17 22 27 28 23 30 35 27 21 26 27 27 39 39 33 29 36 35 34 26 21 25 26 28 30 28 31
90 90 90 87 84 69 58 64 63 65 59 24 23 23 19 20 24 21 21 25 31 27 26 32 28 22 23 29 29 32 41 41 39 38 38 36 34 25 23 27 26 28 28 27 27
90 91 91 87 52 66 64 56 63 71 63 31 28 23 20 20 29 18 20 26 26 30 27 31 23 21 30 31 32 37 30 36 39 46 51 38 55 33 25 27 28 28 30 29 28
91 91 90 83 73 61 59 66 77 65 79 32 24 18 18 22 22 21 20 26 30 27 28 29 26 27 30 30 32 33 34 42 45 52 54 42 47 32 26 26 26 35 34 37 38
91 92 90 73 76 70 74 84 72 88 78 36 25 27 28 26 22 24 31 29 34 37 35 26 24 27 31 30 36 34 42 49 52 53 69 49 45 42 35 27 35 38 36 36 38
92 89 71 72 67 78 88 74 83 76 38 34 34 28 32 30 28 32 39 43 50 49 57 43 33 30 33 39 38 43 60 83 74 80 76 46 50 43 35 30 30 32 37 40 35
92 86 84 79 87 83 78 79 68 52 39 30 31 31 37 32 32 38 40 48 44 49 63 68 65 43 32 42 47 48 58 86 83 88 78 52 56 41 30 31 30 30 32 35 44
88 88 82 77 83 91 74 87 70 48 35 34 33 38 40 34 33 40 49 50 46 48 60 76 59 43 37 36 41 48 66 52 69 93 89 72 54 36 34 39 37 39 38 44 45
76 84 72 76 82 80 87 62 44 36 36 40 47 42 49 45 44 44 49 48 47 47 51 60 74 53 47 43 44 46 45 69 85 88 95 74 67 54 44 44 41 48 47 47 50
91 67 60 75 78 76 81 62 38 31 36 42 49 52 50 55 54 52 58 51 47 46 52 60 68 64 53 55 60 54 70 62 63 84 97 98 86 54 48 47 47 45 50 50 49
88 64 53 71 67 94 62 42 46 36 40 44 48 50 54 54 59 59 60 54 48 52 63 61 74 87 61 50 47 53 61 64 91 85 91 94 74 39 50 40 49 51 50 51 52
82 79 70 66 82 92 52 46 48 44 45 47 51 49 50 58 66 59 58 51 45 55 60 59 76 87 62 51 57 63 54 62 73 86 88 95 82 38 38 44 49 54 54 55 63
74 88 85 82 79 57 53 56 53 47 48 44 47 47 53 62 54 60 58 56 57 56 64 62 72 74 82 65 72 76 61 57 72 95 84 78 68 51 45 51 55 61 64 65 71
82 75 74 87 79 60 62 58 56 59 50 45 51 55 58 70 65 77 69 66 60 70 62 65 80 76 71 66 68 67 67 67 75 71 89 73 65 54 65 67 63 63 62 64 68
78 84 81 82 66 57 74 56 55 47 52 55 60 65 62 73 69 80 73 76 74 66 76 74 88 86 83 75 78 84 72 72 71 68 67 66 60 75 71 69 71 71 67 70 75
91 83 77 87 78 80 81 57 56 53 59 47 52 61 72 70 64 64 65 65 66 74 82 80 91 98 79 91 95 94 80 71 61 58 62 81 70 78 85 79 75 74 70 76 78

GFSSW_sfc_rhum_009.txt.gz
RH
77 77 78 77 78 79 82 84 87 88 86 86 87 88 89 92 91 65 22 27 32 74 69 25 23 23 21 18 13 15 18 24 22 18 21 15 20 16 16 33 30 45 51 49 64
78 78 78 79 80 84 86 86 90 89 87 88 88 89 92 92 63 24 29 51 65 70 23 24 22 23 14 15 17 18 22 20 18 16 21 18 22 16 15 36 51 63 54 62 67
81 79 79 78 80 82 87 91 91 88 89 89 89 89 92 94 26 18 40 58 72 69 33 30 28 25 16 17 17 23 23 19 19 18 18 24 22 20 17 29 45 49 54 71 76
88 82 80 80 81 84 90 93 91 89 89 89 86 90 91 64 16 15 55 65 66 56 28 21 21 22 23 24 22 19 22 20 21 19 22 25 42 24 42 17 18 44 48 71 71
91 91 90 88 86 90 94 93 92 91 91 87 86 90 62 29 26 17 52 35 19 20 18 20 22 27 28 26 24 22 22 21 20 20 22 21 21 20 20 17 20 45 54 66 67
89 90 91 90 91 92 92 92 93 92 91 87 87 90 43 29 18 18 19 18 18 20 19 17 23 26 27 29 27 28 25 23 22 22 24 24 24 25 19 21 20 39 56 64 62
88 88 88 89 88 89 90 91 92 91 89 86 86 58 46 26 19 21 18 21 21 22 21 20 23 20 29 30 26 25 26 25 26 25 23 22 18 19 19 20 20 32 41 43 42
88 88 88 88 88 87 87 88 90 90 88 86 83 62 34 21 22 17 19 20 19 21 24 22 21 25 28 29 28 26 27 28 21 27 21 18 22 15 20 20 19 24 31 32 32
88 86 86 87 86 86 88 91 90 89 88 84 58 52 34 26 20 19 17 17 17 21 23 19 21 29 27 28 31 31 33 31 25 25 27 22 22 16 23 21 20 24 27 31 33
87 86 85 87 85 85 89 91 90 91 70 53 45 37 22 23 20 17 17 18 21 23 25 25 32 30 32 32 39 37 34 31 34 27 34 37 28 27 28 23 23 29 28 29 28
88 87 87 87 85 86 85 75 51 34 40 31 28 27 21 17 19 17 18 20 23 23 30 31 32 34 32 32 29 31 37 45 36 30 37 42 41 34 32 29 29 30 31 36 36
88 89 88 86 82 80 63 59 59 51 38 30 24 23 21 21 22 19 17 23 26 29 27 34 35 29 26 28 29 35 41 40 38 33 42 40 39 26 24 27 32 34 37 36 38
90 90 91 86 79 65 62 67 70 65 41 27 24 24 23 20 26 23 21 28 29 28 30 36 31 23 28 33 32 36 42 42 41 41 44 42 39 28 26 29 28 30 32 34 37
90 92 91 80 62 72 63 64 71 61 54 33 26 24 20 24 26 21 20 29 26 31 31 34 24 28 32 33 37 42 34 40 42 50 53 44 49 36 28 31 31 32 35 36 33
90 91 89 73 66 59 66 75 82 57 70 33 26 20 22 24 25 24 29 26 35 36 30 34 26 31 32 33 38 40 41 47 52 56 62 44 48 40 34 30 35 42 38 37 38
90 90 87 75 71 74 81 85 69 84 74 36 27 29 29 28 28 31 35 33 39 40 39 41 28 31 35 35 39 37 50 53 57 57 68 55 51 45 40 37 42 39 38 43 40
92 89 73 79 58 83 88 68 78 74 40 36 35 30 35 32 34 39 44 48 56 43 61 51 45 40 36 41 41 47 64 79 69 79 76 54 51 45 37 35 38 40 39 38 40
92 82 90 84 91 86 72 72 64 53 46 33 33 33 36 32 38 45 46 55 49 55 70 72 60 50 41 45 49 53 61 84 74 89 82 57 60 43 36 34 33 35 37 41 42
84 92 79 76 86 87 66 84 65 52 40 39 37 41 45 42 40 45 55 56 56 53 63 82 62 49 48 49 46 54 70 58 79 95 92 77 58 43 42 48 39 38 42 53 58
84 76 67 82 86 68 85 66 47 39 40 45 47 50 53 52 50 50 55 53 51 57 56 66 79 56 50 48 48 47 49 73 88 89 93 80 78 61 51 54 45 54 55 56 59
92 54 56 86 73 70 79 64 40 33 40 48 53 54 57 59 58 60 62 54 51 52 54 62 70 60 53 55 64 62 74 69 70 87 96 98 85 61 56 56 52 58 56 58 63
78 62 56 70 68 91 61 45 52 46 45 46 52 53 59 58 64 63 63 57 51 56 61 66 75 86 63 52 54 56 67 68 89 85 92 95 76 50 55 54 57 65 60 61 60
80 78 70 57 82 89 56 53 53 46 50 50 54 52 58 65 68 62 62 54 47 56 62 62 78 84 56 49 53 66 66 70 80 88 89 95 80 48 44 53 62 67 65 64 61
69 83 82 81 79 57 56 59 54 53 50 48 52 53 57 63 58 66 66 63 63 58 72 62 74 71 83 59 67 73 71 70 74 94 88 81 67 55 56 66 67 69 69 68 66
80 73 79 86 80 68 64 60 58 59 51 52 60 64 61 73 71 82 73 68 63 70 66 67 79 80 74 69 71 70 74 72 81 80 91 77 76 62 65 76 72 68 70 70 66
81 83 83 88 72 58 75 60 59 57 56 60 65 68 64 73 67 81 76 80 76 70 79 80 87 88 87 80 81 86 78 80 79 82 82 79 73 57 77 77 78 76 73 76 76
95 87 74 88 76 81 82 60 59 58 60 53 58 66 74 70 70 68 67 66 67 77 80 81 93 98 86 93 96 82 80 83 76 64 66 81 68 79 82 80 85 78 78 80 74

GFSSW_sfc_rhum_012.txt.gz
RH
76 75 75 77 77 78 80 85 88 88 87 86 86 88 88 92 87 63 22 24 30 68 72 28 24 27 20 16 13 17 20 22 29 17 26 18 38 19 20 41 34 46 66 56 69
78 78 77 78 78 81 85 86 90 89 88 88 88 88 90 93 66 24 35 48 67 70 32 27 24 22 14 18 18 18 22 31 18 16 45 22 25 17 24 47 63 66 67 78 77
80 80 80 79 80 81 85 91 92 90 88 90 91 90 92 95 22 17 54 68 76 67 35 31 26 17 21 21 20 43 24 21 22 20 20 25 22 21 25 50 48 42 66 81 84
87 83 82 82 82 84 89 92 92 90 89 90 87 89 93 80 26 17 61 63 68 49 22 22 22 25 27 22 25 20 22 20 22 22 23 25 42 25 22 17 27 44 62 79 82
90 90 89 86 85 89 92 94 93 92 91 88 87 90 81 29 28 19 54 38 22 19 18 22 24 30 29 27 25 22 23 21 22 19 22 23 24 22 21 18 20 43 65 77 80
90 90 91 90 91 92 93 93 92 91 90 89 88 90 50 29 20 20 20 19 21 23 22 19 24 29 28 32 26 29 29 28 27 25 26 25 26 26 20 23 23 53 59 77 78
89 89 89 89 90 91 91 91 91 90 89 88 87 78 32 29 23 22 19 23 25 25 24 24 25 22 31 32 30 28 28 23 23 27 27 27 22 20 22 19 21 32 58 66 70
87 88 88 88 88 88 88 87 88 89 90 89 88 66 31 23 28 19 17 17 18 24 26 27 24 25 27 32 25 25 27 29 22 27 22 20 27 18 20 23 22 23 46 56 60
87 87 85 85 85 85 88 90 88 89 89 87 68 44 31 26 20 21 18 18 19 20 24 20 24 31 27 27 31 33 37 37 27 32 36 31 28 20 23 28 26 25 31 43 42
87 85 85 85 87 88 88 89 88 88 76 53 39 28 22 22 21 19 20 21 21 27 24 25 31 28 33 32 36 40 34 37 43 30 37 42 36 33 34 30 29 29 32 34 34
87 85 84 86 88 90 92 83 40 33 34 28 29 28 22 18 21 19 22 22 23 24 29 34 32 34 35 35 33 34 38 46 42 36 41 50 47 37 28 31 30 34 34 38 41
88 88 87 86 84 89 75 61 63 52 32 29 26 24 22 23 23 21 20 24 27 30 30 34 34 31 30 31 32 34 42 40 38 39 47 46 41 30 30 33 38 40 43 40 42
89 90 90 87 75 69 70 78 78 65 33 27 25 26 24 21 27 24 22 31 29 28 34 38 33 30 30 35 38 42 40 42 42 43 48 46 39 35 28 32 32 34 40 42 40
89 91 87 80 61 75 66 73 80 50 52 32 26 24 21 25 27 25 30 29 30 31 34 35 27 31 37 36 41 48 36 42 46 56 54 48 49 43 38 34 36 35 36 39 41
90 90 87 64 66 66 69 83 82 48 57 31 25 22 24 24 28 31 34 27 41 41 35 35 32 37 40 40 41 43 48 55 55 61 64 50 49 39 39 34 39 42 35 41 39
89 90 82 68 72 79 86 81 65 76 63 38 29 30 29 30 32 34 39 36 42 42 45 49 34 36 40 38 45 42 55 51 60 61 69 60 55 47 45 41 40 41 41 40 41
89 87 80 79 57 86 86 67 72 74 43 38 36 32 34 36 40 42 48 54 59 41 66 53 49 47 41 46 45 50 61 70 68 78 76 58 56 47 40 39 40 42 36 40 44
86 86 89 89 92 86 68 70 60 55 48 39 35 38 39 39 46 49 52 59 53 58 76 75 56 53 44 50 54 58 64 82 66 90 85 64 60 53 40 44 40 38 44 56 63
87 86 77 81 90 77 65 82 66 53 43 41 41 45 47 48 46 51 61 61 59 60 66 85 64 53 53 55 51 59 73 63 82 97 92 79 64 49 51 55 51 52 57 61 62
89 67 74 88 87 63 84 69 49 46 43 47 50 53 55 56 54 54 61 56 56 61 60 70 78 59 52 52 49 52 53 72 88 93 91 80 77 65 60 60 55 61 60 59 61
82 53 58 90 68 66 79 64 43 44 45 50 55 58 60 62 59 64 64 56 54 58 56 64 69 55 55 58 67 66 76 74 74 88 96 98 82 64 62 60 60 64 66 66 61
68 58 63 74 64 88 63 50 55 51 48 51 54 56 61 64 67 66 65 60 52 60 64 70 76 83 59 55 63 66 70 69 87 80 93 96 81 54 57 62 62 71 67 68 66
78 74 69 61 80 88 60 57 55 50 54 52 56 57 60 68 69 64 63 64 60 60 68 66 78 80 50 51 55 69 72 74 82 88 85 94 75 52 50 53 68 74 71 70 70
69 84 81 85 79 58 59 60 58 54 53 61 59 55 60 65 66 74 73 65 66 66 75 66 76 68 78 59 63 78 76 75 79 93 83 83 68 57 55 63 69 75 76 76 74
79 80 80 85 82 72 67 59 60 60 53 57 61 62 61 74 74 82 75 68 63 70 74 69 80 81 75 70 73 74 79 78 88 83 90 71 80 68 65 69 78 76 76 70 69
82 82 87 90 76 61 75 62 65 61 57 64 64 69 67 70 64 77 78 80 74 75 81 82 86 91 90 88 90 95 85 84 86 87 88 84 88 65 66 84 83 76 76 79 80
96 86 76 91 76 80 80 61 58 58 61 57 62 65 72 70 71 74 68 69 79 79 78 82 94 97 89 93 91 77 66 82 79 75 75 78 61 72 84 79 73 72 85 84 90

GFSSW_sfc_rhum_018.txt.gz
RH
80 78 77 76 77 78 79 82 86 88 86 86 86 87 87 90 88 36 14 24 28 72 55 16 14 13 8 8 7 7 7 8 8 8 9 8 8 9 15 20 21 21 22 24 35
83 77 78 78 80 79 80 84 89 88 87 88 88 89 90 91 30 13 34 69 79 78 16 12 10 9 8 9 9 6 7 9 8 8 7 8 7 9 11 12 15 20 29 32 42
81 79 78 79 82 79 82 86 90 87 89 90 90 91 90 71 16 13 64 74 71 57 14 12 10 9 9 9 10 9 8 9 8 8 7 8 8 8 8 10 10 11 22 35 42
83 84 81 81 80 81 88 90 90 87 89 89 88 89 89 35 17 12 59 64 70 21 14 12 10 9 9 9 8 9 9 8 8 10 9 8 8 9 9 8 11 13 18 30 36
89 89 88 82 83 86 90 91 91 90 90 88 87 87 51 17 16 11 52 32 12 11 11 11 10 10 9 10 10 12 12 12 10 10 10 12 11 12 10 8 10 16 24 26 27
89 90 91 90 89 88 91 93 92 92 90 88 86 90 26 17 12 11 10 10 11 11 12 11 13 12 14 14 13 16 14 14 13 13 14 14 13 13 10 10 11 15 19 21 24
88 89 90 90 92 92 92 92 92 90 90 86 84 48 16 17 12 10 10 11 11 12 13 13 13 13 14 18 17 14 15 14 15 14 14 12 13 11 10 10 11 13 15 20 22
86 87 88 89 90 90 90 90 89 88 87 84 84 39 17 13 11 11 9 11 12 13 14 14 13 14 16 16 13 12 13 13 16 15 16 14 14 12 14 14 12 13 14 20 23
85 85 86 87 88 88 88 89 87 85 84 80 42 21 16 20 12 12 11 12 13 14 15 14 13 16 14 13 12 11 11 13 16 16 16 16 15 13 13 14 14 14 13 15 20
84 83 83 84 85 88 89 87 84 75 52 36 18 17 13 15 13 13 11 14 14 15 14 14 13 13 11 10 11 14 14 17 16 16 16 15 16 14 14 16 16 16 15 14 19
85 81 78 81 89 91 75 40 24 22 17 18 17 16 14 12 13 13 13 14 12 14 15 17 14 18 16 18 17 16 17 17 15 19 22 21 19 15 16 16 17 16 16 18 23
87 85 84 85 90 90 54 26 34 27 20 17 16 15 14 14 14 15 14 13 15 16 18 15 21 19 18 19 18 19 19 20 20 21 26 22 18 16 17 20 20 18 19 20 19
86 87 85 86 91 72 43 47 50 37 18 18 18 16 15 16 22 20 16 17 15 17 17 18 19 20 21 23 24 24 24 28 27 23 24 23 20 18 18 18 18 18 19 19 21
86 89 86 88 60 44 42 46 52 41 22 20 17 16 15 15 21 19 20 18 19 20 17 20 21 24 24 27 27 24 26 30 29 28 20 25 21 22 19 19 20 20 21 22 22
86 84 87 78 47 29 47 52 55 42 39 22 18 13 17 19 20 21 20 19 23 24 23 24 25 26 27 28 28 31 33 33 34 30 27 26 21 25 20 22 22 24 24 25 25
88 81 80 50 51 53 55 54 51 44 40 25 19 21 22 23 24 20 22 20 24 24 21 25 24 25 28 27 28 30 32 33 33 33 40 34 30 28 24 28 26 26 28 33 32
91 87 61 47 43 62 60 43 35 44 30 25 24 22 26 29 29 26 29 34 30 30 33 27 28 27 30 26 29 26 31 39 52 50 43 34 32 37 32 30 29 32 34 37 36
89 81 82 58 57 65 47 41 40 37 30 24 24 24 28 29 31 32 28 30 32 30 29 32 37 32 32 34 36 35 36 52 50 49 39 36 31 34 30 28 28 31 32 34 36
84 54 54 66 67 57 36 58 46 30 25 24 24 27 31 31 30 32 37 36 37 36 36 38 35 31 34 32 33 36 44 39 56 80 65 32 33 34 32 32 31 31 31 34 36
39 43 50 67 65 47 50 50 33 30 29 25 30 31 33 34 34 34 37 37 37 38 36 42 42 33 32 33 34 34 36 47 46 77 45 23 31 25 38 34 33 31 33 36 36
47 35 55 64 55 34 53 42 33 33 32 30 33 36 36 38 35 40 40 38 35 39 35 35 41 36 35 38 39 39 42 41 38 52 57 53 27 33 31 33 35 32 37 37 37
52 43 57 61 40 42 38 31 48 35 34 36 36 37 38 41 43 44 44 40 41 38 40 44 47 41 31 37 38 36 39 37 49 44 54 63 41 28 30 35 35 36 41 38 37
42 44 51 55 66 75 43 41 38 35 38 35 42 39 41 44 51 44 44 47 41 40 43 42 49 38 34 38 39 42 39 43 47 58 61 83 44 26 30 31 29 37 38 38 36
41 74 49 41 43 38 41 42 43 40 43 39 41 37 42 46 43 52 49 48 49 45 75 57 46 41 33 28 32 39 34 35 43 71 52 49 38 29 26 30 33 38 40 37 38
46 59 56 66 54 40 39 38 40 42 41 38 40 38 42 57 48 52 47 47 46 64 52 48 51 44 39 35 35 42 41 37 42 48 60 47 35 31 31 34 37 42 40 39 39
51 56 51 54 49 41 57 42 38 43 37 42 40 42 36 42 35 48 38 41 39 49 50 52 59 66 60 45 42 51 40 40 44 43 40 42 43 32 33 39 44 42 41 43 51
63 55 46 75 55 55 51 41 39 40 48 40 40 43 58 41 39 48 48 47 45 47 56 62 70 73 84 56 62 85 51 42 42 37 42 50 36 37 41 44 45 45 46 57 61

GFSSW_sfc_rhum_021.txt.gz
RH
85 85 79 77 78 78 78 82 85 84 86 86 86 87 87 90 88 39 15 24 30 64 50 13 12 10 7 6 6 5 7 8 8 8 8 6 7 6 8 12 12 12 16 18 26
83 83 80 78 79 79 79 84 86 86 87 86 88 89 90 90 32 10 32 71 77 77 16 11 10 7 6 6 6 6 7 7 6 6 6 5 5 6 9 10 10 15 16 22 27
83 82 82 81 82 82 82 86 88 86 86 88 90 90 90 75 25 10 66 68 66 58 13 8 6 6 7 6 6 6 7 6 6 5 4 5 5 5 6 9 10 12 15 22 27
86 83 84 82 81 80 82 88 90 87 87 88 88 89 88 35 16 10 54 66 71 21 9 8 7 7 7 8 6 7 6 5 5 6 6 6 6 6 6 7 7 8 14 20 25
90 88 86 84 81 82 87 91 90 88 88 88 86 87 50 22 12 9 38 34 12 9 8 7 7 6 7 6 5 7 7 6 6 6 7 8 8 8 7 7 7 10 14 19 23
90 90 90 90 89 86 90 91 90 91 90 88 86 90 30 17 10 8 8 8 8 8 7 7 8 7 6 7 8 9 10 10 9 10 10 11 10 10 8 7 7 10 13 15 17
90 90 90 90 91 92 92 92 91 90 90 86 84 41 23 14 9 8 8 8 8 10 9 9 8 8 9 13 10 10 11 12 11 11 11 10 10 10 8 8 9 9 10 13 15
85 88 89 90 90 90 90 89 88 89 88 86 81 32 17 10 8 8 7 8 9 10 10 10 10 11 11 12 10 11 11 13 12 11 12 12 13 9 10 10 10 10 10 12 14
84 86 87 87 88 88 87 86 87 86 86 79 43 34 14 20 10 8 8 9 11 12 11 10 11 11 13 13 12 10 11 10 14 11 11 12 12 10 11 11 11 10 10 11 12
81 81 82 84 85 86 88 86 85 79 57 26 16 16 11 12 10 10 9 11 12 13 13 12 11 12 9 9 12 11 10 11 11 12 10 10 10 11 11 12 12 11 11 11 12
75 79 80 81 87 88 73 32 24 27 16 15 12 13 11 9 10 10 10 11 11 13 14 12 13 14 12 12 12 11 12 12 11 13 15 13 13 12 13 13 14 13 13 13 14
79 81 78 81 86 89 58 25 27 20 18 13 14 14 13 12 11 12 10 13 14 13 12 11 17 15 13 14 14 14 15 15 15 15 17 15 14 14 14 16 15 16 17 19 20
83 81 84 88 92 73 33 33 31 25 16 16 14 13 14 12 16 15 12 12 11 11 10 16 16 15 17 17 18 17 19 22 20 16 16 17 16 16 15 15 15 16 17 17 18
84 79 89 90 64 34 32 34 35 36 20 16 14 13 12 13 18 14 15 14 13 12 12 16 17 18 18 20 20 20 21 23 22 20 18 17 19 18 16 18 18 19 20 20 19
85 84 89 86 35 25 35 36 40 41 38 18 15 12 12 16 16 17 14 14 14 16 18 20 19 21 22 23 21 23 25 25 24 24 19 18 16 21 16 19 20 22 23 24 24
85 85 86 52 44 39 37 41 45 43 38 20 15 17 18 17 18 16 17 15 17 16 16 19 18 20 23 22 22 23 25 24 25 24 33 23 22 21 20 22 23 24 27 28 28
89 84 72 35 34 45 48 41 28 45 20 20 19 18 19 21 22 19 21 24 22 27 27 21 22 22 23 23 23 22 25 39 46 42 40 24 22 32 26 24 25 28 29 30 29
87 85 70 43 39 52 43 32 46 26 19 16 17 18 23 20 24 23 20 24 24 22 20 24 36 24 24 27 29 27 29 50 46 43 32 25 22 27 24 23 25 25 26 27 28
89 49 45 57 55 50 30 49 35 22 18 19 18 21 24 24 23 26 28 28 28 27 29 30 30 24 27 25 26 29 36 29 46 58 54 22 24 27 25 27 26 26 27 29 29
31 32 36 57 57 48 40 45 27 22 19 17 24 24 26 25 26 26 28 29 29 28 26 30 36 24 24 25 28 28 27 43 41 66 41 19 20 22 33 29 27 25 26 28 28
37 29 53 53 51 29 44 33 27 24 22 22 24 26 25 29 26 30 31 31 28 30 26 24 30 29 23 28 26 29 32 32 27 40 48 42 25 23 24 25 27 25 28 30 30
42 35 49 51 30 32 36 26 42 26 27 27 26 26 28 29 31 34 34 34 32 29 31 32 34 40 22 25 28 27 30 30 47 37 43 55 40 22 22 25 27 27 28 30 31
30 37 44 50 58 63 35 33 27 28 27 27 33 29 30 32 42 35 36 39 32 33 38 34 41 39 27 31 31 32 28 30 34 49 48 74 44 21 22 24 23 26 31 31 32
31 60 38 37 32 30 34 32 36 33 33 29 32 29 33 35 32 41 40 41 41 38 70 52 34 35 40 29 23 29 25 23 30 55 52 45 32 23 22 25 25 26 30 30 32
32 44 40 52 43 32 31 29 32 34 31 28 32 30 33 43 37 40 36 42 40 62 42 39 47 35 32 25 23 25 28 27 29 31 50 42 32 26 26 29 31 31 31 32 33
34 41 38 40 34 34 47 32 29 32 29 32 32 30 28 42 28 37 30 30 32 38 39 38 54 58 51 30 26 34 27 27 27 31 30 31 33 25 27 26 32 33 38 43 39
41 42 37 63 42 43 39 32 29 33 39 26 29 30 46 33 35 37 37 34 33 37 44 50 61 58 69 47 58 84 43 30 28 29 34 46 34 26 31 36 46 48 46 44 49

GFSSW_sfc_rhum_024.txt.gz
RH
86 86 86 86 81 78 78 81 85 85 84 85 86 87 88 90 89 51 21 25 29 60 48 14 12 11 10 8 6 6 10 12 11 12 9 7 7 6 8 12 11 15 20 27 29
84 83 82 85 84 79 81 83 86 87 85 86 87 90 91 91 47 21 35 65 72 74 17 14 12 10 10 7 6 6 10 8 6 6 6 6 6 7 10 11 12 18 22 27 27
85 84 83 85 86 85 80 86 88 86 85 88 90 91 91 80 36 14 63 58 64 66 17 14 7 7 8 6 6 6 9 7 5 6 5 5 5 6 8 9 12 15 26 28 28
90 89 87 84 86 85 86 87 89 87 87 87 87 89 88 56 22 11 51 58 70 23 16 8 7 8 8 8 6 7 6 5 5 5 5 5 5 6 8 9 8 12 16 26 27
92 91 87 84 86 84 83 89 90 89 87 87 87 89 62 31 13 9 35 39 19 17 11 8 8 7 7 6 6 7 5 5 5 6 7 7 6 7 7 8 8 12 16 23 26
92 91 90 89 90 86 85 91 92 90 90 88 87 91 48 25 8 8 8 8 7 7 6 7 7 6 5 5 7 7 7 7 7 8 8 8 9 10 7 7 8 11 16 19 23
91 91 90 90 90 92 92 91 91 91 90 86 85 55 31 17 7 7 7 8 8 9 9 8 7 7 8 11 8 8 10 10 10 10 9 9 10 10 8 8 8 9 12 16 17
89 90 89 90 90 90 91 90 89 88 88 87 84 44 26 10 8 8 6 7 7 8 9 8 8 11 12 10 8 10 11 14 11 10 11 11 14 8 8 9 9 9 10 11 15
88 88 88 89 89 89 88 88 87 87 86 82 57 38 21 20 9 7 7 8 8 9 10 8 10 10 10 12 13 11 14 14 14 9 11 12 14 9 9 11 11 11 11 12 13
84 84 85 87 87 87 86 86 85 81 63 34 25 25 12 10 8 8 7 10 10 12 12 12 12 12 12 13 20 15 10 10 12 12 9 10 10 10 11 11 12 12 11 12 13
78 81 82 84 85 85 81 41 29 30 23 15 12 13 9 7 7 8 8 10 11 13 17 12 15 16 13 12 10 10 10 10 10 12 13 12 12 12 12 13 16 17 17 17 27
76 79 79 82 83 87 65 32 26 22 20 12 12 12 10 10 11 10 10 13 14 16 12 11 16 14 11 11 12 12 14 14 13 13 15 13 14 13 14 16 16 17 18 25 26
81 81 81 82 89 73 37 32 26 28 17 14 12 11 12 11 13 12 12 11 12 13 10 20 16 13 13 14 16 14 17 23 20 16 14 16 17 17 16 16 18 19 20 21 24
82 80 88 92 67 35 32 27 30 38 22 15 14 11 11 12 16 11 11 14 11 11 10 17 14 15 16 17 19 19 21 22 20 20 21 16 23 19 18 19 20 21 24 23 23
84 78 90 93 61 27 33 31 34 43 48 16 13 10 10 15 14 14 10 12 14 14 15 19 17 19 19 23 20 22 22 22 22 24 22 17 22 21 18 22 23 25 26 28 28
82 85 89 57 58 36 35 39 44 56 50 19 13 15 15 15 16 14 13 13 15 13 15 18 15 19 22 20 19 19 24 22 23 26 48 22 21 31 20 22 25 27 29 30 30
83 86 72 40 45 42 50 43 34 49 16 19 17 16 17 19 17 17 18 20 22 26 27 20 21 21 19 23 21 21 26 53 68 59 59 25 24 33 24 23 25 31 32 33 33
85 88 67 42 39 53 48 38 49 22 17 13 15 17 21 19 20 19 20 23 21 24 21 25 38 23 20 25 27 26 26 67 60 66 49 23 23 33 25 25 26 26 27 29 32
88 61 52 62 57 57 42 54 36 19 16 17 16 20 23 21 22 22 25 26 26 27 30 28 31 22 22 22 22 28 38 25 44 71 68 24 33 26 25 27 26 27 26 30 32
40 43 42 55 57 56 52 52 26 19 14 15 21 19 23 21 24 24 24 25 26 25 22 26 36 21 20 21 26 23 22 44 58 73 52 24 24 39 33 31 29 26 27 30 30
58 37 58 51 56 37 52 41 24 18 19 18 19 21 21 23 22 25 28 28 25 26 23 24 28 29 21 27 23 27 30 31 26 47 62 58 33 24 26 26 29 26 27 32 33
57 42 55 56 36 34 39 24 41 23 24 24 22 20 24 24 26 29 31 35 28 25 29 28 32 60 22 20 21 23 28 29 71 52 65 68 45 23 24 26 27 29 30 31 31
37 47 49 51 55 67 32 26 22 23 22 24 28 25 26 28 38 31 39 34 28 36 45 35 45 58 34 32 29 25 24 26 36 64 63 78 49 22 22 34 28 30 28 30 34
40 61 40 40 38 34 36 33 34 29 28 24 26 26 29 33 29 36 43 39 38 39 67 54 33 37 52 30 24 27 22 22 27 70 62 56 38 27 25 31 30 31 32 32 34
41 45 33 51 44 32 29 27 31 35 28 26 28 27 30 43 34 36 37 42 38 57 39 39 49 36 33 24 23 24 26 25 28 31 49 41 30 26 30 30 32 40 40 40 39
45 41 38 35 34 33 45 30 28 24 28 28 29 27 28 41 32 36 31 31 35 35 37 37 66 68 59 26 26 34 29 30 27 26 26 32 33 24 26 37 41 40 38 41 51
39 40 38 59 40 44 42 30 26 30 35 25 26 31 55 41 39 36 34 31 30 38 43 50 76 75 79 57 63 89 56 29 28 27 31 52 35 26 41 44 46 47 49 55 54

GFSSW_sfc_rhum_027.txt.gz
RH
89 89 88 88 90 87 83 83 86 87 86 86 87 88 90 92 89 72 38 32 35 64 53 20 19 20 19 19 15 12 16 16 14 14 15 12 11 10 15 16 23 30 39 42 37
87 85 85 87 89 90 85 86 87 89 89 89 90 91 92 92 68 41 38 57 69 72 23 20 19 17 20 15 14 12 17 13 9 10 10 10 9 10 15 18 38 44 39 36 37
87 88 88 88 89 90 89 85 88 89 89 90 91 91 92 90 59 26 54 68 75 73 26 20 18 16 17 15 11 12 11 8 9 8 8 9 9 10 15 20 31 45 42 40 40
83 85 91 90 89 89 89 87 89 89 90 91 90 91 90 76 40 18 59 71 74 45 30 23 21 13 15 14 11 9 8 7 9 8 7 7 7 9 13 14 19 36 35 37 39
88 92 92 88 88 90 89 83 90 91 91 90 89 90 78 59 33 12 66 62 42 25 25 24 17 13 13 11 9 8 8 8 8 9 10 8 9 10 13 12 17 32 32 36 36
94 94 92 90 89 91 88 85 92 92 91 90 89 90 74 40 14 10 10 15 17 22 20 18 14 10 12 13 10 10 8 8 9 12 12 13 14 14 12 10 19 25 34 33 33
93 92 92 91 91 91 92 92 92 91 91 89 87 67 53 42 14 12 10 12 10 12 14 12 13 15 15 16 14 10 14 12 13 12 13 15 18 14 11 10 14 18 26 31 31
91 91 91 90 90 91 91 92 92 90 89 88 86 67 50 17 14 10 10 11 11 11 14 14 15 17 21 15 12 14 18 21 16 14 14 14 22 14 12 12 14 16 15 23 30
90 89 89 89 89 90 90 89 89 88 87 85 77 72 37 22 14 10 11 12 13 13 19 10 16 22 16 20 24 21 23 22 19 14 18 18 20 15 14 12 14 16 16 16 21
87 86 86 88 88 89 89 87 87 88 77 48 41 48 30 17 13 11 12 14 18 20 21 22 22 23 23 25 32 23 21 21 22 18 13 15 20 20 17 15 20 20 21 36 41
84 83 84 85 86 88 95 76 52 52 55 38 27 29 13 10 11 12 11 16 18 22 28 22 27 30 22 19 16 17 19 21 21 18 20 21 19 21 23 22 23 38 39 42 46
83 81 80 83 84 86 89 66 45 39 39 27 19 16 14 14 15 14 15 23 25 26 24 24 31 20 16 18 19 18 22 30 22 18 20 23 24 24 23 30 32 35 39 42 45
82 81 80 82 86 87 70 55 40 49 35 21 19 15 19 17 20 16 18 21 21 23 24 28 23 18 17 26 24 27 31 31 28 23 24 26 28 26 26 26 25 30 34 37 44
82 82 86 92 72 70 60 42 49 64 40 23 20 17 16 17 22 15 16 21 20 23 23 25 19 20 23 27 26 34 30 29 27 31 38 25 40 33 29 30 30 33 40 41 42
82 82 92 84 75 64 50 48 52 60 68 22 19 12 14 22 19 21 16 20 26 20 25 30 26 30 30 28 25 34 33 32 34 38 42 34 38 34 29 36 37 40 39 44 44
82 82 90 73 86 69 62 66 61 82 63 30 19 22 19 22 23 17 21 22 23 20 24 25 23 27 30 25 26 24 34 36 37 42 67 43 41 41 33 36 41 41 42 41 42
86 91 77 58 78 66 77 72 67 87 27 23 24 22 24 26 24 23 24 31 37 38 40 28 30 29 27 33 32 33 44 78 77 86 74 50 49 58 42 34 40 44 47 46 45
87 86 78 70 78 80 80 67 76 33 25 19 22 25 28 26 26 28 28 36 32 40 41 45 50 32 27 32 38 38 41 82 74 88 73 36 51 49 39 38 40 40 42 43 44
84 87 86 87 76 79 75 88 65 35 21 23 23 30 30 30 33 32 37 38 35 35 45 52 42 30 27 28 32 35 50 35 59 80 84 51 46 40 37 36 34 35 41 44 44
79 82 79 78 78 82 84 80 41 26 22 23 31 28 34 30 34 37 38 35 36 35 38 36 48 28 28 28 35 33 32 58 73 73 70 48 58 70 45 40 36 34 39 44 45
86 64 79 78 79 71 86 70 35 22 32 34 32 32 33 32 32 37 42 37 37 36 33 41 49 41 29 34 37 41 45 44 44 69 80 85 57 45 50 44 46 43 42 46 43
84 69 81 83 60 75 68 45 43 29 33 36 39 30 38 33 40 41 50 47 35 39 42 42 52 67 39 31 29 34 42 44 80 64 84 87 64 33 46 42 41 40 38 43 44
75 84 76 83 77 90 52 39 34 31 32 37 38 37 36 45 50 54 55 48 45 52 62 52 54 80 54 46 40 37 32 40 63 77 67 78 63 32 38 42 38 39 46 46 44
86 83 81 81 71 63 56 45 45 40 39 32 34 36 45 46 42 58 58 53 53 49 67 62 46 57 72 48 37 43 33 32 56 89 80 75 55 38 52 49 53 54 53 53 52
78 72 61 76 63 62 51 44 45 50 42 38 42 40 43 55 50 60 58 56 55 62 56 56 64 58 52 38 34 36 36 36 40 45 63 54 47 41 51 56 55 51 52 59 59
81 72 59 60 46 54 62 44 45 38 40 41 44 38 44 56 58 57 52 53 57 50 55 58 82 74 69 50 47 50 46 49 42 40 42 45 48 47 50 52 57 61 62 64 62
71 66 75 83 55 72 60 48 42 45 48 42 44 62 68 56 54 56 52 50 49 53 61 74 82 87 87 74 82 81 62 44 40 41 46 64 53 57 58 58 72 75 71 71 68

GFSSW_sfc_rhum_030.txt.gz
RH
91 90 90 90 92 92 92 88 88 90 86 86 87 88 88 93 91 79 43 31 49 67 48 23 23 24 26 25 19 14 20 21 17 19 14 12 15 15 23 33 38 40 47 34 38
87 86 86 88 91 92 92 91 88 89 88 88 89 90 92 93 78 54 45 60 69 69 23 21 20 21 24 21 19 18 20 16 12 12 11 10 11 13 34 52 56 52 40 39 36
84 81 83 88 91 92 92 92 90 89 90 91 92 92 92 92 62 35 53 56 72 69 26 24 22 21 22 19 16 14 11 11 9 10 9 10 12 13 36 56 51 50 45 42 38
92 84 83 88 91 92 92 92 89 89 90 90 89 90 92 84 38 20 55 69 78 50 31 26 27 30 19 16 14 10 11 8 12 10 9 8 9 13 18 34 43 41 40 44 41
95 91 91 90 90 92 92 92 88 91 90 89 88 90 84 62 36 19 63 73 53 34 28 25 27 18 15 13 10 10 10 9 12 11 10 9 10 14 17 35 41 40 38 40 38
96 95 95 93 92 91 91 92 86 92 92 89 89 90 74 47 20 15 22 39 25 24 24 26 22 15 16 14 10 9 9 9 10 14 13 13 16 13 16 37 42 39 40 39 39
95 94 93 92 92 91 91 93 93 92 90 90 88 74 67 43 25 23 12 13 14 21 19 19 19 17 23 15 12 10 11 12 14 15 16 15 18 16 12 36 41 39 39 39 38
93 92 92 92 91 91 91 92 92 92 90 88 87 76 46 25 23 14 13 11 12 15 19 18 16 21 17 18 14 16 19 21 17 16 16 15 20 16 13 25 40 40 39 38 43
91 90 91 90 90 90 90 90 90 89 88 84 82 79 30 28 14 10 13 13 15 14 17 11 17 24 17 23 24 23 23 24 23 16 18 20 22 18 14 16 21 25 42 45 55
89 88 88 88 89 89 89 88 86 88 84 62 48 52 35 26 14 13 13 15 20 19 19 18 26 26 25 26 29 28 24 24 24 20 20 18 25 21 19 19 35 49 56 56 56
88 85 85 86 87 87 93 77 52 55 58 29 32 36 22 17 13 14 14 17 20 24 30 26 27 28 23 22 19 20 26 24 26 21 20 24 27 29 34 48 53 55 56 57 58
85 83 82 83 85 86 88 65 46 43 36 29 34 31 23 13 20 17 16 24 28 29 29 28 31 22 19 24 28 25 29 31 24 21 20 29 30 36 40 48 50 53 56 59 59
83 83 81 84 87 85 68 57 48 51 54 23 24 20 19 19 23 19 20 27 26 28 29 32 23 20 26 30 29 38 36 38 32 30 27 28 32 39 37 40 42 48 53 55 58
82 82 84 91 72 69 53 38 49 52 43 27 24 19 18 20 25 17 17 23 27 30 25 26 21 24 32 30 32 45 36 33 32 35 33 30 45 40 42 43 43 47 57 60 58
82 85 90 86 71 70 53 64 65 54 57 25 23 15 17 23 23 22 18 24 30 25 27 32 35 33 33 34 30 35 34 38 39 42 47 41 42 42 42 48 49 53 54 59 62
82 89 92 72 85 73 74 78 51 78 57 30 22 23 22 26 25 21 24 23 27 26 26 28 29 30 34 30 31 30 38 46 46 50 66 48 47 47 49 46 49 47 51 54 59
88 90 83 64 76 78 83 55 61 80 30 27 27 23 26 28 28 26 30 37 45 40 42 33 36 31 31 37 33 34 55 76 77 81 74 52 60 61 44 43 44 53 54 53 54
90 92 80 72 88 82 71 55 74 46 33 24 27 30 30 29 30 33 35 43 37 45 43 49 53 36 30 37 41 42 51 78 67 81 70 45 64 60 50 43 45 43 48 48 50
91 87 91 87 81 82 67 85 68 47 26 26 28 35 37 33 30 36 43 42 41 42 46 53 46 36 33 33 35 42 51 42 70 81 80 61 56 46 47 44 42 45 47 48 48
83 85 77 82 84 73 84 82 55 33 30 27 35 34 38 33 37 41 46 42 41 38 43 44 49 35 33 30 33 33 36 59 74 69 71 56 63 63 58 53 48 46 47 49 52
86 58 65 85 67 68 82 75 47 33 35 34 38 33 35 36 37 48 50 46 42 40 37 48 49 44 39 38 42 41 48 50 52 74 78 84 61 46 52 53 48 46 49 50 52
85 67 78 63 45 86 70 50 43 34 34 35 41 43 38 38 49 59 55 51 50 53 43 49 56 67 44 35 34 37 46 52 78 60 86 86 65 47 49 48 48 47 48 52 55
77 91 83 58 61 87 57 44 39 37 38 39 45 42 43 48 62 62 60 61 48 53 61 51 57 76 57 49 44 40 40 56 65 77 65 77 61 42 47 53 51 55 55 59 62
85 86 81 88 74 56 64 48 50 46 42 39 40 39 45 51 56 64 64 57 53 49 71 62 56 57 67 55 45 43 39 53 60 84 76 75 53 48 61 62 62 64 67 68 67
90 74 60 68 62 70 60 48 51 51 44 40 40 43 47 61 62 69 65 62 54 60 56 58 67 64 58 47 44 42 43 44 46 54 68 57 59 61 65 65 65 68 67 66 66
82 77 71 61 48 55 70 54 50 48 44 48 47 51 50 61 56 67 59 64 61 55 62 66 79 72 57 63 62 52 48 56 54 46 46 58 75 65 62 68 72 73 72 72 70
78 77 66 86 58 65 67 50 51 47 49 56 57 64 67 60 65 65 62 56 55 56 72 76 82 79 64 80 71 72 60 52 45 50 48 62 70 65 72 75 82 84 76 75 74

GFSSW_sfc_rhum_033.txt.gz
RH
90 90 89 90 92 93 93 94 92 89 88 86 88 88 88 92 93 88 54 30 47 68 53 27 26 26 29 28 26 20 23 22 25 23 18 20 19 23 39 48 45 47 45 48 55
88 85 79 82 83 92 93 93 93 90 88 88 89 90 92 94 89 62 49 63 76 70 24 23 22 22 28 28 23 23 26 21 15 20 19 14 32 32 47 59 59 51 46 49 51
88 89 86 81 83 86 94 94 93 91 89 90 91 91 93 94 65 30 56 62 77 56 24 24 22 24 31 24 19 18 14 10 11 11 10 13 24 28 55 66 53 48 49 48 52
93 92 90 84 84 91 94 93 92 88 89 90 89 89 92 94 33 25 62 82 77 34 26 28 29 34 31 22 16 14 11 10 11 10 10 14 13 35 38 52 46 38 42 45 48
94 94 93 90 90 93 94 92 92 88 91 90 88 90 90 67 38 20 78 79 48 34 28 27 30 26 20 16 12 11 11 12 12 10 9 10 15 15 18 49 44 40 39 41 43
95 96 96 95 93 93 92 91 92 88 93 90 88 90 81 39 19 20 32 39 32 32 28 27 24 24 20 11 10 10 11 12 14 13 13 14 17 19 29 55 47 43 42 39 38
95 96 95 94 93 92 91 91 93 93 92 88 88 81 70 33 28 29 22 24 28 24 21 23 24 20 19 21 13 12 12 13 15 16 16 17 19 21 30 50 49 46 42 44 39
95 94 94 93 93 92 91 92 92 93 92 90 88 86 49 25 32 25 15 12 15 22 18 17 18 19 19 16 18 18 19 20 17 17 17 17 20 19 43 50 51 49 52 51 64
94 93 92 92 92 90 90 91 90 89 89 86 91 82 28 26 19 14 14 14 17 19 22 13 20 24 21 22 24 24 25 27 22 18 20 20 22 22 32 49 48 58 62 65 65
92 91 90 90 90 90 90 89 87 89 85 69 59 56 32 22 18 14 15 18 20 23 20 22 28 25 27 24 25 26 28 26 24 23 23 24 24 29 21 34 64 72 69 66 66
91 89 87 87 88 88 92 86 58 61 65 31 30 35 31 19 14 14 15 18 20 24 30 28 28 28 28 26 23 26 28 31 28 23 22 29 39 46 59 64 72 72 67 64 64
90 87 85 86 87 88 88 62 40 45 43 40 40 36 30 28 21 18 18 22 25 31 31 28 33 28 24 32 27 29 30 32 31 28 28 44 45 55 56 66 68 68 69 66 65
88 84 83 86 88 82 64 55 52 51 54 34 25 26 24 22 23 21 22 28 28 30 31 31 28 26 27 33 36 41 38 40 33 30 30 37 43 53 49 56 58 64 66 63 61
86 85 88 91 67 67 51 46 59 50 45 28 25 19 19 22 25 19 20 23 28 30 28 27 32 31 33 31 38 45 38 34 34 33 38 34 59 51 53 56 61 66 72 70 68
86 87 90 86 68 76 55 73 66 50 62 26 24 17 20 24 22 21 19 24 29 27 29 35 38 36 34 37 33 38 37 39 40 45 49 45 56 53 53 62 63 67 69 66 62
87 89 91 84 87 67 78 73 50 71 50 30 24 24 24 28 27 24 24 27 30 31 30 34 34 33 36 35 35 34 42 50 57 54 66 52 50 56 58 57 59 59 62 61 61
89 94 79 69 77 81 84 49 56 84 34 32 32 25 29 32 30 29 39 42 42 40 44 39 39 35 36 41 38 40 55 75 79 80 74 53 62 61 48 48 53 59 61 59 61
94 95 85 67 90 84 60 46 72 50 34 29 30 31 33 32 36 38 41 44 40 44 48 53 52 40 32 40 42 48 53 76 64 78 69 53 73 64 60 53 52 53 56 57 60
93 88 94 88 87 76 56 70 67 55 31 30 33 37 42 36 37 40 47 46 44 45 47 53 48 38 34 36 37 47 52 47 76 84 80 70 66 53 54 56 54 54 52 53 57
88 88 81 85 83 72 75 70 63 43 34 30 40 38 41 36 42 46 50 46 42 42 45 47 51 39 34 34 36 35 38 63 75 69 70 64 74 73 60 61 56 52 63 58 62
80 55 59 90 59 61 71 75 61 34 39 32 36 41 39 39 44 53 54 50 47 47 42 49 47 44 43 40 45 43 50 56 59 77 79 84 66 49 56 56 60 59 60 62 66
77 62 77 55 50 87 75 60 52 37 36 40 43 44 42 44 59 59 57 56 57 54 44 54 57 68 47 40 42 42 51 52 70 57 88 85 65 47 59 57 53 58 59 65 64
80 95 86 48 61 89 58 49 46 39 39 43 47 47 50 59 62 65 64 62 49 55 56 51 58 71 55 49 44 45 48 63 66 76 68 78 62 45 59 64 62 65 67 69 69
83 90 83 90 69 53 59 57 53 48 44 42 43 45 49 60 64 68 68 62 56 50 70 59 63 56 62 53 52 44 43 59 59 83 75 71 55 71 70 70 71 72 73 73 71
88 75 69 79 78 77 59 55 52 51 46 42 45 47 50 64 70 74 70 65 54 62 60 56 64 68 58 54 48 44 41 53 56 58 64 57 60 57 70 73 76 76 75 72 70
90 78 78 62 56 65 76 60 51 51 47 50 47 60 56 56 55 69 63 63 52 57 70 70 78 71 61 70 66 54 43 48 51 52 60 72 83 71 69 74 78 77 76 74 71
86 88 69 86 69 68 74 55 52 51 64 59 56 63 66 66 67 68 66 64 58 60 79 75 79 69 54 80 61 58 48 53 51 51 54 83 68 71 79 77 84 85 76 70 68

GFSSW_sfc_rhum_036.txt.gz
RH
89 88 82 80 84 82 89 94 94 94 89 87 87 88 88 91 93 93 62 32 49 65 58 28 28 29 34 33 26 20 24 25 26 38 38 32 36 24 44 48 50 50 69 70 74
86 84 84 88 87 82 83 93 94 94 91 88 89 90 92 94 97 72 54 68 72 67 26 25 28 28 30 31 25 24 26 22 19 22 34 31 32 43 50 59 54 59 65 68 70
87 88 88 88 91 85 83 89 95 92 91 90 91 90 93 95 76 29 58 68 76 55 24 24 27 26 31 28 22 23 22 14 13 23 16 27 31 46 56 65 56 63 71 70 70
92 91 90 89 89 90 86 94 95 91 88 89 90 89 92 98 35 27 81 79 77 31 26 26 27 32 34 25 22 19 15 10 12 14 17 31 25 52 49 42 46 53 60 61 60
94 94 93 91 88 92 94 95 93 92 89 90 89 89 91 73 40 44 82 78 41 29 26 29 32 30 29 22 17 16 12 14 11 11 16 14 23 43 28 58 45 51 52 53 49
94 94 96 95 94 94 95 93 92 92 88 91 89 91 82 44 21 38 50 43 37 30 30 27 28 29 28 19 11 12 12 14 13 12 14 15 20 19 42 57 49 49 52 53 49
94 95 96 95 95 94 93 92 92 93 92 90 88 86 78 42 26 31 29 32 31 28 26 28 26 25 23 20 14 14 13 13 14 16 18 16 20 24 56 51 50 47 48 49 50
94 96 95 94 94 94 93 92 92 92 92 91 88 89 58 27 34 27 26 17 26 27 24 22 25 25 22 20 19 18 20 18 16 17 20 15 19 22 65 55 61 57 55 64 71
95 95 93 93 93 93 92 91 91 90 89 87 92 88 41 26 23 17 18 16 20 24 20 16 21 24 22 22 24 24 24 28 24 20 20 20 25 29 65 61 60 61 72 71 74
94 93 92 91 92 92 91 89 88 90 88 74 68 64 33 22 24 14 16 18 23 27 21 23 28 26 27 21 27 25 27 28 28 25 21 23 42 54 51 57 74 79 78 77 76
93 92 90 90 90 90 93 90 62 64 76 38 34 33 33 26 19 16 16 21 24 25 31 30 26 28 25 26 24 26 26 30 31 26 37 61 67 69 72 76 83 82 80 78 76
93 90 89 88 89 90 94 66 42 42 55 48 42 41 34 30 29 18 19 24 27 32 33 31 33 28 33 31 32 30 31 35 35 31 41 61 62 68 70 80 83 80 79 77 75
92 89 87 88 89 94 79 56 54 53 60 38 38 29 22 26 27 21 23 28 28 30 30 32 32 30 34 39 37 43 37 42 36 37 38 45 53 64 62 69 70 73 73 70 72
91 89 90 92 82 72 54 40 66 52 45 30 28 23 21 24 28 20 22 24 29 31 28 34 36 33 34 33 40 44 41 36 36 34 42 39 50 62 66 73 75 74 77 75 72
91 89 91 84 75 73 44 74 74 44 56 29 26 19 23 23 22 22 25 25 28 32 31 40 40 36 35 39 35 42 39 41 42 48 47 48 56 63 67 75 73 77 77 76 79
91 90 93 87 91 74 81 64 47 69 62 34 24 24 28 29 29 27 31 30 29 35 36 40 37 36 39 38 36 37 47 53 60 58 68 59 52 60 71 67 70 68 72 72 73
91 92 89 69 76 87 78 46 55 75 36 36 32 27 32 36 33 35 41 45 38 44 50 42 42 37 38 41 41 46 56 76 79 80 75 58 61 58 52 58 61 66 70 70 70
92 95 90 76 90 85 54 43 52 47 42 32 31 33 34 36 41 42 44 47 44 43 52 54 53 43 34 42 44 54 51 77 65 84 73 58 73 62 61 51 57 60 65 67 70
96 98 95 93 83 70 50 64 51 58 36 34 34 38 46 40 40 44 51 48 47 49 47 54 50 41 38 42 40 52 55 50 79 85 81 72 67 62 63 65 62 62 62 65 61
93 92 89 90 83 69 62 53 56 55 39 35 39 42 46 42 46 49 53 51 46 45 49 49 54 42 37 38 39 40 45 63 75 66 66 69 75 76 70 68 64 62 64 66 69
79 73 68 86 55 56 60 56 64 52 40 33 40 45 42 43 50 56 54 53 51 51 46 50 48 46 46 43 48 47 54 61 64 78 77 84 70 60 63 61 62 64 67 69 73
72 67 84 55 53 85 71 64 60 38 42 44 43 41 44 51 60 59 56 54 62 58 45 57 57 66 48 43 48 46 52 50 63 51 88 85 67 56 64 62 64 65 66 74 72
90 98 90 49 70 89 60 54 50 41 45 45 50 48 55 62 64 67 67 63 52 57 51 49 59 70 52 44 46 49 59 62 65 76 72 80 59 60 66 67 65 72 74 74 74
86 95 88 82 70 55 51 54 53 50 49 44 48 50 57 69 67 71 70 63 57 56 71 59 63 56 60 47 54 46 53 62 58 82 72 72 54 64 72 73 76 77 77 77 74
84 82 79 86 84 60 44 50 53 52 48 44 47 49 56 69 74 76 72 67 53 66 66 54 63 69 65 64 54 47 45 61 57 57 56 54 61 50 68 74 78 78 79 76 73
90 75 73 72 77 66 72 58 51 54 52 52 48 66 58 61 54 70 65 63 46 65 73 69 78 69 66 74 68 61 48 49 58 56 62 66 61 65 75 80 83 82 80 77 72
95 87 66 86 81 74 77 62 54 57 68 62 55 61 67 66 69 74 71 68 60 65 79 73 78 71 69 77 60 57 52 52 55 60 56 71 54 80 85 82 86 87 82 76 72

GFSSW_sfc_rhum_039.txt.gz
RH
88 87 82 81 82 90 86 82 83 94 91 89 88 88 88 91 91 85 49 30 44 69 55 24 21 22 24 23 19 16 17 18 30 40 51 34 36 28 40 44 46 46 66 68 78
85 82 82 84 90 92 89 86 86 92 92 90 90 90 91 93 89 65 49 70 72 71 21 21 21 24 23 22 20 18 20 17 17 33 50 34 32 36 45 47 46 63 72 74 76
86 87 87 88 90 88 92 87 82 93 92 91 90 90 93 90 58 25 60 71 74 59 20 20 20 20 22 21 19 18 19 17 14 23 29 29 34 42 44 46 42 59 79 77 76
91 90 90 89 86 85 90 92 94 93 90 89 88 89 93 86 27 17 86 81 76 26 22 23 22 25 27 22 18 16 14 11 12 15 23 28 32 43 37 32 39 56 68 71 71
93 93 92 90 87 86 93 94 94 92 91 87 89 89 82 58 41 41 81 78 43 25 23 24 26 25 27 22 16 16 12 11 11 15 24 21 35 39 27 44 49 58 62 62 60
92 94 94 94 94 94 95 94 93 91 92 88 90 90 73 40 19 45 44 37 28 25 25 24 22 23 23 17 14 14 12 12 11 13 14 16 19 25 32 44 53 56 53 51 46
92 94 95 96 95 95 94 93 92 92 92 90 88 85 75 40 21 36 33 31 30 26 26 24 23 21 22 16 11 11 12 13 13 12 13 13 15 17 40 42 51 51 47 44 39
93 94 96 96 94 94 93 92 92 92 92 91 88 85 56 28 30 28 27 20 26 25 21 22 24 22 18 16 17 14 15 14 13 12 15 12 16 25 53 42 48 47 46 45 50
94 95 95 94 93 93 92 92 91 90 90 87 88 81 44 30 22 17 17 16 20 26 24 18 23 23 17 20 19 19 17 18 16 15 14 15 21 36 44 48 49 48 50 49 54
94 94 94 92 92 92 92 90 89 89 85 74 68 64 32 22 23 16 14 17 21 23 23 22 23 22 21 16 21 21 20 20 19 18 28 24 43 47 50 50 56 59 59 59 60
93 93 93 91 90 90 91 83 62 61 73 43 36 37 28 25 23 14 14 21 20 25 27 26 23 23 18 19 17 19 19 20 21 24 41 53 56 57 60 59 62 62 62 64 66
93 93 92 90 89 91 89 67 44 42 55 52 46 41 36 30 25 18 19 22 26 27 25 25 27 22 29 25 25 23 25 28 28 30 39 47 55 59 60 65 62 62 64 66 70
92 92 90 89 91 93 88 66 53 52 62 39 43 34 22 26 25 20 22 26 24 26 26 31 23 27 31 32 31 33 32 30 27 32 36 37 41 55 60 62 63 62 61 63 62
92 92 91 92 80 79 64 48 53 59 46 33 29 23 22 23 27 17 19 24 27 28 28 31 30 28 29 32 31 36 30 29 27 26 29 32 25 45 60 67 65 64 62 60 60
93 92 92 84 76 64 50 73 67 51 56 31 24 17 21 22 22 22 25 23 28 28 27 32 32 32 32 32 30 36 35 34 34 36 33 34 29 41 62 71 67 63 59 57 59
94 92 93 90 90 76 73 62 55 64 59 32 24 23 26 27 26 23 28 27 28 36 34 34 28 29 29 35 32 40 39 43 46 44 47 42 36 34 57 56 63 59 57 57 58
96 92 88 72 70 86 77 55 56 68 38 33 30 27 31 33 32 34 37 40 33 43 44 36 35 31 33 33 33 37 42 52 56 61 54 47 50 42 40 46 54 57 55 56 55
96 94 92 79 82 85 59 47 56 45 45 31 29 31 33 32 37 38 37 41 38 38 43 42 38 31 31 32 36 42 40 63 56 64 55 47 52 40 46 42 46 48 48 54 56
95 96 92 86 83 79 54 63 54 46 40 33 31 36 40 37 38 41 42 41 38 37 40 48 40 31 33 34 32 43 43 41 63 72 63 45 46 42 53 51 52 50 53 54 53
94 92 83 92 90 66 59 56 41 48 37 34 35 41 44 39 42 42 42 44 39 39 39 44 47 34 30 31 35 35 40 50 55 61 49 41 50 43 56 54 54 52 53 53 53
89 82 77 91 66 57 60 53 54 53 40 33 38 42 42 43 45 46 46 46 43 41 41 40 46 42 36 33 39 41 46 53 49 57 49 56 35 47 48 50 53 49 51 53 55
83 72 92 67 58 74 61 48 59 44 42 44 39 40 42 48 52 51 50 46 56 47 40 43 53 56 38 34 36 35 41 44 50 44 66 62 42 41 49 50 52 51 54 56 57
73 95 95 59 73 84 58 52 46 42 43 42 49 46 54 59 59 58 59 58 48 45 50 48 54 56 42 35 37 38 45 48 52 60 59 80 38 44 54 55 52 52 59 61 57
92 94 90 71 68 55 54 51 49 51 49 45 49 51 58 62 62 66 62 56 55 51 73 57 53 51 52 40 43 41 52 47 47 63 53 53 36 35 50 56 59 60 60 58 57
82 84 79 83 72 56 46 51 48 52 48 45 48 49 56 66 65 69 61 53 49 68 60 51 53 50 51 52 44 36 40 52 47 46 51 40 43 34 36 50 57 59 61 62 57
84 75 73 74 70 55 68 58 50 53 54 50 52 57 52 60 52 68 60 56 44 57 60 58 64 55 58 59 57 51 42 43 52 48 43 48 45 37 49 57 63 63 62 62 59
95 76 64 84 79 64 65 62 51 57 65 59 54 57 60 60 62 68 66 64 54 60 68 61 71 65 64 59 48 61 46 43 43 45 43 49 37 59 63 62 61 63 63 62 58

GFSSW_sfc_rhum_042.txt.gz
RH
86 83 82 82 81 88 92 91 88 86 84 90 89 88 87 90 84 51 30 22 29 69 62 14 14 12 12 12 13 11 11 18 29 29 40 31 26 26 30 32 37 39 49 53 72
84 80 82 82 89 92 88 90 90 86 87 91 90 89 90 92 54 35 29 63 71 77 12 14 13 14 11 12 13 12 11 13 18 27 29 32 27 27 30 37 39 42 53 57 61
84 86 86 87 90 84 84 85 92 88 91 92 89 88 92 77 45 13 68 69 73 58 14 14 12 12 12 13 13 11 12 12 12 26 24 30 24 24 22 31 30 33 56 57 58
90 90 88 88 89 83 84 86 93 91 91 89 87 87 91 58 20 13 80 85 74 22 14 16 14 14 11 12 10 13 11 10 12 23 22 27 22 26 24 22 26 27 47 51 51
93 93 90 90 90 88 85 91 94 92 90 88 86 89 60 40 22 30 73 70 25 17 14 16 15 13 12 10 12 13 11 10 17 20 19 22 23 25 24 30 31 39 46 43 39
93 92 92 93 93 94 94 94 94 92 90 87 88 90 52 31 11 23 27 24 18 16 15 15 14 12 16 16 13 12 9 10 14 18 18 22 28 24 26 32 42 47 40 30 28
92 91 93 94 94 95 94 94 92 91 89 88 86 59 49 26 14 21 22 18 17 16 16 14 13 16 18 16 8 10 11 11 12 16 17 15 21 16 27 32 40 37 34 27 23
91 91 94 94 94 93 93 92 91 90 89 88 86 60 34 16 15 16 14 16 18 16 16 15 16 16 18 12 11 10 10 14 13 14 13 12 15 22 33 32 34 33 32 30 26
90 91 93 94 93 92 92 90 89 87 86 84 64 58 27 24 16 11 13 11 17 19 19 17 18 18 16 13 11 10 11 11 12 11 13 12 15 24 35 30 32 32 31 30 34
90 91 93 92 92 91 91 87 86 84 67 55 49 58 27 15 14 14 9 11 14 19 19 18 17 13 13 11 13 14 10 11 11 13 10 12 20 24 36 31 31 32 33 34 35
89 92 92 92 90 90 78 53 48 45 49 29 23 29 18 15 14 10 9 13 15 16 17 18 17 14 11 11 11 12 13 11 12 17 16 16 21 24 37 34 35 35 37 38 40
89 92 91 91 89 91 64 38 29 40 34 29 29 29 21 19 18 11 12 12 15 15 20 17 17 19 17 15 14 13 15 17 20 18 20 24 27 29 34 36 36 36 38 40 46
90 91 91 90 91 81 53 35 37 36 43 27 27 22 16 19 16 11 13 15 13 16 18 17 20 21 18 18 17 20 19 21 18 23 23 22 27 33 39 42 43 42 38 41 45
90 91 92 92 78 49 45 28 29 39 35 20 20 16 16 18 16 12 13 14 18 18 19 21 21 20 20 22 20 21 21 20 21 20 18 22 17 28 35 37 42 45 45 45 47
91 91 93 93 58 39 36 33 44 48 36 17 18 13 15 16 14 16 17 15 15 20 21 24 21 21 20 22 22 25 22 21 20 20 21 21 19 23 35 38 38 44 45 47 45
92 92 93 82 64 49 50 55 53 50 42 23 16 17 18 17 17 17 18 17 19 22 20 23 21 21 22 25 22 26 26 26 25 25 30 21 24 12 20 26 37 42 47 47 44
91 94 83 54 42 63 59 52 47 47 24 23 21 18 16 20 20 19 21 22 19 28 29 24 24 22 23 25 27 25 24 29 37 38 33 33 31 18 25 31 33 43 46 44 39
90 94 85 54 47 67 56 48 44 23 24 20 19 17 19 20 22 25 25 24 25 23 22 23 32 22 24 24 22 25 23 32 30 36 31 34 30 26 31 31 30 36 39 40 37
93 80 72 62 66 68 49 56 34 28 22 21 21 21 24 23 21 24 27 23 25 26 21 28 28 24 26 25 24 31 29 30 42 58 48 23 26 26 33 34 32 37 38 37 36
59 64 51 55 64 59 56 47 27 31 25 21 23 20 25 24 23 24 27 28 28 28 30 29 34 26 26 24 28 27 27 36 37 47 31 18 24 17 33 36 36 38 38 36 35
59 51 62 69 68 57 58 36 27 34 28 22 19 26 23 29 23 22 26 32 29 30 28 25 27 33 27 26 24 33 32 31 27 39 31 29 16 27 30 31 34 35 36 34 35
58 49 87 73 65 62 45 29 44 30 37 26 22 22 25 27 30 26 28 27 36 27 28 32 32 43 29 26 26 25 27 26 32 32 47 46 21 23 31 34 32 32 33 32 35
51 62 89 64 72 65 35 30 34 28 28 30 28 26 31 31 37 35 37 43 36 31 33 31 36 43 36 29 30 29 28 27 32 38 38 62 21 24 29 34 33 34 33 37 41
44 73 89 66 39 40 37 31 33 37 32 31 34 35 38 39 40 45 44 42 41 37 69 44 35 34 37 27 27 33 31 28 26 40 26 30 15 20 24 29 31 34 34 40 43
50 45 47 73 55 38 33 29 28 37 33 32 35 30 33 46 42 45 42 41 41 64 45 36 38 34 33 32 30 27 27 31 29 26 37 19 16 12 15 19 23 31 37 40 42
54 50 54 52 42 38 44 36 27 37 34 33 33 35 35 38 31 43 38 37 37 44 42 41 46 44 44 42 38 36 28 26 29 26 26 23 22 16 19 25 29 38 40 42 42
65 49 40 71 46 39 36 32 28 36 49 41 34 39 44 43 44 41 41 34 32 42 47 45 53 49 42 41 39 73 38 27 24 26 29 32 23 22 27 31 32 37 40 42 41

GFSSW_sfc_rhum_045.txt.gz
RH
82 85 81 85 86 88 91 87 88 91 85 82 88 88 87 90 90 43 26 20 25 69 62 12 11 8 7 8 8 8 12 12 15 19 66 30 26 21 21 23 26 31 32 37 63
81 83 84 86 90 92 85 83 85 91 87 86 90 89 89 91 51 22 24 64 64 75 13 12 11 8 8 8 9 9 12 12 37 49 30 26 32 19 27 25 28 34 44 56 62
82 84 86 86 89 91 88 83 86 89 90 90 90 88 90 80 34 12 67 69 67 56 10 10 9 8 9 8 10 10 12 11 36 60 25 18 19 20 23 24 19 28 52 54 52
87 87 88 86 87 91 92 89 88 90 90 89 87 85 90 54 24 15 75 77 72 19 13 12 10 10 10 10 9 12 10 9 9 18 18 19 20 19 18 18 19 25 39 41 41
91 91 89 86 88 92 94 94 93 91 89 87 85 86 65 31 17 25 73 75 25 15 13 12 12 10 10 8 8 10 11 10 14 16 17 20 45 58 17 16 16 33 36 37 37
90 91 90 90 92 93 94 94 94 91 88 86 85 89 55 26 9 12 17 18 12 13 12 10 11 9 12 12 9 10 13 16 19 20 18 21 29 18 21 19 27 34 32 28 26
90 90 90 91 93 94 93 93 92 90 87 86 85 55 38 21 10 12 16 13 13 13 13 11 10 13 13 15 10 10 19 19 17 18 18 17 19 18 21 21 29 29 26 22 17
89 89 90 92 93 93 92 92 90 88 86 86 86 47 33 12 10 11 11 12 12 13 13 12 13 14 16 12 10 13 11 21 15 16 16 17 17 16 21 22 23 22 19 17 16
89 89 89 92 92 92 91 90 88 85 84 80 65 44 26 24 13 9 9 11 13 14 14 13 16 19 17 13 14 11 15 15 15 12 12 14 13 17 19 20 23 22 21 19 20
89 88 89 92 92 90 90 87 84 82 67 39 32 42 26 14 11 11 8 9 14 17 18 18 18 19 16 14 16 13 13 12 14 12 10 10 13 18 20 19 23 23 23 23 25
88 87 90 91 91 89 81 47 42 45 38 24 20 18 16 13 10 10 8 10 13 15 18 18 20 18 16 13 11 11 9 10 8 8 9 10 12 17 20 20 22 24 25 25 28
88 87 90 90 89 89 66 34 26 37 37 22 16 18 16 14 16 10 9 12 14 23 21 17 22 15 10 9 10 10 13 11 11 9 14 11 13 15 20 21 20 22 26 29 30
88 88 89 89 90 78 46 33 28 31 41 20 16 16 15 13 14 10 10 11 14 17 17 30 19 16 12 11 12 12 14 23 14 14 12 14 16 21 20 20 22 22 23 25 31
88 89 89 92 80 40 41 28 27 34 42 21 18 14 12 14 15 8 9 11 13 16 14 25 23 15 13 13 13 17 16 14 15 17 18 15 17 18 22 26 30 30 29 30 32
88 90 92 97 61 38 36 25 32 49 51 14 13 9 10 14 11 11 9 11 15 13 15 18 16 14 14 17 15 23 17 16 15 14 17 17 14 23 21 24 28 30 33 33 37
90 91 92 76 65 45 38 46 47 59 52 17 13 16 16 14 12 10 11 10 13 14 14 41 16 15 18 17 16 19 19 18 17 17 28 16 18 13 19 18 22 28 32 36 36
92 92 83 43 42 41 46 56 56 50 17 16 17 15 16 16 15 13 15 15 16 20 22 18 17 18 17 19 19 18 21 36 35 30 32 20 21 14 14 20 18 29 34 37 36
93 93 85 46 42 58 54 66 56 23 21 13 14 15 17 14 14 14 14 14 12 15 16 21 28 18 16 19 20 19 18 29 31 30 24 21 17 21 20 23 22 27 31 37 37
92 72 62 59 56 60 51 71 45 21 15 16 15 18 17 14 15 16 18 15 13 14 22 26 22 18 19 18 17 22 22 21 28 50 41 16 15 25 23 25 25 29 33 38 35
56 60 51 52 63 61 58 59 31 18 14 15 21 16 19 18 19 17 17 14 16 19 18 18 25 19 20 20 21 21 20 28 27 39 30 13 14 17 23 24 25 29 34 36 32
54 58 41 54 57 60 62 46 30 18 21 18 18 18 16 18 17 17 16 21 19 22 22 16 20 27 22 21 17 25 25 22 21 28 35 26 17 15 18 20 25 26 31 33 32
61 60 62 61 47 50 52 36 33 19 26 22 20 16 18 17 20 18 17 17 20 20 21 20 22 30 24 19 18 19 20 21 36 28 32 42 22 15 18 19 21 23 28 28 28
70 69 86 57 51 67 41 35 25 21 24 25 21 16 18 21 26 21 19 36 25 26 22 25 24 32 29 25 24 24 20 19 21 30 32 54 26 16 18 20 20 21 23 26 28
61 85 98 81 34 46 45 38 30 24 26 21 19 17 21 21 20 25 25 35 34 26 61 42 22 26 34 23 21 30 23 20 24 40 31 23 16 13 16 17 16 19 20 23 27
79 50 53 70 46 42 39 31 30 26 28 25 24 23 24 28 26 28 27 37 36 57 33 31 34 25 22 23 23 21 20 20 24 24 33 22 13 8 9 11 14 15 18 21 29
73 40 39 37 37 42 46 35 26 20 26 31 26 21 22 27 28 29 29 32 34 37 35 30 37 35 39 26 28 28 22 21 18 19 15 15 15 12 14 12 15 16 20 23 29
55 58 37 50 46 44 40 32 24 21 37 30 24 21 28 29 32 31 27 24 25 36 39 39 42 46 44 32 30 63 34 22 18 17 19 27 19 17 18 18 18 19 23 25 27

GFSSW_sfc_rhum_048.txt.gz
RH
83 82 86 87 90 91 91 88 86 87 87 88 86 89 88 90 89 43 41 24 28 64 55 15 12 9 8 9 8 7 12 14 15 42 59 46 59 76 24 27 36 26 67 43 70
82 81 82 86 90 91 92 92 88 88 88 90 90 89 90 92 62 32 30 63 63 68 14 14 12 10 9 8 8 10 14 14 26 41 59 62 61 71 24 26 24 45 52 61 69
82 83 83 85 89 90 92 93 91 88 89 91 90 89 90 81 43 17 70 68 68 50 13 10 10 10 10 8 8 9 14 12 29 41 52 59 51 42 26 35 30 52 62 66 64
88 87 86 86 87 89 92 93 93 90 90 88 86 87 88 56 32 15 74 74 73 19 14 12 12 11 10 10 8 11 11 10 25 38 49 59 57 62 39 36 47 44 52 52 57
90 90 88 86 87 90 93 94 94 91 90 87 85 86 57 41 26 18 75 70 26 16 15 13 12 10 10 8 9 12 11 12 10 25 19 32 42 47 47 19 43 43 37 41 44
90 89 89 89 90 92 93 94 93 92 90 86 85 90 54 38 10 11 14 24 14 12 13 11 11 10 11 12 10 10 13 16 18 17 17 37 40 44 25 30 35 32 32 33 40
90 89 88 89 90 92 92 93 92 92 88 86 84 57 42 31 11 11 15 14 12 13 14 11 10 12 12 16 11 14 20 18 19 20 21 39 63 45 21 28 32 29 28 29 23
89 88 89 89 90 92 92 92 91 90 88 86 84 52 40 15 11 11 11 14 12 11 13 12 13 14 15 17 10 14 18 25 16 19 20 25 52 24 20 25 28 26 25 22 19
89 88 88 88 91 92 92 91 91 87 85 82 66 51 32 21 14 10 10 11 11 12 14 12 15 18 18 22 19 19 22 20 18 14 17 23 24 19 19 21 24 23 22 20 20
89 88 87 88 91 91 91 90 78 81 71 41 36 39 30 16 10 8 8 9 13 16 18 18 19 22 20 20 26 21 17 15 16 13 14 18 14 16 18 20 23 22 19 19 20
88 87 87 89 90 90 80 55 50 58 45 28 23 21 14 12 11 11 10 10 12 17 22 20 23 23 19 16 13 15 15 17 12 11 11 11 15 13 16 19 25 24 23 23 23
88 87 86 89 89 88 72 44 28 35 46 28 20 17 13 14 16 10 8 12 16 19 18 21 31 21 15 15 14 12 17 16 10 8 10 11 11 14 15 18 22 25 26 27 30
88 87 87 88 88 81 52 38 25 29 44 30 22 13 13 13 16 12 10 11 14 21 19 26 42 34 21 18 14 13 24 29 22 16 10 13 12 17 16 16 17 21 24 26 30
88 87 88 91 83 46 43 31 30 39 52 27 19 13 13 13 17 9 8 10 13 19 29 40 29 31 24 14 12 29 26 19 24 35 18 22 32 28 19 20 20 20 24 28 30
90 88 90 99 67 43 36 28 31 49 74 18 16 9 12 14 11 12 8 10 16 17 21 41 32 29 21 16 17 31 29 26 15 17 22 30 34 33 27 24 22 27 26 27 30
90 90 91 76 70 54 45 48 42 68 63 17 11 14 15 13 12 9 10 10 11 15 16 30 32 28 23 16 14 22 25 18 18 25 38 40 36 33 31 32 26 25 29 30 33
90 91 88 45 50 44 51 61 70 59 17 18 15 15 16 17 14 12 14 15 17 24 22 24 17 15 16 16 16 16 21 43 81 75 48 14 21 20 34 22 28 27 32 35 40
92 93 84 52 46 51 60 79 64 28 29 11 13 16 18 15 14 14 13 15 12 14 16 33 34 19 15 16 46 36 24 70 63 67 42 28 21 25 22 19 20 26 30 37 40
94 78 69 67 67 61 69 87 50 29 19 17 13 18 18 15 14 15 15 15 12 13 20 26 32 31 18 13 25 32 25 21 27 61 67 22 12 24 21 23 23 27 31 40 40
74 62 58 62 70 66 79 70 39 24 17 14 19 16 20 16 17 17 16 14 12 11 18 35 62 46 24 17 17 18 16 32 31 51 46 19 17 34 25 23 24 28 35 41 40
72 61 49 59 68 67 73 61 42 23 19 20 17 17 16 17 16 18 15 13 12 18 18 31 48 32 20 21 15 24 26 19 17 32 57 56 27 18 18 20 24 24 33 38 40
77 66 56 67 73 51 60 44 38 30 20 21 20 17 17 16 18 18 17 16 16 16 22 19 24 37 24 16 15 18 21 21 60 39 46 63 39 17 20 21 22 23 28 33 36
74 72 77 63 63 60 44 42 31 30 26 24 27 18 17 18 23 18 17 29 19 20 23 23 31 45 29 21 21 24 17 17 22 38 44 77 38 16 17 18 18 22 24 30 34
64 89 99 89 46 42 46 44 40 30 24 19 22 19 19 22 19 23 20 32 30 25 58 43 27 28 41 24 21 27 24 18 23 67 49 42 22 14 17 19 17 22 23 25 30
94 61 68 92 75 48 45 38 36 34 26 23 23 21 21 27 23 23 21 38 33 52 32 30 32 22 18 17 18 23 22 19 21 24 41 33 21 14 12 16 17 18 19 20 20
88 62 56 49 57 53 47 47 36 30 24 28 28 21 19 26 22 24 23 36 34 36 34 31 41 38 39 28 23 29 22 20 20 20 17 20 20 14 15 17 18 18 16 18 21
56 65 79 63 60 53 50 46 38 28 25 20 24 26 29 25 25 30 26 27 25 37 40 37 52 58 66 35 37 60 36 25 21 18 20 28 23 17 16 16 19 22 19 24 23

GFSSW_sfc_rhum_051.txt.gz
RH
88 87 86 87 91 92 92 92 93 91 88 88 91 92 91 92 91 60 69 47 46 61 56 23 20 21 18 17 14 16 22 21 30 59 61 55 60 65 50 54 55 56 53 72 88
87 85 83 87 90 92 91 92 93 93 91 91 92 92 92 92 79 58 47 56 68 70 21 19 19 18 20 17 15 16 24 22 42 62 65 59 60 56 55 47 58 67 82 84 74
87 87 85 88 89 90 91 93 93 93 93 93 92 91 91 91 64 33 68 69 69 51 20 16 16 16 19 16 14 15 20 24 40 46 56 57 61 66 71 51 43 69 93 86 82
89 89 89 88 88 89 91 93 94 93 92 92 90 90 90 85 43 25 70 77 76 26 19 19 19 22 21 17 13 16 12 18 36 54 52 65 48 59 69 48 45 77 76 78 80
89 90 90 89 88 90 92 94 93 93 92 90 88 90 83 62 51 26 78 72 38 23 20 21 22 20 18 14 14 15 13 16 33 46 47 55 53 47 55 46 49 61 66 77 77
90 90 90 89 89 90 91 93 93 93 92 91 88 90 92 58 22 30 36 32 23 19 19 20 18 15 17 17 20 22 22 23 29 34 36 54 57 43 56 42 49 60 66 71 69
90 90 89 89 89 89 91 92 93 92 92 89 87 74 63 48 22 21 19 21 20 15 17 16 17 19 20 26 22 24 25 23 24 42 47 39 43 51 52 55 55 51 57 62 49
90 89 89 89 89 89 92 92 92 91 91 90 87 78 73 28 28 24 20 16 18 17 17 18 19 23 26 24 23 24 24 32 25 36 40 39 57 42 39 46 46 40 45 56 50
91 89 88 88 88 90 92 92 92 90 90 87 90 82 64 31 30 20 16 16 17 16 23 14 22 29 26 33 30 24 28 26 26 34 44 35 44 36 36 39 39 39 33 28 30
91 90 88 88 88 92 92 90 85 88 79 57 52 64 44 26 18 14 14 14 17 22 26 28 28 35 32 29 36 31 30 24 23 20 30 30 31 31 33 34 37 34 31 29 29
92 89 88 87 88 90 93 73 76 82 66 53 44 35 21 17 15 16 15 14 17 26 39 29 38 38 29 24 21 21 23 25 19 17 20 29 28 29 30 31 34 34 30 30 31
92 89 87 86 88 90 96 77 51 51 68 44 39 34 23 19 21 18 14 20 22 33 31 34 49 35 31 29 25 21 22 27 23 16 18 18 21 24 25 31 31 29 32 29 38
93 89 87 86 89 96 85 60 41 46 72 44 33 36 28 17 21 20 16 16 23 28 32 41 39 28 30 35 36 33 32 32 31 29 23 22 25 26 22 23 32 30 28 30 42
94 90 87 92 90 76 76 52 51 55 89 43 31 29 22 15 24 16 14 15 22 31 38 42 32 29 34 35 32 38 26 31 28 30 36 29 43 37 30 23 24 33 39 45 42
94 90 90 88 97 85 59 58 51 63 98 35 27 14 13 21 20 19 13 15 21 34 34 33 33 36 37 32 26 34 32 28 32 39 35 38 42 41 27 30 29 28 37 40 42
94 91 90 91 97 77 63 61 68 93 89 32 20 19 22 21 19 16 15 17 17 25 26 31 30 34 34 28 25 26 32 36 49 48 54 35 42 50 36 26 31 32 38 40 47
95 91 92 58 75 61 67 78 95 96 29 24 21 19 23 24 21 19 19 22 26 33 40 35 26 27 34 35 32 33 41 66 74 78 69 31 45 48 34 28 26 26 34 46 59
96 93 93 67 69 78 85 91 97 47 42 21 20 22 26 22 23 21 20 27 22 24 34 42 43 38 32 30 36 40 46 67 68 83 68 38 47 44 31 30 32 34 43 54 62
96 93 91 78 74 83 95 98 75 48 27 27 19 26 27 22 23 25 24 23 20 18 29 43 54 40 29 28 28 48 57 42 54 76 80 45 32 36 32 33 42 45 50 59 59
97 94 82 72 82 91 98 77 61 36 31 32 32 25 31 26 24 27 26 21 20 18 25 49 61 51 42 34 31 35 30 52 54 50 54 40 39 51 39 36 38 46 57 58 56
91 97 67 66 80 96 92 73 57 39 33 37 31 28 25 28 24 25 27 21 20 27 33 43 48 55 42 48 38 34 37 35 35 59 66 77 47 32 33 34 34 44 51 56 57
91 94 67 72 96 92 86 59 57 42 37 41 33 39 40 27 28 28 29 25 23 26 29 35 57 77 50 37 30 24 34 39 70 45 61 78 54 27 29 32 32 30 45 52 51
92 82 78 66 76 89 61 54 47 44 42 40 37 37 40 36 35 30 30 43 28 29 34 42 45 58 49 38 34 34 28 26 35 62 55 74 55 25 23 24 25 30 42 50 52
88 95 96 89 56 54 64 52 51 43 46 36 34 33 39 37 33 38 50 46 43 43 63 47 43 49 58 38 34 38 32 30 37 77 59 58 44 30 27 26 25 26 29 47 49
98 73 79 96 88 67 52 48 52 56 44 39 38 36 39 42 34 38 49 52 45 58 46 43 46 41 33 30 33 31 36 33 32 39 55 45 38 30 27 26 28 32 32 27 33
95 80 84 81 70 78 67 50 48 44 43 43 44 39 35 39 36 36 41 51 49 54 49 44 56 50 57 42 38 43 35 34 32 30 29 34 34 27 26 25 25 23 22 28 30
79 81 79 79 80 85 72 51 43 41 40 35 37 43 44 34 38 41 40 42 43 54 54 56 60 75 76 48 47 61 43 35 34 33 34 42 35 33 34 32 33 33 34 31 34

GFSSW_sfc_rhum_054.txt.gz
RH
89 89 89 89 90 91 92 92 93 93 91 90 90 90 89 92 90 73 69 41 56 67 58 26 24 27 26 24 20 18 24 27 22 66 64 65 66 62 60 57 56 67 80 85 90
89 86 84 88 90 91 91 91 92 93 93 93 93 92 93 93 88 71 55 71 72 75 32 28 22 20 28 23 20 18 25 21 26 65 69 67 73 68 67 59 87 92 93 90 88
90 89 86 88 89 90 90 91 92 93 93 93 93 92 92 94 71 41 65 77 72 71 24 22 21 22 26 23 20 18 19 28 58 62 60 64 71 64 60 55 67 96 95 91 89
90 89 89 89 89 89 89 91 92 92 92 92 89 91 91 91 38 26 68 79 78 36 23 24 25 29 27 24 20 18 14 25 56 57 57 65 63 58 64 55 66 80 85 85 90
90 90 89 89 89 89 89 91 92 92 91 90 89 91 82 61 54 32 74 75 40 25 25 24 30 32 26 19 19 21 18 32 50 56 56 56 59 55 53 51 72 66 82 82 78
91 90 90 90 89 89 89 90 92 93 92 90 89 91 86 61 26 43 37 42 26 23 22 24 25 22 22 23 24 23 46 50 55 53 59 57 58 50 47 51 67 78 84 80 79
92 91 90 90 89 89 88 89 92 92 92 89 87 77 79 40 29 27 24 26 26 19 19 18 21 27 24 28 26 27 31 42 49 52 44 48 53 53 49 49 65 74 78 81 82
92 92 92 90 90 89 88 90 92 92 91 90 87 84 70 38 42 33 30 24 21 18 17 18 24 27 30 30 27 24 29 39 50 44 39 36 44 39 39 58 70 75 78 82 78
93 92 92 91 90 90 90 91 91 92 90 88 92 84 70 41 34 30 27 22 19 21 23 16 24 32 28 36 33 27 30 28 36 32 38 36 41 39 40 42 62 70 69 70 79
94 93 92 90 89 90 92 90 86 90 79 65 59 66 49 27 24 21 19 19 22 29 28 27 33 39 40 31 37 34 29 26 28 41 42 47 39 35 37 49 55 62 63 50 57
95 94 92 90 87 90 94 83 68 76 72 56 42 44 26 23 20 20 17 21 22 30 45 39 42 44 35 36 33 26 28 29 24 26 42 38 34 33 42 46 43 40 53 49 52
96 94 91 88 86 90 95 82 57 53 65 52 46 43 31 32 32 21 18 22 24 34 40 35 44 35 28 33 38 36 35 31 28 23 34 37 35 38 38 38 34 31 36 36 39
93 96 91 87 89 94 92 72 49 51 72 56 47 47 42 39 34 24 20 22 25 35 35 39 35 33 33 36 38 39 44 37 33 30 25 27 34 27 29 38 38 35 28 29 35
92 95 91 89 84 83 86 63 65 61 84 57 49 38 36 26 24 18 19 19 29 34 39 41 39 33 39 37 35 41 35 34 35 32 30 33 45 46 27 33 39 35 39 37 39
96 95 92 81 88 83 67 65 64 70 57 35 37 26 27 22 24 23 18 21 24 36 33 34 41 38 37 32 30 40 40 40 35 41 41 38 38 36 35 32 35 39 40 37 46
96 96 93 94 98 84 70 69 76 86 80 44 30 28 22 23 26 20 20 21 23 33 35 34 35 32 32 34 34 31 36 46 51 52 56 39 40 40 37 29 24 33 36 40 54
95 96 89 71 73 78 81 79 92 88 42 37 27 24 28 29 28 24 24 22 26 36 42 38 33 33 34 33 33 36 46 62 67 76 65 40 48 36 37 31 29 31 47 51 60
94 97 92 71 80 80 86 93 88 60 56 34 24 26 29 27 26 25 25 27 28 28 43 46 45 36 35 36 43 46 44 65 56 81 65 41 51 43 35 32 31 30 42 61 66
96 99 92 85 82 77 98 94 78 65 35 32 26 32 33 28 27 30 30 28 23 25 33 48 50 49 41 36 33 46 53 43 58 80 86 51 35 37 36 40 45 50 53 71 80
95 97 93 78 70 79 99 77 70 50 41 39 40 32 37 31 32 32 31 25 22 23 26 42 53 48 47 39 38 32 35 55 64 50 55 44 44 54 46 45 53 57 57 71 69
96 99 78 71 76 91 87 76 58 42 45 52 50 41 32 34 30 35 30 25 24 24 33 45 47 47 50 47 38 38 39 41 44 60 62 74 48 34 42 40 50 54 61 66 63
93 94 76 75 84 93 77 64 58 51 47 51 52 50 35 35 33 34 30 26 29 35 37 42 60 68 42 38 41 47 43 44 67 44 66 79 50 33 36 40 40 43 57 60 56
95 87 84 67 84 87 71 62 57 47 47 50 51 42 39 38 38 36 32 43 39 31 39 40 52 71 55 44 41 49 35 35 54 64 57 74 56 30 31 36 35 35 47 60 60
94 94 99 83 64 59 67 71 75 48 48 47 50 50 47 46 37 41 49 48 54 43 60 48 50 51 62 44 38 44 36 34 42 75 59 61 42 34 30 30 29 29 38 62 58
98 79 79 93 87 62 59 59 63 60 44 46 49 48 54 50 43 43 57 54 51 53 48 44 46 44 40 37 38 41 39 39 40 46 54 44 45 34 32 31 32 31 33 49 59
92 92 86 89 70 75 60 59 56 49 44 39 50 51 52 49 39 40 49 55 50 53 44 48 48 50 51 49 43 46 39 39 38 35 37 40 40 34 32 31 34 30 33 37 45
90 90 82 73 78 84 76 54 49 41 44 35 44 49 52 48 41 36 44 46 42 50 55 56 64 73 68 54 54 67 46 39 36 38 36 42 41 43 42 40 43 47 43 44 50

GFSSW_sfc_rhum_057.txt.gz
RH
89 89 90 90 90 90 90 90 91 91 90 90 90 89 89 92 91 80 64 40 63 69 54 31 28 30 31 31 24 22 26 29 25 58 60 73 66 67 65 60 88 94 85 92 96
90 88 86 88 90 90 90 90 90 91 92 91 91 91 93 93 95 77 56 71 75 76 32 30 25 22 27 28 24 21 26 22 20 54 73 70 73 65 67 73 91 90 93 94 90
91 90 89 89 90 90 90 89 90 91 92 92 92 92 93 95 62 35 65 76 78 72 36 26 24 24 30 29 25 23 23 20 50 61 68 69 77 70 67 70 91 90 93 92 92
91 90 90 89 90 90 90 89 90 89 90 89 88 90 92 92 27 28 74 81 81 56 29 26 27 30 33 31 24 22 17 30 57 64 64 69 65 62 69 61 71 84 85 86 91
91 90 90 89 90 90 90 89 89 90 91 89 88 90 82 57 42 30 69 67 59 34 27 24 31 32 34 25 22 23 30 33 57 58 63 54 59 59 64 82 84 83 85 85 85
93 92 91 90 90 90 90 89 89 91 92 89 88 91 86 47 24 43 33 35 30 31 27 26 25 26 28 27 30 49 56 59 60 59 66 56 61 56 55 76 88 86 90 84 78
94 93 92 91 90 90 90 89 90 91 91 88 87 82 85 34 33 35 37 27 30 24 21 23 26 28 32 28 31 37 51 50 53 58 61 64 56 60 55 73 89 88 85 78 72
96 94 94 93 91 90 89 89 90 91 92 90 85 88 64 36 49 45 38 29 26 26 20 22 23 29 33 29 30 31 41 58 48 53 46 42 51 50 59 80 94 90 86 76 68
96 96 94 94 93 92 90 90 90 91 91 87 92 86 68 43 38 31 29 25 23 24 26 17 28 34 32 42 36 35 36 46 38 44 43 44 41 38 53 67 89 88 84 80 82
95 96 95 94 93 91 92 90 88 88 87 74 64 62 37 28 29 24 30 23 24 29 29 30 38 42 42 37 43 42 35 32 32 37 42 45 42 40 50 64 76 88 88 89 88
94 96 96 94 91 90 93 81 65 77 77 58 42 33 29 27 30 24 22 22 26 31 42 42 43 46 38 33 38 40 37 36 30 24 36 40 45 37 46 57 72 89 80 88 88
91 96 96 93 88 90 94 83 54 59 67 53 51 44 37 37 45 34 22 22 28 33 42 39 44 36 34 40 37 43 48 42 32 29 40 46 43 38 49 55 58 71 78 68 73
91 92 97 94 88 92 89 72 54 58 70 54 53 52 46 43 48 45 23 25 27 32 37 41 36 38 37 42 38 41 45 46 41 34 40 35 38 35 40 49 47 52 61 52 57
91 92 97 90 87 78 91 71 66 69 72 50 61 51 43 39 31 27 21 22 33 29 38 42 39 35 43 37 36 43 38 42 44 35 34 33 41 43 39 46 42 41 51 48 48
88 95 96 88 77 82 73 68 70 70 53 27 49 33 39 24 24 25 21 23 33 38 37 37 42 41 38 33 34 38 43 42 45 44 46 43 39 34 35 43 45 41 39 38 39
88 92 97 95 95 82 74 75 80 84 61 41 38 41 33 27 26 25 23 22 25 34 41 33 37 36 33 34 37 38 43 46 54 53 57 46 43 42 40 31 34 37 38 35 38
88 93 97 76 76 81 82 80 93 94 36 43 38 32 35 30 28 29 24 28 34 41 45 43 35 36 40 39 37 39 46 59 63 72 62 44 49 42 34 32 30 35 40 43 49
90 91 95 76 85 76 83 94 96 63 63 45 30 32 31 31 30 31 28 30 28 32 45 45 44 35 36 37 41 52 43 63 52 74 65 47 56 41 37 40 38 36 43 50 56
91 98 94 90 81 75 95 91 80 63 47 34 31 34 36 32 31 32 32 31 26 28 32 52 45 47 47 40 36 49 55 45 65 80 87 58 40 37 38 44 50 47 58 65 65
97 98 83 83 80 77 99 80 68 56 50 53 36 35 40 36 34 34 35 29 26 26 28 38 44 48 46 44 42 39 41 55 67 56 59 46 50 48 43 38 49 63 60 77 84
97 98 76 79 89 89 91 80 63 46 48 62 60 49 37 37 36 40 33 29 27 28 31 45 41 47 48 46 40 45 46 46 51 60 63 72 54 35 42 40 43 48 58 76 88
96 96 90 80 99 89 82 68 58 44 46 57 59 59 47 38 39 38 36 29 28 38 34 43 51 56 39 43 44 40 41 46 68 50 70 80 52 32 37 42 47 48 54 73 76
91 88 90 79 96 92 71 65 59 50 53 52 60 58 54 43 39 40 40 34 37 38 44 47 57 64 46 44 51 51 46 48 57 66 66 76 57 32 34 38 40 45 49 68 71
91 95 98 95 69 71 75 76 70 56 56 55 56 58 59 52 41 41 40 52 53 40 67 48 55 50 55 43 41 47 43 41 49 76 59 64 46 34 32 34 33 40 40 54 69
93 72 79 90 91 78 64 67 72 66 58 52 56 56 60 64 48 45 58 53 52 60 53 46 51 47 46 41 38 38 37 43 46 49 54 46 49 39 37 31 34 34 36 54 67
90 87 89 90 70 78 67 65 69 64 55 57 51 52 49 56 48 47 53 55 50 52 50 50 52 49 65 55 47 48 40 41 43 41 47 45 44 41 39 45 44 41 40 50 56
64 84 87 82 74 75 75 63 61 55 54 45 45 44 48 54 52 47 43 47 44 50 54 54 66 69 58 59 58 66 52 42 40 39 39 46 39 46 49 50 54 56 54 58 67

GFSSW_sfc_rhum_060.txt.gz
RH
90 90 89 90 90 90 89 89 90 89 87 89 89 89 89 92 90 85 61 41 68 70 58 36 32 35 35 34 26 25 29 32 26 30 36 74 71 68 70 76 92 89 87 93 97
91 90 88 89 89 90 90 90 89 89 90 91 91 91 92 92 95 77 54 67 73 73 31 28 26 25 30 32 26 24 31 25 21 33 61 73 70 66 72 88 87 94 94 94 92
92 91 91 90 90 90 90 90 89 88 89 92 92 91 92 95 45 28 73 76 75 69 40 27 25 25 31 32 28 24 26 21 26 54 65 72 78 72 70 79 88 90 85 96 92
93 92 91 90 90 90 90 90 89 88 88 89 88 90 91 91 26 28 79 82 78 56 36 27 27 30 35 34 28 26 20 20 53 69 69 70 68 70 74 61 77 82 86 92 94
95 93 91 90 90 90 90 90 90 88 88 88 88 89 84 48 32 27 66 76 55 35 30 28 31 32 34 31 30 26 42 52 63 66 63 56 66 60 94 93 81 87 87 90 92
97 95 93 91 91 91 90 90 90 89 89 88 87 90 85 41 22 42 32 35 35 31 33 28 30 28 31 32 36 59 59 67 64 70 70 56 64 68 89 88 84 83 89 93 91
93 97 94 92 92 92 91 91 90 90 89 88 86 86 86 37 35 40 43 35 31 26 24 26 28 30 35 35 40 48 55 50 60 75 62 65 58 67 86 90 93 86 81 87 84
88 95 97 95 94 93 92 91 90 89 90 91 85 89 63 34 49 47 47 37 31 30 23 23 26 32 36 36 30 46 42 55 54 56 57 48 53 62 83 92 90 93 84 87 79
90 90 96 97 95 94 93 90 90 90 91 88 91 84 60 41 37 29 34 28 25 28 29 18 30 37 34 43 39 37 44 50 36 48 53 51 47 60 83 85 95 92 94 84 79
91 91 95 97 96 95 92 89 87 88 87 79 68 73 39 29 31 30 36 28 25 31 35 34 42 43 45 39 47 45 39 33 37 36 53 58 47 49 71 88 94 95 94 87 82
91 91 94 97 97 92 91 77 57 76 80 58 54 44 27 32 37 29 26 24 29 31 43 44 44 49 43 37 33 40 38 41 36 30 38 36 48 45 59 84 97 97 97 95 88
91 89 91 97 96 90 90 79 56 65 76 56 56 52 39 41 46 36 24 25 30 32 44 42 49 41 37 44 40 44 44 43 38 35 35 44 43 43 52 63 78 90 94 93 92
89 88 91 96 93 90 89 66 57 68 80 52 54 53 47 44 48 43 25 26 29 36 42 44 37 39 38 44 42 43 43 48 43 42 43 44 36 41 40 54 58 71 78 78 84
86 88 92 97 92 80 83 71 70 75 67 46 59 54 51 48 43 38 24 23 34 29 38 42 39 38 44 41 40 45 38 41 45 44 42 37 38 41 41 50 52 57 74 78 71
86 87 92 96 78 86 75 66 72 66 51 30 58 40 48 33 26 27 24 25 31 35 40 35 44 45 45 40 37 41 43 44 46 50 49 49 44 34 44 51 50 50 56 68 62
88 87 89 99 95 80 75 76 82 71 69 37 45 49 43 31 28 28 27 25 29 40 47 35 42 39 36 37 36 41 48 47 54 54 59 49 46 45 44 42 44 52 47 51 57
84 88 94 81 87 81 76 82 98 92 38 43 48 42 41 34 29 29 31 33 38 42 50 45 41 39 39 43 42 44 47 60 61 71 60 48 53 46 41 34 35 43 45 43 46
82 92 92 83 73 72 82 96 97 64 61 46 36 43 40 31 29 32 30 36 33 36 49 48 44 37 37 38 42 54 43 63 50 69 61 50 53 38 38 40 46 39 40 46 45
84 98 98 86 86 72 92 98 79 64 50 42 34 37 37 34 30 35 36 35 29 32 35 51 41 49 50 43 38 54 52 46 66 82 86 58 43 29 42 44 49 49 58 56 52
96 98 86 77 88 95 98 82 68 55 53 55 44 37 40 39 38 36 38 32 28 30 31 38 42 49 50 47 47 44 43 54 65 60 61 50 48 44 34 39 47 52 52 71 74
97 96 80 75 95 99 93 80 64 52 53 64 68 54 39 41 39 43 39 34 29 32 31 44 38 46 53 48 45 50 53 52 53 62 61 72 53 40 33 40 45 48 56 60 84
95 93 82 87 98 92 87 71 61 54 53 55 63 64 51 42 44 42 39 31 31 36 34 44 48 52 43 48 40 43 48 49 69 54 72 80 58 32 32 37 47 44 51 64 80
96 78 91 79 94 92 73 66 66 56 57 54 63 61 62 49 42 43 42 35 36 34 41 46 52 54 43 44 55 57 51 52 60 69 67 77 58 33 37 36 40 45 46 61 77
96 95 96 93 61 66 76 75 72 63 58 59 61 61 61 60 47 45 43 48 48 38 63 49 58 47 46 40 46 61 50 52 53 77 62 65 47 36 34 36 36 36 45 46 69
98 80 84 92 85 75 66 64 72 70 60 62 65 63 63 68 57 48 56 59 53 66 55 46 49 52 46 43 39 40 40 49 48 50 54 48 52 40 39 40 36 36 38 42 50
98 88 89 85 70 75 78 66 66 67 70 68 67 55 60 62 51 50 57 59 53 56 54 53 52 52 64 57 52 58 43 48 47 48 49 49 48 41 46 51 49 47 48 63 72
96 89 92 75 76 76 75 64 66 60 60 56 53 52 59 52 44 54 52 50 52 59 59 55 65 66 60 61 58 66 55 46 44 45 44 54 44 45 56 55 63 65 68 80 88

GFSSW_sfc_rhum_063.txt.gz
RH
91 91 91 91 90 89 89 90 90 88 85 85 88 90 88 92 88 76 45 33 47 72 64 30 24 26 24 21 17 17 19 21 20 20 20 58 52 56 55 66 75 76 72 79 94
92 92 91 91 91 90 90 90 90 89 88 88 90 91 91 91 87 59 45 65 74 74 25 22 19 23 22 23 18 17 21 18 16 16 38 61 49 50 54 75 76 82 88 94 92
95 93 92 92 91 90 90 90 90 89 88 88 90 90 91 89 39 20 76 74 74 67 28 20 19 18 20 21 20 18 20 18 14 16 48 58 53 52 51 56 63 73 89 94 87
93 96 94 92 91 91 91 90 90 89 88 87 87 89 90 73 15 22 79 80 77 48 24 21 18 22 24 23 20 21 17 17 20 50 54 52 52 50 52 45 60 64 79 83 85
90 94 96 93 92 91 91 91 90 89 88 85 86 89 71 41 28 34 76 79 54 35 22 22 23 24 24 23 22 20 28 46 47 53 50 49 46 47 67 75 69 72 81 84 86
90 91 94 96 93 92 92 92 91 91 89 86 86 89 65 35 18 33 34 36 31 24 24 22 22 22 23 24 26 42 47 50 49 52 51 43 47 44 70 79 78 77 79 80 82
90 90 90 96 96 94 93 93 92 92 90 86 87 80 72 35 25 32 40 30 27 24 20 21 21 22 25 26 40 38 40 37 45 50 43 41 40 44 64 77 80 78 81 80 76
87 91 91 91 96 96 95 94 92 91 90 90 88 80 52 32 36 38 39 33 31 25 19 19 21 24 26 25 25 35 30 32 35 42 43 38 40 51 80 79 85 78 74 80 78
86 90 91 92 95 97 96 94 91 89 90 89 82 65 46 36 26 23 30 25 27 28 26 18 23 29 28 33 28 28 30 34 27 38 39 42 31 61 76 75 75 80 74 80 74
86 88 92 93 96 98 95 90 85 87 85 77 67 60 42 24 25 28 33 27 23 27 28 27 33 31 33 28 33 32 29 28 27 29 42 41 37 69 75 71 70 76 77 77 76
83 89 92 90 96 97 86 70 48 68 81 62 46 45 27 30 34 30 25 25 25 27 35 34 32 37 30 31 29 29 30 31 26 29 31 36 35 38 75 72 76 79 80 77 72
82 88 91 90 93 94 83 75 49 64 75 58 57 52 42 37 43 32 23 23 28 27 35 34 40 33 30 32 33 34 34 32 29 28 30 31 30 34 65 66 65 68 73 70 68
80 84 88 90 96 92 83 67 58 63 85 61 53 51 44 40 43 36 24 26 26 32 37 39 30 34 34 37 36 34 36 36 32 35 34 32 26 35 37 53 60 66 63 64 68
83 82 87 93 98 79 80 64 67 72 77 44 49 48 49 43 38 33 24 22 26 30 35 34 30 34 39 37 35 40 32 32 35 37 33 28 29 28 31 40 51 54 64 64 66
82 81 85 95 89 82 69 73 72 70 51 29 59 38 48 32 27 38 24 23 32 30 33 30 37 38 39 36 34 34 36 37 37 38 36 36 31 27 34 32 34 42 50 60 61
81 82 86 94 98 81 79 74 80 74 72 34 49 54 53 41 26 26 26 24 27 36 35 28 32 33 32 32 33 36 39 38 42 42 45 38 34 28 26 31 32 31 39 47 55
82 85 86 81 88 81 77 76 94 90 40 36 54 47 44 36 29 30 31 33 32 42 46 34 33 31 32 32 33 33 38 44 52 52 47 40 41 33 28 27 28 31 37 44 47
83 88 87 83 78 79 86 96 95 64 57 41 39 48 40 30 29 31 34 32 30 31 39 37 36 32 33 30 34 37 37 55 42 47 40 41 42 26 28 27 33 39 35 37 43
84 94 96 93 85 87 93 98 71 63 49 43 34 50 46 32 31 34 39 32 29 32 33 46 36 34 39 34 30 42 42 37 57 66 65 41 33 22 28 28 34 38 39 40 44
90 92 88 88 85 97 98 77 68 52 52 52 52 41 53 38 35 36 39 32 30 31 33 40 39 40 41 37 39 35 37 48 52 54 51 38 38 27 27 26 34 32 40 43 50
93 96 73 81 91 99 97 71 62 54 51 57 66 59 40 41 39 40 39 32 25 32 30 37 36 38 42 42 39 43 46 46 40 47 48 51 36 35 28 25 34 32 39 43 47
95 96 79 75 96 88 85 65 59 54 52 52 57 62 54 42 45 43 39 35 32 31 31 39 47 51 37 36 34 37 42 43 58 49 57 58 44 27 30 30 32 35 36 41 45
98 95 88 72 93 81 71 67 54 56 54 55 58 57 58 51 43 45 43 38 34 36 38 44 47 45 36 37 43 42 40 43 50 57 55 68 44 28 28 28 30 31 32 36 50
98 99 99 93 55 64 74 70 72 54 56 55 55 54 57 58 50 47 45 43 45 36 62 44 49 44 39 33 40 53 47 44 45 61 53 50 37 30 27 28 27 30 31 32 37
98 98 84 96 84 64 64 60 62 64 56 57 62 57 59 61 54 48 46 55 50 67 50 46 46 46 38 32 39 40 40 47 44 42 50 40 40 31 30 28 29 31 32 33 35
99 98 85 79 70 70 70 68 62 60 62 61 60 61 50 62 51 57 48 56 53 52 54 49 50 52 48 47 39 39 36 42 44 40 38 39 40 33 31 34 36 43 43 58 67
95 91 77 69 78 75 72 63 65 59 59 54 56 63 64 50 52 48 52 52 49 51 59 55 63 61 53 49 48 66 52 42 40 39 40 47 39 37 38 39 47 57 64 68 73

GFSSW_sfc_rhum_069.txt.gz
RH
90 90 94 94 93 92 91 90 90 90 88 88 87 85 85 88 82 25 24 28 24 67 62 14 12 12 10 9 7 8 11 12 12 10 15 13 16 23 30 28 32 35 36 48 76
84 84 86 91 95 94 92 91 91 90 90 89 88 86 86 87 41 21 39 62 61 68 18 13 12 12 12 10 9 10 12 12 9 9 10 11 15 20 24 24 25 36 46 61 72
76 78 80 84 91 95 94 92 92 91 90 90 89 87 86 69 28 14 69 65 66 54 13 11 11 10 12 11 11 10 11 9 9 10 11 11 15 20 21 22 30 33 51 59 70
77 77 78 83 89 91 95 95 93 92 91 91 89 88 85 39 18 17 71 73 71 20 15 12 11 12 13 12 10 13 11 11 11 11 17 15 22 23 22 27 29 37 47 54 74
83 85 80 80 87 89 92 96 94 93 93 91 90 89 50 23 16 24 75 73 28 20 16 12 12 11 13 11 12 13 14 15 16 18 18 20 21 24 22 29 34 38 48 54 66
78 84 86 84 87 89 90 93 96 95 94 92 89 92 37 30 10 11 17 26 18 18 14 10 11 12 14 14 14 18 18 17 17 17 18 21 19 22 31 30 38 38 48 51 72
76 78 83 85 84 88 90 91 95 96 95 91 86 53 38 29 11 11 16 16 13 12 12 11 12 14 14 16 13 15 18 25 32 17 17 17 23 24 28 31 38 40 44 41 55
76 78 79 84 86 89 92 93 95 96 95 88 85 44 42 14 12 12 12 17 14 12 12 12 14 16 16 14 14 15 16 18 43 24 18 18 49 63 27 34 34 39 38 37 44
74 76 77 80 86 90 91 93 96 95 86 82 60 46 30 29 18 12 10 15 16 15 16 14 16 17 15 17 16 14 16 22 20 15 15 19 24 28 24 30 34 35 39 34 40
77 74 78 77 85 90 92 94 77 85 68 44 37 43 28 16 12 11 9 11 14 18 20 20 17 19 18 16 21 18 16 15 16 18 17 18 20 20 22 27 32 30 32 34 38
77 76 76 79 82 90 78 44 44 54 44 28 22 21 15 12 17 15 10 13 14 18 24 18 20 22 16 16 14 14 15 16 15 14 17 20 19 16 22 28 35 38 36 39 39
81 76 76 79 83 90 73 45 35 47 45 25 27 24 21 20 22 14 13 17 19 23 19 19 24 17 15 13 14 16 17 18 16 14 17 17 15 13 21 28 27 31 40 39 39
84 80 76 80 84 78 56 41 36 44 48 23 16 20 19 18 24 16 14 15 17 20 18 21 18 15 18 18 20 19 21 21 19 16 15 15 16 15 17 24 23 24 28 32 42
84 80 78 81 82 42 49 36 39 48 47 17 28 22 17 16 23 13 12 13 15 19 16 17 14 18 19 20 18 22 16 18 19 20 39 18 25 18 14 18 24 23 26 29 34
84 82 80 84 68 57 42 43 48 57 27 13 20 17 16 20 8 14 11 12 17 16 16 18 16 20 21 19 16 20 19 19 20 22 21 17 15 18 11 13 16 22 24 24 27
78 83 81 64 60 59 54 58 57 48 34 17 24 28 29 22 12 10 14 12 12 15 14 15 13 15 16 16 18 17 20 22 22 24 31 21 19 20 16 12 12 13 18 22 22
79 82 75 47 69 41 64 82 54 38 13 14 27 29 30 26 21 14 17 19 20 25 24 18 17 15 17 20 19 21 26 35 40 37 35 19 20 16 13 13 13 14 16 17 20
81 85 66 47 46 64 88 96 47 20 19 20 24 30 34 21 20 19 17 21 17 16 19 23 25 16 17 19 22 22 23 37 45 42 31 18 18 14 11 10 11 13 15 18 19
82 62 54 56 54 73 98 93 37 20 12 14 23 37 37 24 20 20 20 18 16 15 20 21 19 13 14 16 16 22 26 19 30 29 39 21 15 13 10 11 13 11 13 16 20
88 63 51 55 61 85 99 83 37 15 10 18 22 28 34 29 24 22 20 14 15 14 14 17 24 14 15 16 17 21 19 30 28 40 45 21 19 16 14 14 13 12 13 16 22
93 92 48 55 76 99 96 64 44 18 15 21 27 21 27 31 23 28 21 15 13 15 15 15 21 21 20 23 20 22 27 24 21 28 40 36 21 15 14 12 13 13 13 13 16
95 98 56 70 98 91 87 52 42 29 19 23 33 30 24 29 30 28 35 17 14 14 19 18 22 26 24 16 14 17 22 23 36 31 30 35 28 13 14 13 14 13 14 13 15
98 89 63 65 90 91 56 50 39 32 26 27 33 30 31 40 36 27 28 22 16 16 21 20 24 34 25 21 21 23 20 20 23 25 31 60 32 13 13 15 14 14 13 14 16
98 99 96 95 47 54 51 46 43 34 34 23 29 27 32 41 37 34 31 26 29 18 42 32 22 27 33 24 20 26 19 18 23 43 34 28 21 14 13 14 13 14 14 13 15
99 80 67 95 88 53 45 35 38 36 33 34 32 32 33 39 37 43 34 31 33 37 28 25 28 22 18 16 14 15 18 17 20 22 30 23 18 13 13 13 13 15 15 16 14
99 57 52 48 66 59 52 44 34 28 26 33 38 29 30 33 36 42 40 36 29 26 29 24 32 26 24 18 16 17 14 15 14 14 14 15 16 12 12 12 13 15 16 17 22
91 43 48 61 62 64 55 45 34 26 26 23 26 31 34 30 38 40 39 38 35 37 33 30 36 32 39 21 22 38 22 17 16 15 17 23 18 14 13 13 14 14 18 23 32

GFSSW_sfc_rhum_072.txt.gz
RH
82 83 85 88 92 94 95 94 92 91 90 90 90 89 88 87 80 28 24 28 31 68 58 16 14 13 11 12 9 7 12 14 17 14 13 11 12 43 35 31 25 30 65 84 89
73 74 76 81 88 91 93 94 94 93 92 92 91 90 89 88 49 27 40 66 63 64 17 15 13 11 13 12 9 10 13 14 13 9 10 10 10 39 43 50 67 68 58 73 82
73 74 74 74 83 90 90 92 94 94 93 93 92 91 90 77 34 20 68 64 61 50 16 13 10 11 12 11 11 11 13 10 9 9 10 12 12 20 25 48 61 54 59 62 82
74 75 77 75 75 86 90 91 91 94 94 94 93 92 88 51 25 21 69 66 66 21 15 14 12 14 12 13 10 12 9 10 11 11 12 12 13 20 18 35 37 42 52 64 82
73 76 77 77 77 82 88 90 90 91 94 94 93 92 60 32 22 28 72 67 26 16 17 16 13 12 12 11 10 12 12 12 11 12 13 12 15 16 18 28 34 40 44 58 74
74 69 74 80 82 83 84 89 91 91 93 94 93 94 54 50 14 10 15 28 19 19 18 14 11 10 13 14 14 12 16 14 22 23 20 18 16 25 34 28 34 38 45 62 76
75 74 76 74 80 83 83 89 91 92 94 94 92 64 55 42 18 12 12 15 18 16 16 11 10 13 14 17 13 13 16 17 35 26 22 22 19 50 57 48 36 39 45 56 73
76 74 74 76 77 83 84 88 90 90 94 95 88 61 47 18 14 14 13 13 14 12 12 11 11 14 17 15 15 16 15 21 28 31 27 25 29 62 68 59 52 40 50 50 60
81 78 73 75 79 83 84 88 89 89 91 90 69 58 38 23 21 14 11 13 16 15 13 11 15 19 17 20 21 15 20 18 24 26 21 18 21 44 58 56 46 40 50 41 58
83 80 77 75 78 83 86 87 73 81 72 52 44 40 28 15 12 13 11 10 16 18 17 18 19 21 20 21 28 24 19 20 17 18 18 18 18 26 36 56 30 43 44 44 44
83 83 80 77 77 82 73 52 40 67 61 41 29 28 14 14 11 13 10 11 14 18 25 21 24 25 20 19 17 16 16 16 22 17 17 16 20 23 20 22 30 32 32 35 38
80 83 83 79 80 83 71 63 29 42 50 26 30 29 21 17 23 16 10 14 18 22 21 23 27 18 16 15 14 14 17 17 16 15 16 16 21 16 18 26 28 33 33 38 38
80 83 83 80 81 71 58 52 33 34 53 27 18 16 16 17 24 19 12 12 16 21 20 26 20 17 17 18 18 17 20 20 21 16 17 20 21 16 17 21 23 29 35 41 39
80 83 83 80 76 52 46 34 34 44 61 18 14 16 13 14 19 16 14 15 16 18 18 20 16 17 18 20 17 23 16 17 17 20 28 26 34 20 16 19 24 27 39 36 36
81 82 84 83 58 57 54 59 52 56 42 9 11 13 13 16 12 14 14 15 20 16 17 21 18 18 21 19 16 20 16 20 20 23 23 30 34 19 16 19 22 23 31 36 39
82 82 83 66 62 51 49 57 77 67 37 14 20 23 21 17 15 10 14 15 14 16 15 16 12 13 15 16 16 15 19 21 22 26 37 23 23 24 25 16 15 19 23 29 40
83 82 78 45 55 44 74 79 78 55 14 12 21 23 23 23 20 16 16 21 23 25 26 17 16 12 14 18 16 19 26 40 50 47 45 30 25 20 26 17 13 15 21 25 28
85 84 71 46 44 53 88 99 80 25 25 13 11 23 28 23 23 20 17 19 20 17 20 24 26 15 15 18 21 22 25 46 79 61 41 31 24 12 12 11 12 12 15 20 23
85 87 75 56 54 62 97 98 64 30 14 17 17 24 31 25 22 25 22 20 19 18 24 25 22 13 15 16 17 24 28 21 37 41 55 30 20 13 12 12 11 12 15 20 23
97 94 83 59 61 82 97 80 49 33 20 18 20 22 32 30 26 24 23 19 19 16 17 21 28 15 14 15 16 19 18 32 31 53 50 24 23 34 19 14 14 13 17 21 25
98 99 76 61 72 96 97 72 49 29 30 26 19 20 17 25 27 24 23 21 18 18 18 19 24 22 14 18 20 21 24 29 24 30 48 54 32 23 20 14 16 15 16 19 23
97 100 72 59 98 91 90 60 45 28 25 31 32 28 21 20 32 26 27 23 25 18 21 19 25 31 20 15 15 18 23 26 41 35 37 58 39 18 19 19 17 17 15 18 18
98 98 77 63 94 90 65 58 42 37 28 28 31 30 27 34 32 29 29 30 26 27 23 22 27 36 29 20 20 23 19 21 25 29 38 61 39 17 14 15 16 20 17 16 20
99 100 97 93 57 59 66 57 52 40 33 26 30 29 52 36 35 38 31 31 32 32 66 46 27 29 38 30 25 26 19 19 26 48 40 36 26 20 16 17 16 19 23 19 20
99 91 71 96 94 63 54 44 46 45 34 31 32 33 44 70 32 36 35 32 28 39 38 43 38 27 22 18 18 20 22 21 22 23 34 33 24 18 15 16 18 17 19 23 23
100 70 54 51 63 79 67 56 44 34 31 35 38 32 38 68 66 47 31 38 41 40 39 34 45 31 33 20 20 21 19 19 18 18 17 19 20 14 12 12 15 14 14 17 19
94 54 56 63 73 78 69 55 46 33 29 24 29 32 45 61 62 73 48 39 37 44 49 42 43 40 47 27 23 38 25 18 16 16 17 23 19 15 16 14 16 19 16 18 23

GFSSW_sfc_rhum_075.txt.gz
RH
78 76 77 80 85 90 92 92 93 94 94 93 93 92 92 91 89 48 38 38 47 74 62 29 20 18 19 21 19 21 20 21 22 21 16 23 21 46 44 38 58 76 80 77 88
72 72 74 76 81 85 90 91 91 91 94 95 94 93 93 92 73 49 45 70 70 70 24 24 23 21 24 21 21 21 25 20 15 17 18 16 18 41 46 51 56 68 69 80 89
71 71 72 75 80 81 84 90 91 90 90 94 95 94 95 87 56 28 63 71 70 60 24 21 20 17 20 19 18 20 21 16 13 16 17 17 16 31 42 57 58 54 74 87 91
75 73 74 73 76 82 84 85 88 89 89 91 94 94 94 80 35 39 71 71 64 28 22 21 21 22 22 21 15 19 15 13 14 26 26 25 17 22 65 66 57 62 80 88 90
78 74 72 72 77 82 84 84 85 89 90 91 93 94 87 66 46 34 73 67 34 21 22 21 22 23 20 17 16 20 18 16 25 23 24 23 21 26 67 61 56 63 74 89 95
81 78 74 72 73 78 81 84 84 87 89 90 92 95 89 86 28 23 40 42 29 25 23 22 23 18 17 20 22 17 18 20 30 25 26 27 30 35 46 52 73 81 80 93 92
84 81 75 73 75 75 80 83 83 84 88 87 90 83 83 73 31 26 22 23 31 27 27 22 20 20 20 25 20 20 24 22 36 33 30 31 33 45 51 48 68 69 81 90 87
81 82 80 78 75 75 79 83 83 82 85 88 91 87 82 34 34 37 27 27 17 24 22 20 18 19 27 23 22 24 24 30 22 33 30 33 45 46 58 52 77 79 77 86 81
81 82 84 82 79 77 78 82 81 80 84 86 92 92 74 33 34 25 22 20 18 18 21 14 18 30 28 35 36 31 34 27 21 30 34 36 41 45 59 56 65 70 70 88 96
81 83 85 86 82 82 81 80 73 78 74 66 66 75 50 29 19 19 21 18 19 25 25 25 29 35 36 38 45 36 32 24 27 33 36 36 36 50 62 60 69 72 69 86 91
81 82 83 85 83 83 82 69 62 89 78 73 60 45 24 22 20 17 18 18 17 24 36 31 39 40 35 29 25 26 25 23 22 23 26 28 27 39 60 69 79 76 68 80 82
82 82 83 83 84 83 84 79 61 60 75 50 54 49 35 32 34 23 16 21 23 25 31 35 37 30 25 23 22 23 22 25 20 23 26 23 25 28 36 62 56 66 59 67 73
82 82 83 85 86 86 77 68 49 50 80 51 39 32 30 26 36 30 21 21 22 25 28 36 32 24 24 24 24 22 25 26 27 21 26 32 34 28 29 36 38 42 44 54 63
84 83 82 85 90 74 76 62 58 66 98 48 28 27 22 17 28 20 20 20 21 22 25 28 24 25 25 25 23 27 22 22 26 30 39 32 51 34 25 34 34 41 48 48 56
82 85 83 84 95 81 55 52 51 74 71 18 16 15 16 20 20 20 18 23 22 20 24 26 28 27 27 24 22 26 25 30 32 35 38 43 48 42 25 31 35 47 51 49 50
83 85 84 82 94 75 59 72 87 86 88 24 24 27 25 21 20 17 20 20 25 22 21 23 18 21 22 19 21 21 26 28 34 38 56 36 44 40 29 23 27 40 44 49 46
84 86 86 67 78 60 78 92 97 97 18 14 29 29 31 26 23 21 24 27 35 38 36 26 23 18 17 22 23 24 34 60 74 69 68 36 42 38 31 28 25 29 45 42 42
85 88 85 73 68 57 88 97 95 41 41 23 22 26 35 29 26 24 24 28 29 30 33 36 37 22 18 20 27 29 34 70 75 82 64 44 44 28 26 26 18 18 33 40 43
86 92 93 77 72 74 96 98 73 51 29 26 23 24 35 30 33 29 30 29 24 26 33 33 30 18 16 19 22 35 39 32 60 62 73 56 35 24 19 17 17 19 21 37 45
97 96 88 71 78 86 99 82 61 44 31 32 44 37 35 37 39 40 38 29 26 22 23 33 40 20 18 21 22 24 27 44 46 74 77 47 45 45 27 26 20 18 27 27 27
99 99 77 68 83 98 95 76 61 44 35 39 37 40 42 48 46 48 36 29 25 21 22 23 32 32 22 25 26 31 30 34 40 54 64 66 54 34 30 25 18 22 24 27 30
97 100 86 75 100 95 85 61 58 50 39 41 39 38 48 45 46 58 50 34 26 30 24 27 40 45 33 22 18 21 31 35 67 53 57 68 56 23 21 22 21 20 20 25 33
99 98 83 77 97 95 69 64 59 60 53 45 44 34 37 39 56 71 56 41 32 32 36 36 47 60 42 29 22 25 27 28 37 48 54 78 63 24 25 24 21 22 20 23 25
100 100 99 97 78 76 84 73 72 55 56 47 43 39 43 46 49 86 80 51 41 36 54 44 51 52 54 39 32 34 27 26 34 60 53 54 44 33 29 26 21 22 26 28 28
100 98 83 98 97 93 69 65 69 70 51 45 50 50 45 50 63 75 72 72 51 53 44 44 52 43 36 26 25 30 31 29 29 32 50 42 38 34 26 23 22 23 26 25 24
100 97 78 69 74 95 84 83 68 60 48 51 55 46 43 48 58 69 71 84 80 44 44 43 53 47 46 36 26 28 28 27 26 27 26 29 36 28 23 19 20 19 28 28 26
95 73 74 79 84 87 82 70 69 56 48 40 42 46 47 44 59 68 81 85 82 74 56 45 55 56 56 41 38 52 36 27 27 25 27 32 28 23 22 20 22 22 20 26 37

GFSSW_sfc_rhum_078.txt.gz
RH
75 74 74 77 81 82 83 88 90 90 89 90 92 94 93 93 91 62 47 40 56 74 67 28 27 25 24 27 25 23 33 35 28 20 20 26 23 46 46 63 64 68 67 69 96
69 69 69 72 82 84 83 84 85 87 88 89 91 92 93 94 86 64 52 68 76 77 27 27 30 27 31 29 25 26 31 27 18 17 19 21 23 42 51 62 66 68 67 76 84
68 68 68 70 77 81 83 85 85 82 85 89 90 92 94 96 66 35 71 74 78 67 24 25 25 27 29 27 24 26 27 18 17 19 22 28 28 42 49 64 60 58 76 90 90
77 75 76 74 73 76 82 84 84 79 80 85 88 91 93 96 16 38 66 70 68 33 23 26 26 32 31 26 24 24 18 17 17 26 29 31 32 65 70 64 62 68 84 93 88
84 83 80 76 74 76 78 81 82 83 81 80 85 86 93 80 62 35 77 68 42 24 21 23 27 30 32 24 21 22 21 19 21 25 26 27 35 69 75 75 65 74 75 94 93
84 84 84 81 77 76 77 77 80 83 83 79 82 86 95 88 29 30 45 46 34 24 24 25 24 25 27 24 30 24 24 23 26 27 30 31 38 50 81 74 66 59 72 96 84
81 84 83 82 82 79 77 76 78 79 81 78 79 80 79 74 42 34 28 30 38 30 28 25 25 31 27 26 25 25 28 25 25 32 34 32 32 54 72 62 66 70 84 98 81
79 81 85 84 86 82 81 80 78 78 78 80 81 80 84 44 48 47 47 41 32 28 28 27 26 28 28 25 27 30 32 35 24 32 34 28 38 58 66 66 68 80 87 79 76
83 83 86 86 86 85 83 82 80 75 78 82 87 91 86 46 49 39 32 29 26 25 26 22 29 29 30 40 43 42 42 36 30 23 34 34 39 58 70 70 81 87 94 95 95
83 83 84 87 84 84 85 82 74 81 78 68 72 83 62 28 26 23 29 26 26 27 26 32 31 35 41 44 51 45 42 32 33 28 38 44 41 64 65 63 74 88 96 95 88
82 82 84 85 85 84 84 67 64 79 74 81 72 62 33 25 26 26 24 27 26 28 39 36 41 41 40 37 32 34 34 35 29 22 38 41 43 37 68 73 77 90 95 95 86
80 84 84 84 84 85 90 83 67 66 92 55 53 58 51 42 50 37 24 25 28 30 37 39 43 33 31 32 32 32 35 33 25 21 30 30 28 32 68 69 71 79 88 90 93
81 84 83 84 84 82 82 68 53 62 92 60 46 46 48 40 58 49 31 26 26 30 30 38 37 29 31 33 34 33 34 32 26 26 29 35 34 32 47 58 64 68 70 75 85
80 84 85 82 81 83 83 56 52 58 97 56 46 37 35 31 42 26 22 26 27 27 26 30 26 31 34 33 31 37 26 27 29 37 44 36 49 41 36 48 60 61 64 74 77
82 85 87 80 87 89 63 59 59 86 34 19 29 25 28 22 23 27 21 30 30 25 27 32 33 33 33 32 29 34 27 28 31 37 44 44 50 40 37 47 56 64 62 68 73
84 86 86 86 97 83 70 65 87 92 79 36 24 29 31 25 24 23 28 27 28 28 25 24 21 28 27 26 26 24 28 35 40 43 55 42 47 46 43 32 44 51 55 62 68
86 87 89 75 89 76 64 88 94 92 34 21 33 28 32 31 26 26 29 31 40 44 38 24 22 23 24 28 26 27 38 59 63 70 64 44 50 39 34 29 33 48 52 60 61
86 88 90 84 89 80 86 96 98 52 49 31 28 23 28 28 29 28 30 32 26 38 39 39 48 27 22 26 28 33 36 65 63 76 70 50 52 37 27 27 26 33 45 50 57
86 98 99 96 90 84 96 97 69 49 33 34 34 31 36 39 51 43 36 32 27 27 42 46 39 24 20 20 21 32 45 37 59 70 76 62 47 29 24 24 25 33 48 53 51
97 96 82 87 80 93 99 78 62 44 39 43 52 42 48 43 50 59 67 34 28 28 30 39 45 24 23 20 25 28 30 52 63 77 76 60 56 44 33 25 24 32 49 52 46
99 99 77 76 87 98 91 74 60 46 43 48 49 46 41 43 42 60 62 51 46 28 30 31 44 40 26 26 28 35 38 43 43 64 74 68 54 42 34 30 24 25 33 43 48
98 100 84 77 100 98 87 61 55 47 47 49 48 46 48 42 49 48 50 45 57 61 35 31 41 46 36 27 27 23 28 34 65 57 63 69 46 31 33 28 25 24 26 30 35
99 97 90 79 97 96 88 68 60 58 54 56 58 48 49 46 54 61 63 60 59 71 51 37 42 60 38 31 32 34 30 29 42 58 58 81 62 34 31 30 23 24 25 28 35
100 100 99 99 90 75 85 91 73 54 58 54 60 54 61 60 48 64 72 60 72 73 73 58 54 37 44 42 40 45 30 26 32 56 49 61 45 36 28 33 28 26 27 27 28
100 98 87 98 97 82 70 71 76 71 57 58 67 68 69 74 64 56 58 71 67 73 66 53 63 56 37 42 39 40 37 29 32 40 43 38 42 36 35 33 28 24 29 28 27
100 98 90 88 74 95 75 81 75 70 62 61 67 56 56 66 59 58 55 73 84 84 80 63 62 64 69 51 44 47 36 32 31 33 35 39 42 29 28 33 25 25 27 28 27
96 85 83 79 88 91 84 72 80 64 58 54 53 57 63 56 46 51 66 68 76 92 95 89 66 71 76 51 48 73 52 36 36 32 34 42 34 27 27 26 24 23 30 30 30

GFSSW_sfc_rhum_081.txt.gz
RH
74 72 71 72 76 79 79 81 84 80 78 79 84 89 91 92 90 72 54 41 65 79 61 29 29 26 26 30 29 28 35 41 34 28 19 18 26 49 58 71 67 68 70 69 89
70 68 67 69 78 80 82 82 84 82 80 80 84 89 91 90 90 80 55 69 78 74 27 30 33 28 33 34 29 30 37 32 24 19 20 19 26 46 57 68 65 69 74 69 92
76 74 72 70 76 76 78 83 83 78 80 82 83 87 88 87 78 25 65 73 83 68 24 25 25 28 36 33 30 31 32 26 19 20 20 23 35 47 54 72 61 62 67 92 96
75 76 77 76 76 77 79 82 81 75 76 78 78 83 85 93 10 35 73 76 76 42 24 24 28 32 36 31 26 29 22 22 19 20 32 35 44 68 66 61 60 58 74 88 97
83 80 76 74 77 81 80 80 79 78 76 75 77 81 82 86 65 39 76 66 47 25 19 21 26 30 35 32 27 23 21 23 23 24 31 30 39 61 76 78 77 81 90 94 93
82 84 85 80 79 84 84 82 81 79 78 74 75 80 76 86 31 34 38 55 34 26 25 24 22 26 31 33 30 28 27 27 26 26 31 46 63 62 60 83 66 66 95 97 97
83 83 84 81 84 84 85 84 83 82 80 74 73 75 79 66 45 46 43 33 39 34 30 28 27 28 36 34 31 30 29 29 27 29 31 31 50 53 62 81 73 72 94 92 93
81 84 86 86 87 85 83 82 82 82 80 77 76 75 83 47 55 55 54 47 40 34 33 33 30 32 33 32 31 33 39 38 28 28 29 31 34 39 81 76 74 86 96 91 91
84 85 85 86 86 85 84 83 81 78 78 80 88 82 82 50 52 44 43 34 30 32 35 27 32 37 40 42 44 46 45 41 33 28 31 40 35 40 74 73 78 96 97 92 95
81 82 84 86 86 86 85 80 76 83 78 75 74 81 57 36 28 28 40 31 31 29 33 32 38 41 45 45 56 48 48 40 40 35 40 44 42 65 79 83 90 98 99 97 93
79 81 84 86 85 85 83 77 73 72 76 81 74 72 53 36 37 35 30 32 29 34 38 39 45 46 40 40 37 39 43 44 34 28 35 36 38 46 75 80 86 96 99 98 96
80 82 83 85 85 82 87 80 65 67 93 68 66 63 55 50 59 40 35 34 36 38 39 43 46 38 33 36 38 40 43 41 34 28 34 37 35 33 72 73 70 88 97 95 96
80 81 84 85 86 79 84 73 54 58 95 66 58 54 48 44 55 51 42 32 32 38 38 39 39 33 34 37 39 41 44 41 39 30 30 36 36 37 55 68 71 71 84 87 91
81 83 86 88 69 87 79 62 55 65 96 58 55 43 38 40 58 36 31 28 31 34 32 36 26 36 40 36 37 44 36 35 35 40 47 39 49 40 44 66 73 65 81 86 88
81 85 86 87 92 87 63 63 58 88 27 20 34 30 35 31 21 30 26 30 35 30 30 35 35 31 38 38 34 39 35 37 38 39 48 46 52 44 48 60 62 70 72 77 80
82 85 85 86 96 86 76 69 89 82 65 33 30 38 38 31 26 29 34 32 26 29 30 27 28 29 29 27 33 32 40 42 49 48 58 45 48 46 47 39 46 56 63 68 77
82 87 88 79 93 83 78 92 94 93 38 33 38 29 28 33 31 27 37 37 46 42 45 32 26 26 30 35 34 37 43 62 63 66 60 43 56 42 36 35 41 52 59 64 69
84 87 89 85 92 86 92 96 98 58 56 38 35 31 30 45 48 52 35 43 32 43 45 44 45 26 24 29 34 38 41 68 61 70 61 57 65 46 32 30 32 41 47 58 68
84 98 97 96 92 91 96 96 58 58 42 48 40 45 46 40 48 55 63 46 30 30 45 49 41 28 22 24 23 37 48 33 55 79 81 64 53 36 26 29 37 41 56 59 65
97 92 76 93 91 94 93 67 63 49 45 45 59 48 53 44 46 63 65 54 51 53 31 45 51 32 26 24 25 28 35 54 68 74 79 67 63 53 36 27 28 46 56 57 59
99 99 79 91 93 98 93 78 63 42 44 55 58 54 48 45 40 61 67 50 61 60 66 43 44 46 32 33 31 41 43 46 47 67 67 75 60 44 39 30 26 32 54 57 59
95 99 85 85 99 93 87 68 57 48 52 52 56 56 61 55 53 54 61 47 62 68 76 68 54 49 38 30 27 25 31 42 59 61 69 69 49 33 36 37 35 26 33 53 54
97 96 92 82 93 92 77 66 56 54 55 60 67 55 53 55 65 55 54 57 60 71 81 78 78 66 48 38 30 39 36 36 49 62 69 73 61 36 37 34 28 25 26 34 52
100 100 99 99 87 72 77 86 90 59 57 55 62 61 68 73 62 70 66 55 68 65 84 84 93 89 62 44 38 46 37 40 41 64 59 52 47 38 35 35 31 30 28 30 35
100 99 89 98 98 86 72 66 90 85 60 62 67 64 63 72 68 65 54 53 58 81 73 87 99 68 53 35 41 45 46 45 48 43 47 45 42 34 33 32 31 32 32 29 29
100 99 97 92 75 97 82 77 67 71 62 68 71 67 70 76 69 58 51 51 69 81 79 83 98 77 67 42 34 40 50 48 51 47 34 36 35 32 30 34 36 29 29 30 30
96 91 90 80 85 95 91 76 74 62 63 57 57 62 68 64 59 58 52 55 70 77 98 99 99 98 80 63 58 77 59 44 43 48 42 47 37 32 35 35 35 32 29 29 32

GFSSW_sfc_rhum_084.txt.gz
RH
72 71 72 74 77 77 76 79 82 78 77 78 78 78 81 86 86 84 49 35 64 77 52 37 30 25 26 31 30 32 38 45 38 33 24 19 27 48 63 72 73 72 71 70 83
77 76 74 74 80 80 80 79 81 81 78 77 78 82 85 85 90 91 58 71 79 76 31 30 34 28 35 35 32 32 41 35 28 25 22 21 25 26 66 77 69 69 76 72 94
74 73 73 74 77 82 83 81 80 78 78 79 80 81 86 81 66 17 70 76 79 72 29 28 29 29 35 37 32 33 34 30 24 23 24 26 30 47 59 68 64 64 74 80 93
75 75 75 75 75 75 84 86 84 78 76 77 74 78 85 88 9 28 72 77 80 52 26 28 32 33 36 33 29 32 26 25 21 23 30 37 39 62 58 52 70 65 74 92 96
78 78 76 76 76 77 83 86 85 80 78 75 74 76 87 75 55 43 71 65 49 26 21 24 31 32 34 33 29 28 24 24 23 27 29 33 35 53 72 72 87 92 92 89 88
83 82 79 78 77 78 81 84 83 82 79 76 75 78 93 50 27 39 42 58 39 27 24 22 22 26 32 33 30 28 28 29 30 28 30 36 51 72 54 83 71 81 98 87 87
84 86 85 80 79 79 81 83 82 81 78 74 74 75 86 38 41 47 46 38 39 38 30 28 29 34 37 39 32 32 37 32 30 32 30 38 39 70 60 86 80 75 94 90 98
74 81 86 87 86 86 84 83 82 81 79 76 74 77 90 45 57 59 60 50 44 36 37 36 33 33 35 35 35 39 38 42 27 32 33 32 40 34 82 90 90 82 98 96 97
74 81 84 85 87 87 85 82 80 79 78 77 84 88 74 46 50 42 47 42 41 37 38 27 34 40 42 45 47 46 48 43 35 32 37 41 39 46 86 81 76 83 99 94 90
75 78 82 84 85 88 86 80 78 81 77 76 68 77 37 19 34 33 50 39 35 37 36 44 47 49 53 50 52 50 50 44 44 38 37 44 43 33 79 80 82 91 98 97 95
73 74 81 83 83 88 85 75 80 78 76 81 72 73 58 48 41 43 37 38 36 37 42 41 47 52 46 45 39 40 44 47 40 33 35 36 39 33 68 88 90 95 98 97 98
74 74 80 82 83 85 83 79 70 70 92 64 70 69 55 50 62 40 41 40 39 40 39 50 51 35 38 40 40 43 46 45 37 32 35 34 36 33 54 76 81 92 95 95 98
75 74 79 85 86 84 89 75 60 58 95 73 66 67 54 55 54 42 40 37 38 42 42 39 40 34 38 44 43 45 45 46 37 39 37 41 41 35 44 75 73 81 89 92 92
79 80 86 88 74 90 79 68 66 68 94 61 60 55 44 50 55 34 31 29 36 41 37 41 29 36 44 41 38 47 40 38 41 46 55 41 56 43 34 41 75 76 93 92 93
79 80 86 86 96 96 67 74 68 88 44 24 43 35 40 41 28 39 33 37 35 36 34 41 36 36 41 42 36 38 38 43 44 49 60 51 58 42 46 44 43 70 78 85 87
78 81 86 86 95 90 86 80 92 89 70 34 37 42 46 39 35 31 36 33 32 35 38 34 30 31 31 32 36 36 44 44 53 54 68 49 48 46 44 42 43 49 67 80 85
81 83 86 82 89 86 86 94 96 92 41 42 41 34 33 43 39 40 42 39 41 46 41 37 31 28 32 36 41 41 47 64 67 72 68 46 55 37 37 35 36 37 56 71 79
83 86 89 87 90 86 91 92 97 56 66 44 42 39 41 37 48 52 41 45 35 44 39 32 36 31 27 32 41 44 46 73 64 72 60 57 64 48 38 35 33 36 52 68 78
82 97 99 96 92 90 96 100 69 59 47 49 39 48 52 40 46 50 63 60 54 41 54 55 47 30 25 23 25 40 52 40 59 80 80 64 54 39 34 28 33 40 60 72 76
99 96 91 94 92 94 94 70 57 53 50 48 52 50 50 44 37 38 62 57 62 61 62 47 60 36 30 27 29 32 37 53 69 69 75 69 70 49 41 35 29 42 55 62 73
98 99 76 94 95 99 91 80 63 44 39 53 61 53 60 56 47 53 51 55 65 65 64 73 55 45 31 38 35 43 39 50 52 65 64 72 64 50 36 34 35 29 43 57 68
95 100 95 90 99 93 85 70 59 51 51 53 62 61 66 64 60 52 62 53 57 70 81 81 93 81 45 26 26 32 34 35 49 63 73 66 45 36 38 37 35 31 28 51 64
96 94 97 86 97 87 75 68 63 60 60 61 68 58 60 61 59 60 57 51 66 76 85 67 90 95 62 42 38 41 38 39 53 63 62 69 54 37 34 38 36 36 33 31 53
97 99 97 99 86 74 74 78 79 65 60 55 66 65 71 77 68 77 71 57 55 44 81 74 80 90 95 84 63 59 38 32 45 66 54 50 50 42 38 37 35 34 31 28 34
98 98 87 99 97 88 70 69 72 77 65 62 64 64 69 75 64 60 56 52 46 50 81 84 95 80 78 86 86 74 54 40 41 44 51 49 46 39 36 34 34 33 36 32 30
99 98 97 98 83 98 86 80 69 69 71 76 75 72 67 73 64 66 65 68 63 86 86 91 97 93 82 62 69 68 51 44 45 54 51 49 46 36 34 35 37 33 32 31 32
88 93 95 81 84 96 83 80 76 63 65 58 65 64 73 74 63 60 61 62 63 66 95 96 99 96 80 70 74 78 50 46 51 52 50 57 46 36 35 36 35 30 33 32 30

GFSSW_sfc_rhum_087.txt.gz
RH
78 77 77 76 81 81 82 82 82 78 74 73 73 74 76 84 85 74 43 29 53 76 56 32 23 22 18 21 21 21 24 26 24 25 19 17 17 26 42 41 53 51 57 55 75
74 74 73 73 78 81 82 85 85 83 78 77 79 78 81 84 81 70 50 67 78 73 23 22 22 21 21 22 22 20 26 24 20 20 18 17 19 18 31 42 42 51 59 65 79
70 71 72 73 74 76 81 84 86 81 79 80 80 79 82 81 49 12 75 75 76 62 23 23 25 23 26 24 23 24 21 23 20 18 17 19 20 20 32 29 38 36 48 64 85
76 75 75 74 74 75 80 85 81 77 77 77 75 77 81 80 9 20 71 78 77 44 20 24 24 26 27 26 23 24 21 21 18 17 21 23 24 37 39 26 54 47 51 67 82
82 82 80 76 75 76 81 83 81 76 74 73 74 75 82 44 32 32 58 61 44 27 20 21 24 27 27 25 23 24 20 19 18 19 22 23 23 25 34 50 61 64 66 73 79
82 83 82 80 78 79 82 83 82 81 77 73 72 74 89 28 14 37 38 42 29 21 20 19 19 23 25 25 25 23 21 20 23 22 22 22 27 49 36 59 79 78 74 74 74
77 80 80 76 76 81 85 85 84 82 80 77 75 70 81 40 25 35 42 32 32 30 24 21 20 22 25 28 25 25 28 26 23 21 20 24 26 35 36 68 69 76 75 70 73
73 78 82 84 84 85 85 86 85 83 83 81 75 70 68 41 44 52 48 43 40 34 31 29 25 25 26 26 28 29 30 28 20 24 27 25 27 24 45 67 66 73 76 77 82
72 78 81 84 85 85 84 84 84 80 78 78 77 78 56 38 43 35 42 34 38 35 30 26 30 34 31 31 29 34 28 30 23 25 27 28 27 22 57 66 67 71 85 82 77
72 76 80 82 83 84 84 83 79 79 76 74 68 72 35 19 39 37 43 40 30 37 36 35 39 42 42 34 29 27 38 36 30 26 27 26 27 23 34 51 49 58 71 76 75
72 74 77 81 82 84 83 70 67 65 68 72 58 65 53 46 40 42 35 35 30 31 36 43 39 49 40 37 29 29 34 33 29 27 27 23 27 23 24 49 56 64 73 77 76
72 73 77 81 84 84 74 72 71 69 91 64 66 62 50 46 56 41 36 39 37 33 37 41 46 38 36 37 35 33 36 34 29 28 30 26 26 23 33 37 42 54 66 72 74
72 72 76 83 85 79 81 74 60 64 91 66 63 62 56 50 49 46 30 36 36 38 36 36 36 33 36 40 40 38 38 36 32 31 28 32 30 26 26 44 50 56 54 64 69
78 79 81 86 77 84 71 68 70 71 87 57 62 53 49 51 55 37 29 22 36 39 37 33 25 36 36 38 36 41 34 32 34 34 28 32 38 30 23 24 45 44 62 61 68
76 78 80 84 92 86 69 75 73 82 45 25 45 33 39 47 34 34 30 33 26 35 36 38 35 34 36 39 35 33 33 36 35 37 39 34 40 30 30 25 24 32 49 60 64
76 77 80 85 92 84 79 80 90 87 58 34 37 40 45 41 35 31 38 32 32 27 31 32 26 29 29 29 34 32 34 38 44 43 52 40 40 30 24 24 27 31 43 56 62
79 78 80 84 88 82 83 85 91 81 38 44 41 33 33 37 43 42 42 42 38 40 37 32 30 27 28 32 36 33 42 49 57 58 49 38 44 33 27 25 26 23 32 51 58
80 82 86 85 86 85 87 87 84 44 61 42 38 37 43 31 38 50 39 40 44 37 38 31 28 29 26 28 36 41 40 48 45 55 43 44 42 30 27 27 28 29 29 45 59
77 95 97 92 92 87 92 91 50 58 46 47 37 44 48 33 34 36 57 58 56 59 50 51 33 27 26 24 26 42 46 33 48 62 59 44 41 33 27 27 24 24 38 51 59
97 95 85 89 94 93 90 55 48 50 44 47 42 44 44 40 33 32 50 53 58 52 61 62 58 36 30 24 25 31 35 48 47 47 48 45 50 33 31 28 28 25 33 45 58
97 96 81 91 95 96 86 69 59 43 46 41 56 47 53 50 48 45 55 49 50 49 62 64 62 50 33 32 31 32 34 40 40 50 43 48 44 43 32 26 28 28 27 36 54
94 99 90 89 96 91 85 63 57 52 46 51 54 53 47 48 50 35 41 42 39 64 68 67 82 84 56 39 32 27 32 32 43 39 59 54 38 30 34 34 32 29 27 25 38
96 92 92 94 92 84 66 64 58 56 51 57 62 59 57 48 34 50 51 43 49 52 48 48 71 60 52 40 44 51 47 38 40 45 46 59 42 31 31 33 32 32 29 29 32
96 98 98 99 85 75 76 77 74 63 57 50 58 59 64 67 58 66 63 51 53 42 58 71 69 48 49 72 68 64 59 59 70 57 43 44 35 32 33 32 27 31 32 27 27
99 98 82 96 97 89 69 67 69 68 63 61 63 59 65 70 63 59 51 45 45 56 54 71 82 72 63 58 60 67 58 63 71 65 51 35 33 29 26 30 27 29 29 30 27
99 95 96 92 78 91 94 75 67 63 69 73 67 62 57 65 58 54 53 60 56 61 75 80 91 88 82 73 64 58 52 48 61 56 52 37 34 31 28 30 30 29 29 29 30
91 90 91 78 76 96 84 74 81 60 62 55 63 65 69 67 57 56 54 56 60 67 72 70 88 91 76 64 62 65 54 57 53 45 43 47 38 33 32 32 33 30 30 30 28

GFSSW_sfc_rhum_090.txt.gz
RH
73 72 72 73 75 76 77 79 83 79 80 79 78 78 79 82 78 29 16 24 33 76 67 26 19 16 15 14 14 13 13 11 10 11 11 12 13 12 17 19 20 23 30 28 43
69 69 70 71 74 75 76 77 82 80 77 78 79 80 81 82 50 23 33 63 71 77 22 20 15 16 13 12 13 13 12 11 10 10 12 12 12 13 14 12 15 19 30 38 46
76 75 74 74 73 74 76 80 79 76 74 74 76 78 81 68 27 6 72 75 74 61 15 12 11 12 11 11 12 12 13 9 11 11 11 12 12 12 14 14 14 16 20 36 47
80 79 78 77 77 76 81 84 79 75 73 72 71 72 79 46 11 19 66 74 75 27 17 17 15 15 15 16 11 15 12 10 10 11 13 13 12 14 14 13 15 26 29 34 48
76 76 75 73 72 73 80 84 83 79 77 76 74 73 51 25 10 15 59 63 35 26 18 19 20 17 17 13 13 18 12 11 10 12 12 13 15 14 12 10 13 32 35 38 48
78 78 76 74 75 76 79 82 83 83 82 79 77 74 48 31 5 16 22 28 18 23 21 17 15 14 14 14 15 13 14 12 12 12 13 15 14 15 12 22 29 44 38 42 48
76 78 78 75 76 77 78 81 81 82 84 83 79 57 52 21 11 20 24 20 23 16 18 16 14 15 15 17 14 16 18 13 12 12 12 10 13 15 17 34 38 44 43 41 42
71 77 81 81 83 83 83 82 80 82 82 79 77 54 42 16 17 22 14 14 14 18 23 16 16 18 20 17 19 18 18 18 13 13 14 18 16 16 23 27 30 39 41 42 46
71 77 80 82 82 83 83 81 81 78 77 75 60 54 28 25 20 17 17 16 16 14 24 21 22 20 20 22 19 17 18 17 15 12 12 18 15 14 22 29 27 31 37 41 42
70 73 78 80 81 83 84 80 72 76 62 54 49 55 25 12 26 30 28 28 27 18 25 28 24 25 24 21 26 21 20 18 18 13 18 16 17 13 13 22 24 26 32 40 42
68 71 75 79 78 83 68 40 27 40 37 34 25 33 21 27 25 27 26 31 24 21 17 27 26 29 22 25 20 17 17 16 13 15 19 16 13 14 12 14 22 25 30 36 41
70 72 74 77 80 82 56 46 52 56 63 38 40 36 29 28 41 21 27 32 30 27 19 30 32 18 20 22 25 20 20 19 15 15 21 16 14 14 13 14 18 20 28 33 40
71 70 73 80 78 66 52 55 46 48 64 36 39 41 39 36 34 22 23 28 29 27 22 26 20 20 24 30 30 23 24 22 20 17 17 17 18 14 13 17 19 23 22 28 37
70 72 80 81 66 54 45 51 45 61 71 28 41 36 41 36 39 22 17 18 27 26 23 22 15 24 28 27 25 24 17 21 24 22 21 21 20 14 16 15 14 16 28 28 36
71 68 77 74 58 48 50 49 50 76 29 21 35 26 32 38 29 31 24 21 17 27 28 24 25 23 29 27 25 27 18 22 24 24 24 21 19 15 17 18 14 16 19 28 35
73 70 75 52 58 52 54 57 71 60 34 22 31 34 34 35 30 30 30 24 17 19 25 22 21 22 21 21 25 26 27 27 27 28 37 26 19 16 16 15 14 16 20 26 33
76 74 66 49 50 57 58 51 60 31 18 27 33 25 29 35 34 32 34 34 27 28 23 19 19 19 21 25 23 26 28 34 43 42 37 18 22 19 17 15 16 15 16 26 31
80 77 64 47 47 60 57 54 49 17 25 32 29 28 33 27 30 39 34 31 32 31 30 20 21 14 15 18 24 31 29 35 42 37 29 22 29 19 17 14 16 19 19 22 31
73 60 62 52 56 61 67 58 22 22 29 37 28 30 36 26 23 33 44 40 36 32 32 34 19 21 16 17 16 26 33 24 34 30 42 25 24 21 19 17 16 16 17 22 30
66 66 50 53 64 73 75 45 24 38 34 34 29 31 36 30 25 21 44 44 38 28 44 40 43 26 25 21 18 19 19 36 34 44 40 25 28 24 21 18 16 16 17 22 30
79 75 47 58 76 86 72 42 29 25 34 34 40 34 34 32 27 21 35 41 29 33 35 36 48 36 31 26 24 26 29 29 27 31 36 35 24 21 22 18 17 15 20 22 30
86 96 66 69 89 75 63 40 48 33 31 35 38 35 34 30 31 25 19 23 25 21 30 32 50 53 46 31 28 28 26 25 37 34 36 36 28 18 24 20 21 18 19 18 24
94 66 79 79 79 66 51 52 41 36 32 36 40 43 38 28 26 29 32 37 38 35 40 35 51 50 39 38 40 43 43 40 43 38 38 51 32 17 18 20 18 17 18 18 22
94 93 76 94 71 58 55 52 49 42 41 32 35 40 38 36 28 24 41 43 43 38 52 46 39 33 34 34 36 42 39 34 40 58 40 35 28 21 19 20 19 17 18 17 20
100 81 56 81 86 81 60 53 50 62 45 42 45 41 42 47 46 44 36 41 33 53 47 39 42 37 39 38 38 36 33 35 38 35 50 40 33 22 19 20 18 15 15 18 18
100 83 66 58 50 59 73 69 51 40 41 46 51 41 42 51 43 43 37 41 44 41 59 63 60 54 59 46 40 38 28 26 29 31 28 30 36 23 20 17 18 18 17 18 19
98 72 66 52 54 79 63 57 56 42 41 39 43 47 49 46 44 44 46 45 48 54 61 60 71 75 51 41 45 54 42 32 25 24 31 43 32 23 21 19 19 20 19 19 18

GFSSW_sfc_rhum_093.txt.gz
RH
70 71 71 72 74 74 76 76 77 77 76 75 74 74 77 81 76 18 11 20 29 73 67 17 17 13 11 12 10 10 11 11 9 8 8 7 10 8 9 10 9 9 15 17 22
75 75 74 74 77 77 76 77 80 78 75 74 73 75 78 81 40 13 35 62 58 71 22 17 18 12 12 12 11 11 11 10 8 8 8 7 8 9 9 9 9 10 12 18 24
70 73 74 73 72 73 76 81 82 77 76 78 77 77 80 66 22 10 71 68 77 62 20 13 13 11 14 10 10 11 12 8 7 7 7 8 8 7 9 11 11 12 14 16 26
72 72 73 72 72 73 78 82 78 73 73 74 77 78 80 41 13 12 62 65 72 31 18 14 12 13 14 12 9 11 9 8 8 6 7 9 8 9 9 10 9 10 17 21 26
73 74 73 72 72 74 80 81 80 76 74 76 78 77 51 18 16 12 54 58 28 23 18 14 15 14 14 11 10 11 10 10 8 8 8 8 9 9 9 8 8 12 21 23 25
74 75 73 72 73 75 78 81 81 81 76 76 80 79 49 24 6 6 9 11 12 19 18 14 15 14 14 12 12 11 10 12 10 9 9 10 10 9 8 8 12 20 24 23 29
74 76 75 73 74 74 78 80 81 80 79 81 80 57 38 20 6 8 13 11 10 11 17 14 14 13 13 16 12 12 14 13 12 10 10 9 10 9 7 10 16 20 27 25 26
69 76 79 80 80 80 80 81 80 82 82 79 77 46 34 9 10 10 10 9 11 13 14 14 14 16 17 14 15 17 16 18 12 10 9 10 12 8 11 14 15 22 25 27 26
72 76 77 81 80 81 80 78 80 78 76 74 57 44 27 24 12 9 10 8 7 7 9 10 15 18 18 20 22 18 20 17 14 10 10 12 13 9 14 16 16 18 20 24 26
71 74 76 78 78 80 79 78 62 70 68 41 36 46 28 9 14 17 19 20 15 13 10 16 15 17 16 17 26 23 19 17 17 12 12 12 11 10 8 11 14 14 15 21 27
74 72 74 77 77 79 61 34 28 40 38 26 21 23 16 10 15 12 15 26 25 20 16 16 18 20 16 17 17 18 17 17 14 11 12 14 12 9 9 9 12 12 14 19 26
71 68 69 72 76 75 56 35 38 43 42 24 20 20 16 13 20 17 16 26 28 26 16 12 20 13 15 16 18 19 21 20 15 12 14 16 14 10 9 9 10 11 14 17 24
72 70 69 74 74 60 37 40 37 36 40 21 17 22 21 22 24 18 12 23 22 24 19 19 12 14 14 18 22 22 26 23 19 14 14 17 17 13 10 9 9 11 12 13 21
73 68 69 77 60 40 36 38 36 43 48 16 28 26 28 26 29 17 12 15 18 22 18 16 13 14 18 18 18 28 20 19 18 19 23 15 21 14 10 11 12 13 14 15 18
78 69 68 68 44 39 37 35 37 65 26 15 21 20 24 28 24 20 17 14 18 18 20 19 17 16 18 19 17 24 19 19 20 20 22 18 20 16 11 11 11 11 12 14 18
78 70 66 47 48 37 36 44 50 64 28 16 21 28 29 30 25 23 27 20 15 16 15 19 12 15 14 14 16 18 23 23 23 24 32 23 21 18 12 12 12 13 14 15 18
78 73 64 36 41 43 44 48 45 32 10 11 20 22 20 28 27 26 32 31 24 26 21 18 20 17 17 16 19 22 28 40 63 56 38 20 23 22 12 11 11 12 12 18 20
77 76 61 38 33 41 46 47 47 15 16 21 24 22 25 25 28 33 30 29 24 18 18 17 21 17 16 18 21 23 27 35 52 52 42 21 23 17 11 10 12 12 12 16 21
75 56 55 51 44 44 50 55 29 18 12 19 22 26 25 25 25 33 31 26 27 26 28 23 15 12 9 10 15 21 31 22 31 32 40 28 19 18 14 15 14 12 14 17 20
64 66 53 45 47 50 57 52 22 14 27 25 32 21 21 26 26 26 37 31 28 27 30 32 37 21 11 14 14 15 13 28 26 46 50 28 24 21 19 17 14 13 13 14 17
84 81 41 41 52 72 68 39 24 17 22 29 23 25 24 28 24 24 33 35 29 27 28 29 37 30 25 25 19 19 19 20 21 25 35 40 27 17 19 17 16 14 15 16 17
86 92 56 47 73 57 57 32 33 20 20 29 30 32 30 26 26 23 18 22 21 21 24 30 39 40 30 22 25 27 20 19 33 30 26 30 28 18 20 18 20 19 15 16 19
91 60 62 68 76 55 42 34 27 26 24 22 27 27 27 32 27 22 21 25 31 26 31 31 36 42 33 26 27 32 25 24 25 30 35 46 34 15 16 16 16 17 15 15 17
94 93 64 82 54 53 47 39 38 27 28 22 23 22 31 32 24 24 21 27 40 34 57 45 32 35 33 31 28 40 33 30 32 44 36 30 23 17 16 16 17 16 16 15 16
99 80 50 82 78 60 54 54 36 39 35 28 30 28 28 29 24 25 21 22 28 52 37 39 38 28 25 22 23 26 27 27 29 32 41 31 27 22 20 18 16 16 16 15 13
99 78 54 52 46 51 58 53 57 34 28 44 37 26 28 29 29 30 28 30 30 27 36 48 48 34 33 30 27 26 19 18 17 19 22 25 26 17 15 16 18 18 15 14 14
94 51 80 61 48 62 55 41 41 41 36 30 38 33 38 31 27 30 33 39 35 41 53 54 51 56 47 26 30 46 31 24 20 16 17 26 22 17 21 20 18 17 15 14 14

GFSSW_sfc_rhum_096.txt.gz
RH
73 73 74 74 76 77 76 77 81 76 76 76 76 77 80 83 81 29 15 20 28 69 61 20 20 15 12 13 11 10 16 17 13 10 9 7 8 8 7 8 9 9 12 12 23
68 68 70 71 73 75 77 77 81 76 74 74 78 79 83 84 56 29 32 57 63 70 16 16 18 16 15 13 12 14 18 15 10 8 8 8 7 8 8 8 9 10 15 13 16
68 70 72 71 71 72 77 82 82 75 73 76 77 79 84 75 36 18 69 68 67 56 13 11 14 16 16 12 12 13 16 13 10 9 8 8 8 7 8 9 10 11 12 12 20
67 68 70 70 70 72 78 82 80 72 71 72 72 77 82 56 21 21 69 72 76 29 20 17 15 18 17 15 12 14 11 10 10 8 8 9 7 9 8 9 8 10 11 16 20
71 68 69 69 70 72 78 79 79 74 73 74 73 78 61 25 20 7 67 59 27 27 20 19 18 18 17 14 13 13 11 9 9 9 10 9 10 10 9 7 7 8 12 18 21
75 76 73 69 71 72 76 78 79 80 77 74 77 82 60 36 9 5 7 8 10 16 17 17 15 14 15 14 14 12 11 11 10 10 11 12 12 10 9 7 8 10 15 19 22
76 76 78 72 71 73 76 76 77 78 78 76 81 64 48 29 8 9 8 12 8 10 13 15 14 16 16 18 15 15 16 14 13 12 12 11 13 12 9 9 9 11 14 21 20
77 76 77 78 79 78 76 74 76 76 75 80 78 55 46 13 11 10 9 9 8 9 12 11 14 17 19 16 17 17 18 22 15 13 12 12 17 11 9 8 9 15 17 21 23
78 77 78 78 79 78 76 76 74 73 75 75 71 56 38 24 14 10 8 8 7 9 11 10 14 21 20 24 26 22 25 23 19 12 12 12 14 10 10 12 14 14 16 20 24
78 78 77 77 79 79 77 74 61 63 58 47 43 46 34 16 9 13 12 18 14 9 9 10 10 18 21 24 33 27 24 22 22 15 13 14 13 11 9 13 16 15 15 16 23
74 76 77 76 77 77 61 42 28 42 51 43 34 37 24 12 7 11 10 16 22 18 19 13 13 18 17 19 18 20 21 21 16 13 14 15 15 12 11 10 12 12 15 15 21
76 75 74 74 76 73 53 50 36 40 49 26 20 19 14 10 14 11 11 18 28 32 23 17 17 14 11 13 16 18 21 22 19 15 17 16 15 14 13 12 10 10 12 15 20
74 73 73 76 75 58 48 33 31 34 44 23 15 16 15 14 17 15 12 15 22 27 24 21 14 11 13 13 16 20 24 25 26 20 18 18 19 17 14 12 11 10 11 12 19
74 76 78 76 66 43 40 34 31 40 55 15 19 18 16 21 23 15 13 13 16 23 17 20 15 15 12 16 13 20 18 21 25 30 31 20 27 20 15 13 11 11 12 16 15
74 77 79 70 51 43 34 35 36 49 39 12 21 16 19 23 22 18 14 15 16 19 19 22 18 18 17 14 16 19 16 19 26 35 32 28 28 22 15 14 12 14 15 16 17
74 77 77 57 52 44 31 40 50 63 42 11 19 24 26 27 23 20 23 15 13 15 14 16 13 13 15 14 13 14 18 21 24 29 43 35 33 24 18 16 12 11 13 19 18
74 76 73 45 55 44 46 48 49 42 11 9 15 19 23 23 26 19 28 30 26 28 26 17 18 14 14 19 16 16 24 40 50 55 64 31 31 26 19 14 12 15 16 21 21
76 78 67 46 42 55 48 55 56 23 21 10 17 18 22 17 22 24 25 28 24 22 22 22 23 12 15 20 22 18 24 40 49 61 45 39 38 23 16 14 11 13 16 19 23
73 68 69 55 57 67 66 69 39 27 16 20 19 18 19 18 25 26 31 26 20 23 30 34 25 9 13 16 18 21 29 23 35 35 72 49 36 25 16 16 14 14 14 21 25
75 82 68 53 64 69 86 72 31 21 17 21 29 23 23 19 25 24 28 23 33 25 28 40 44 13 12 12 16 18 17 32 32 49 51 36 48 36 25 20 17 16 16 20 24
94 98 47 53 61 78 81 51 32 23 20 24 27 23 21 30 48 26 22 39 28 27 24 28 36 39 14 14 16 16 18 19 20 29 40 51 44 38 35 27 24 21 19 21 26
97 99 57 69 93 58 66 42 39 23 16 20 24 28 31 32 29 28 23 41 22 23 24 31 39 46 37 19 21 26 19 20 31 32 30 36 35 34 31 26 23 20 18 22 21
95 64 70 76 93 67 48 38 30 26 21 20 24 22 21 25 35 26 22 28 28 28 44 40 36 44 34 25 25 30 27 21 22 26 35 55 42 22 23 21 23 21 19 19 22
99 93 62 95 61 58 79 51 35 24 25 24 21 20 22 28 25 31 20 23 34 30 58 49 30 34 46 35 26 34 29 29 32 48 36 36 28 32 42 23 21 22 22 19 19
100 80 58 96 81 59 48 61 52 37 26 23 24 25 25 36 29 28 22 19 21 46 33 39 36 27 23 21 20 21 27 28 32 34 42 34 28 22 22 21 20 19 20 18 16
99 70 43 48 48 69 58 48 45 49 32 36 37 29 23 27 26 28 20 24 27 23 33 36 48 40 37 24 20 25 22 22 21 20 21 25 28 20 18 18 19 19 18 18 18
80 56 75 67 88 71 59 50 37 33 39 43 34 43 40 29 29 21 30 35 38 42 46 48 51 50 53 34 27 41 27 20 17 15 17 23 22 18 19 19 21 24 24 21 18

GFSSW_sfc_rhum_102.txt.gz
RH
65 65 67 69 71 72 73 74 76 75 73 73 72 72 73 81 85 68 47 33 54 69 72 39 44 40 39 39 30 28 38 42 32 26 22 18 16 14 13 14 15 13 19 21 54
64 64 65 66 70 71 71 72 76 73 72 72 72 73 77 83 87 68 51 63 74 76 36 28 34 36 43 36 31 31 38 32 25 21 21 18 22 14 15 13 14 18 55 57 60
67 68 66 66 67 70 72 76 77 70 72 72 74 75 79 84 75 30 64 66 82 73 27 21 22 32 41 36 31 30 30 24 21 20 20 19 19 15 16 16 15 15 53 64 64
73 71 70 69 69 70 76 77 75 69 69 69 69 72 81 86 9 28 70 71 70 52 26 27 24 24 30 36 31 34 24 22 20 18 19 19 16 16 17 14 13 14 18 59 61
80 77 74 70 69 72 77 78 77 74 70 67 69 70 82 59 40 25 66 70 62 44 35 33 26 25 30 30 30 31 26 21 19 18 17 16 17 17 16 15 15 14 14 45 52
80 81 79 72 72 73 78 78 77 74 73 67 68 71 94 65 16 18 17 24 42 39 33 33 28 28 32 30 31 27 26 23 20 20 20 19 21 24 17 17 15 17 16 20 31
75 77 80 76 78 78 79 79 76 73 72 68 68 71 81 54 19 19 25 23 19 20 17 19 26 31 30 32 26 26 29 28 27 26 22 21 24 22 17 17 18 16 16 17 31
69 76 81 84 84 83 80 78 75 73 74 70 68 81 82 43 42 34 31 27 20 15 14 14 16 24 31 29 30 34 37 42 28 25 22 27 29 21 18 18 18 17 15 19 33
73 75 79 83 85 83 81 78 76 72 70 68 91 96 85 48 46 36 34 28 19 15 13 10 20 25 30 38 44 45 42 42 36 26 25 27 28 22 19 18 18 17 16 21 38
72 71 76 78 83 82 80 77 72 71 63 54 62 91 64 38 28 23 27 25 24 27 18 19 20 23 41 45 48 46 47 39 41 30 26 28 27 23 20 19 17 21 22 26 57
70 70 76 78 80 82 79 84 64 63 56 66 66 70 47 34 34 28 20 18 22 26 39 23 27 27 24 36 32 36 40 42 40 26 26 27 28 28 27 25 22 22 26 26 55
72 71 73 78 79 80 84 74 62 54 76 47 48 48 41 39 48 35 23 24 25 30 39 33 28 19 16 18 25 36 40 39 31 25 24 25 25 31 30 26 22 20 22 27 68
71 72 74 80 80 82 76 57 46 53 73 54 36 35 36 32 36 29 22 21 20 30 38 51 34 18 17 19 19 23 33 35 34 26 22 26 31 35 29 28 24 19 21 37 66
72 72 79 80 80 88 74 51 54 59 94 54 45 32 24 26 33 19 15 18 24 20 29 47 38 38 26 19 18 21 17 20 22 27 35 37 48 35 33 31 26 22 20 41 61
74 75 77 75 94 95 62 63 59 70 91 24 27 21 21 26 26 28 16 18 21 28 28 34 44 44 42 31 18 21 19 23 23 28 40 42 54 48 35 35 29 24 20 33 62
73 73 76 83 95 87 74 74 76 85 77 37 24 28 27 23 29 29 24 21 22 29 25 26 22 26 31 28 22 17 22 23 26 38 51 52 54 50 45 32 28 22 20 26 57
74 76 80 74 92 80 88 90 91 90 26 18 27 27 27 36 31 34 37 33 38 45 41 31 26 21 19 24 23 27 35 53 60 66 60 39 47 37 34 27 26 25 22 22 36
76 79 84 77 88 86 93 100 96 36 41 25 34 31 32 37 42 44 45 42 35 37 43 42 44 24 20 21 28 29 34 62 57 78 62 38 55 51 40 34 29 26 25 47 62
75 96 97 89 86 96 99 98 90 48 43 45 37 32 47 67 65 50 64 49 37 30 48 53 39 36 21 18 20 27 40 34 49 64 72 59 53 43 42 43 38 27 28 53 63
88 92 95 78 91 94 100 81 64 44 40 38 52 36 46 50 46 58 77 71 73 60 57 47 59 38 40 33 21 28 30 42 48 53 60 58 60 59 55 50 41 37 39 46 56
97 95 77 87 92 99 97 85 57 38 37 46 56 56 42 43 36 66 79 61 67 71 57 48 58 54 47 52 34 33 32 41 42 55 50 68 55 55 56 51 48 50 42 41 43
94 95 83 91 97 99 93 90 55 45 44 48 46 48 44 40 37 63 83 83 72 76 94 57 60 72 47 50 46 51 38 42 63 60 56 63 52 43 48 46 56 55 44 40 33
96 97 90 87 97 95 77 62 58 63 58 47 48 44 38 38 43 50 75 56 56 70 95 65 78 70 56 52 59 44 43 45 49 49 60 66 51 49 52 52 48 48 54 43 48
97 96 92 97 98 98 98 87 71 63 68 51 47 40 46 46 37 50 45 48 53 55 65 64 71 52 64 70 64 53 40 52 62 70 59 43 36 60 57 53 44 47 58 62 54
94 93 89 97 96 89 89 80 84 74 71 67 60 57 51 46 44 44 42 42 34 56 57 64 68 57 51 43 37 44 34 40 76 70 70 56 52 61 51 50 60 55 53 57 61
95 96 95 94 81 80 82 76 84 88 78 83 72 60 64 69 60 75 70 66 53 53 62 63 68 67 66 48 48 48 39 35 40 57 49 35 30 32 43 54 68 56 53 58 66
93 91 92 84 86 91 81 67 66 73 71 58 64 75 77 75 80 75 74 69 67 56 65 77 78 78 76 62 54 60 48 36 31 35 42 38 63 40 60 59 59 63 58 61 63

GFSSW_sfc_rhum_105.txt.gz
RH
66 67 67 67 69 70 71 71 75 72 71 69 69 71 73 80 83 68 54 29 56 68 64 52 46 47 44 45 34 34 46 50 38 31 26 22 21 21 15 15 15 16 32 33 65
68 69 69 69 71 73 72 72 75 72 70 70 70 73 77 80 87 73 52 58 71 71 34 35 39 42 48 44 37 38 47 39 31 25 25 23 27 21 19 18 15 16 58 66 72
71 71 71 70 70 72 76 79 78 71 70 70 70 73 78 82 70 18 63 73 69 74 38 33 28 37 46 40 36 36 37 28 26 24 25 25 26 23 21 19 18 15 30 73 76
75 74 72 70 69 71 78 80 78 72 69 68 67 70 77 87 8 21 68 66 70 71 38 26 24 28 35 44 36 37 30 25 25 23 24 24 23 23 20 17 16 16 31 71 74
73 72 72 71 71 72 78 80 79 75 71 68 67 69 85 64 34 20 53 59 65 43 31 33 28 25 28 30 36 37 33 28 26 25 24 22 23 21 19 16 16 18 20 70 66
73 72 73 72 71 73 79 82 80 78 77 69 67 69 92 65 15 18 21 22 40 48 42 36 31 26 30 30 29 32 30 29 28 28 26 24 22 25 20 20 18 20 20 50 64
72 75 75 73 70 71 79 81 81 79 78 72 70 68 82 53 22 27 34 28 23 36 39 31 33 36 38 37 31 31 36 32 32 29 29 26 30 26 20 21 20 20 20 20 42
69 74 78 78 77 79 81 82 80 78 78 74 68 73 86 46 54 51 44 34 31 28 25 21 19 26 31 29 33 36 40 46 32 28 25 26 29 24 22 23 22 22 20 19 23
70 73 77 79 80 80 80 81 77 75 75 66 88 89 85 48 52 45 41 34 28 25 20 12 18 24 30 43 46 45 46 45 38 28 29 28 34 26 24 26 23 24 22 19 23
72 73 75 78 80 80 81 76 74 75 63 61 70 91 63 36 38 37 35 32 30 27 27 17 22 27 47 47 47 44 52 44 42 33 30 33 31 29 25 26 27 26 23 25 32
70 71 72 77 76 79 80 77 70 70 63 66 62 76 59 46 35 42 34 32 26 31 39 28 28 28 25 40 30 33 44 46 43 31 32 34 32 28 26 26 33 29 26 26 34
71 71 72 75 76 78 79 69 58 63 92 60 53 51 45 42 49 33 30 34 28 31 38 46 36 23 23 26 35 42 43 45 40 32 33 33 32 25 28 30 30 27 29 26 71
74 75 75 77 78 82 90 72 59 60 85 61 45 43 41 38 48 34 31 31 29 31 36 38 41 32 22 23 23 26 36 43 42 33 32 34 31 26 25 32 29 30 28 26 58
72 74 77 81 73 92 74 68 63 61 99 58 55 42 29 34 42 24 21 20 25 22 25 36 27 35 30 23 22 24 21 23 28 37 43 33 38 34 34 28 28 29 29 30 55
73 72 73 74 93 96 68 74 62 75 89 30 34 28 25 32 23 30 19 21 15 24 27 19 52 45 44 42 21 24 21 24 25 31 36 27 55 40 41 39 32 25 29 30 53
74 73 74 84 94 89 86 80 83 90 79 41 29 30 33 32 27 30 22 20 21 22 30 17 28 41 46 38 30 23 27 30 35 37 49 33 42 38 40 35 35 28 27 26 43
74 75 78 81 92 85 90 93 95 92 32 30 31 33 36 51 46 28 35 34 39 43 40 29 28 28 26 29 28 30 39 54 66 74 53 38 52 35 36 30 36 40 35 29 37
73 78 86 82 94 91 94 99 98 50 42 33 33 44 53 52 62 73 51 43 37 38 45 40 31 27 26 26 32 34 37 60 56 68 60 44 58 43 35 43 42 40 39 41 44
73 90 96 94 90 96 96 99 72 61 93 83 42 52 56 48 57 74 82 97 75 64 48 53 43 29 23 19 22 28 43 28 43 67 72 61 55 40 48 46 47 50 46 45 70
86 97 96 84 95 96 99 74 70 61 58 47 52 79 77 64 74 63 88 79 73 76 74 59 68 40 40 25 24 26 27 40 55 53 59 59 63 52 49 50 53 53 54 54 45
96 95 74 92 90 98 99 83 70 48 49 51 59 59 74 67 75 78 99 90 75 67 70 69 70 59 50 48 42 34 37 43 38 55 50 60 58 48 47 61 60 50 59 59 62
96 100 81 90 97 98 92 74 70 61 51 59 58 55 89 57 55 76 100 78 75 73 85 77 77 80 54 58 54 56 34 32 59 60 64 61 55 63 61 66 67 68 66 62 55
93 92 89 91 94 98 86 88 61 65 63 62 58 54 68 54 50 47 49 45 53 72 80 78 89 85 73 66 58 57 46 54 53 59 61 72 68 66 60 62 63 77 78 63 63
95 95 91 96 96 98 94 84 80 59 66 71 63 54 61 47 45 47 41 38 46 67 66 70 80 93 94 82 64 57 44 62 64 67 73 62 62 75 68 65 63 69 76 72 62
97 88 90 99 94 93 87 82 76 89 72 74 69 67 73 65 61 64 62 56 46 65 71 78 94 90 74 50 59 66 50 44 68 77 73 57 44 54 67 62 66 64 75 70 69
98 99 98 96 87 82 75 73 76 64 81 80 92 72 72 76 76 87 81 77 72 64 66 72 95 94 84 60 51 64 60 45 46 65 73 73 38 50 70 61 62 66 76 79 81
96 84 97 83 87 92 81 73 70 69 66 63 68 76 78 68 75 70 72 71 73 78 67 72 90 93 78 65 62 63 60 47 50 54 64 79 63 68 66 62 65 67 71 74 75

GFSSW_sfc_rhum_108.txt.gz
RH
69 69 69 70 71 71 72 72 76 73 72 71 70 70 71 79 82 74 49 31 60 68 66 56 50 48 44 45 38 40 47 53 42 36 28 24 26 24 21 19 18 17 28 39 70
71 71 70 70 70 70 71 72 76 74 72 71 70 70 74 80 88 75 51 62 70 72 46 40 44 43 47 48 41 40 54 43 35 29 26 26 32 28 23 23 22 19 40 71 87
71 70 70 69 69 69 70 76 76 74 72 72 70 70 76 80 68 14 70 70 68 70 41 36 36 40 48 45 43 44 41 36 30 27 28 30 29 28 27 25 24 21 20 76 86
70 70 70 70 70 68 73 79 74 74 73 72 70 69 74 89 9 31 58 67 67 73 50 29 34 43 47 46 40 40 36 29 32 28 32 28 28 26 26 21 19 20 22 66 80
72 73 74 72 70 68 72 76 74 71 73 73 72 70 86 62 28 17 47 38 65 51 36 32 28 31 31 30 37 43 39 30 29 27 29 27 29 28 26 21 20 20 21 51 74
70 71 74 72 70 69 71 76 78 79 76 75 74 70 87 61 14 21 34 31 27 50 47 37 32 27 29 29 34 34 36 29 30 32 32 31 30 34 24 24 21 23 24 25 70
70 71 74 73 71 71 74 79 80 79 77 76 76 73 90 42 30 40 44 35 26 25 26 38 38 42 40 42 35 36 40 37 38 34 33 30 35 32 23 24 24 22 23 24 37
71 73 77 77 77 80 79 77 77 78 76 75 71 80 82 46 53 54 55 48 37 34 25 28 29 34 40 31 29 40 42 51 38 33 30 27 34 30 24 26 25 25 25 25 25
70 70 74 78 80 81 78 78 76 73 69 71 87 90 69 41 49 43 51 44 37 34 33 19 23 26 33 41 47 47 52 51 42 32 29 29 33 30 29 28 27 26 28 27 26
71 71 72 75 80 80 80 71 70 63 58 64 71 83 54 44 47 38 39 40 32 30 29 23 24 28 44 47 42 51 55 49 48 39 35 38 35 33 28 31 28 28 26 30 28
71 71 73 76 78 80 64 67 70 72 68 75 58 64 55 37 30 36 37 33 32 34 39 26 27 29 25 36 27 34 44 47 49 37 39 40 37 36 30 30 30 29 32 30 30
72 73 74 76 75 72 77 72 73 75 92 64 59 58 49 44 57 35 29 32 37 36 40 48 36 25 21 30 38 41 40 39 45 38 37 36 35 30 31 28 27 27 26 30 33
73 73 74 76 73 84 91 74 69 69 99 63 50 49 46 43 56 46 33 39 36 35 36 36 38 30 27 30 30 34 40 43 45 42 37 44 33 23 22 28 26 28 31 33 32
73 74 75 75 78 95 70 80 71 76 98 62 59 45 32 39 49 36 26 30 38 32 36 35 24 30 41 34 26 29 29 32 37 40 45 38 39 33 29 26 33 31 31 34 34
72 73 75 75 97 96 74 82 65 84 64 35 36 31 23 36 29 29 24 28 25 28 31 29 38 33 34 33 24 27 23 27 30 40 41 36 37 34 34 37 26 28 34 36 34
71 73 73 75 94 89 88 87 82 84 72 39 30 39 40 37 41 37 24 22 25 23 23 18 31 36 28 28 25 24 29 30 36 41 52 36 38 42 34 27 36 46 46 53 51
71 73 78 85 94 88 94 89 72 82 32 45 58 57 51 48 51 63 64 34 38 40 35 19 25 26 26 30 40 33 41 60 67 63 53 34 43 33 34 32 46 53 55 54 69
72 74 82 86 95 88 94 90 94 42 48 56 64 59 59 55 71 69 81 68 36 39 43 37 33 26 25 31 36 44 42 62 58 74 59 47 52 44 33 41 45 54 60 58 63
73 92 95 92 93 96 92 98 78 59 63 72 61 56 62 49 65 93 71 97 84 75 72 53 39 29 24 26 26 37 42 36 45 65 65 59 58 44 49 52 55 62 65 64 66
97 96 92 88 95 95 96 75 69 63 52 62 79 59 64 64 80 93 94 91 93 81 88 66 72 48 38 25 28 32 32 47 54 53 55 57 70 54 62 57 61 68 71 68 65
95 93 71 94 94 97 98 82 70 56 53 81 67 72 68 66 91 93 93 93 66 79 94 87 71 61 61 47 36 36 42 42 46 59 54 59 58 53 48 63 78 80 70 70 67
97 96 78 89 96 94 89 79 66 71 59 64 72 67 71 85 95 91 97 77 51 69 98 90 87 74 62 72 68 52 43 37 58 54 66 60 52 74 76 73 73 73 75 70 63
94 93 88 89 93 97 89 80 75 73 68 71 75 62 61 73 86 58 77 49 45 65 99 97 88 88 82 78 73 64 55 62 40 63 64 75 62 66 75 78 75 83 83 73 60
95 98 89 99 96 94 99 91 80 64 76 68 79 71 78 71 53 59 59 51 61 61 70 83 98 92 93 86 71 95 58 52 56 57 51 67 85 79 79 84 78 82 85 75 75
98 93 87 98 96 93 85 84 80 80 74 80 78 74 89 90 70 71 67 64 55 61 67 77 97 87 67 60 62 72 94 66 78 74 58 73 61 56 74 85 84 77 78 76 74
99 99 88 89 86 90 78 70 77 68 72 83 79 74 74 88 78 82 69 72 73 67 66 75 96 89 76 51 48 77 81 93 60 73 84 77 78 81 77 81 85 86 80 78 78
98 94 93 82 89 92 82 76 76 78 66 66 71 82 84 74 74 74 71 68 68 75 78 73 96 95 74 72 69 85 76 64 62 56 70 72 76 73 81 81 85 80 81 80 80

GFSSW_sfc_rhum_111.txt.gz
RH
70 68 68 68 69 69 70 70 71 72 72 72 72 71 70 76 79 64 34 27 50 69 66 49 40 35 33 29 27 28 26 26 18 25 16 17 18 17 16 14 14 13 16 22 42
68 67 68 68 70 70 69 68 68 68 71 72 72 71 73 78 75 64 46 64 69 68 44 39 40 38 35 35 29 27 27 22 21 20 18 18 19 18 16 17 16 16 17 34 55
69 69 69 68 68 68 68 70 70 68 66 68 71 72 76 74 50 12 65 69 73 64 38 31 34 32 32 36 34 30 26 25 22 20 19 19 19 18 18 17 18 17 17 18 42
70 69 69 69 68 68 69 76 70 70 69 69 72 74 74 76 5 34 55 60 70 59 41 27 35 39 39 35 32 34 31 24 19 22 22 22 20 19 19 16 15 17 18 18 22
70 70 71 70 69 68 71 76 72 70 72 72 72 72 74 32 19 20 47 39 40 54 39 27 28 30 30 29 31 35 30 26 24 24 23 22 22 22 21 17 18 19 19 18 19
71 72 72 71 71 70 71 76 78 74 74 74 75 68 77 18 11 31 36 28 18 38 38 29 26 24 26 25 26 24 27 24 23 22 25 24 23 23 20 20 20 21 19 17 20
69 69 71 72 73 74 74 77 80 78 76 77 74 69 78 21 34 37 41 28 23 17 20 21 24 33 31 32 28 29 31 28 28 26 25 26 28 28 21 21 21 20 19 18 18
68 70 72 74 76 77 79 78 76 74 73 73 75 72 47 36 39 45 44 41 37 38 26 18 20 22 34 29 21 26 29 35 29 30 27 24 27 23 20 22 20 23 21 21 19
66 70 70 77 78 82 78 77 74 72 70 74 77 65 41 35 39 37 39 41 35 31 31 21 24 27 25 27 26 29 26 35 33 28 26 27 26 21 20 22 22 22 20 20 20
68 69 73 75 76 80 73 69 63 56 54 65 66 63 40 34 31 30 21 35 28 32 27 28 25 24 26 27 29 28 31 37 31 26 29 28 29 24 22 23 23 22 21 21 20
70 72 73 72 72 71 61 59 65 59 61 72 54 60 46 37 30 31 28 28 25 28 31 25 26 26 20 25 21 22 31 32 31 29 30 30 29 25 24 24 25 22 22 19 19
71 72 73 72 72 68 62 72 75 76 90 59 59 58 51 48 61 44 32 34 22 17 29 34 34 23 19 25 25 25 25 25 23 27 28 27 27 22 22 23 22 21 19 18 19
72 73 74 73 71 80 77 77 69 73 94 62 50 49 39 40 51 44 30 34 33 24 22 33 27 25 25 23 25 25 27 26 24 25 29 32 26 17 14 19 18 20 19 19 23
71 72 75 73 67 88 62 72 75 73 54 34 36 32 27 26 44 24 28 29 32 34 22 24 20 27 34 30 22 26 23 24 26 32 29 25 20 18 16 15 23 22 30 38 41
71 71 73 75 90 78 65 79 73 71 13 27 30 25 28 31 36 29 24 28 33 31 30 24 29 29 30 32 27 30 24 26 27 30 30 23 26 19 23 23 21 41 45 48 53
70 72 72 81 86 78 81 83 67 35 23 30 34 33 43 37 39 37 43 35 25 29 26 24 18 23 21 22 24 23 23 25 28 28 32 24 23 21 19 20 42 47 49 51 51
70 71 76 81 79 81 90 75 37 30 28 33 42 45 51 50 48 48 55 58 55 35 32 23 21 16 27 24 27 24 28 35 42 43 38 29 29 21 24 33 45 52 53 55 52
73 75 81 81 87 88 88 77 58 38 38 37 51 53 52 48 40 44 66 68 59 45 35 45 36 17 14 24 31 30 30 37 37 43 33 31 33 25 23 26 47 53 53 52 54
76 87 86 83 89 93 85 81 45 52 55 64 56 53 52 38 53 61 79 94 99 99 71 61 31 20 17 20 31 41 39 28 39 50 48 39 34 33 39 51 53 57 55 58 62
91 90 77 84 91 91 88 63 54 55 50 56 77 59 61 59 68 81 95 87 91 78 95 83 78 39 31 15 20 32 31 46 42 44 47 39 45 31 53 60 57 62 60 59 66
93 88 82 91 89 94 87 70 63 51 53 67 75 69 62 75 73 84 91 74 57 50 77 99 77 49 46 26 20 23 36 36 34 41 35 36 34 42 44 53 61 64 59 60 65
94 91 81 84 92 85 82 79 65 68 60 64 70 75 78 75 87 84 90 75 51 52 81 97 95 76 42 70 70 25 24 32 40 44 40 35 34 59 61 60 59 67 59 56 52
93 83 86 86 93 88 78 78 76 72 66 79 75 76 74 80 76 68 56 47 45 56 86 99 93 86 58 60 59 78 51 42 31 47 38 48 36 62 61 60 67 70 63 61 54
94 94 79 99 95 78 94 85 71 58 69 67 78 75 79 71 61 65 61 50 55 52 64 95 100 97 72 71 66 80 81 74 55 39 33 41 65 71 65 62 66 71 71 69 59
96 87 83 97 95 85 79 72 70 74 59 68 71 64 82 83 71 66 60 64 54 56 54 78 97 97 81 54 58 69 76 81 74 56 37 30 40 60 61 63 64 69 67 68 65
99 93 79 68 78 83 80 65 66 64 71 68 79 69 73 81 73 84 72 71 69 60 64 59 83 85 87 61 45 54 72 72 54 67 63 61 70 70 65 68 71 70 66 73 77
96 89 89 77 84 86 72 65 68 68 62 62 64 70 77 66 69 67 70 70 74 82 78 73 77 72 58 58 62 58 72 70 58 56 58 58 67 75 82 82 77 74 74 75 73

GFSSW_sfc_rhum_117.txt.gz
RH
66 66 67 68 69 68 68 68 69 70 70 69 70 70 72 78 76 19 10 36 36 63 54 13 16 14 15 15 12 11 16 15 11 10 8 5 7 6 5 6 8 8 10 11 14
66 66 67 67 68 69 70 70 71 72 70 70 71 73 74 80 41 12 50 67 72 61 19 16 14 14 15 16 14 15 18 15 10 8 8 6 7 7 8 8 8 9 10 10 10
68 67 68 68 69 70 71 73 74 72 71 72 73 74 78 66 24 17 59 58 64 48 17 14 14 13 17 15 15 16 19 14 11 9 8 8 8 6 7 9 8 9 10 10 10
69 69 68 69 70 72 73 78 74 71 72 74 74 76 79 38 6 20 52 53 49 28 15 11 15 17 17 17 13 17 16 15 13 11 10 11 10 10 8 7 6 6 8 9 10
68 68 70 71 72 72 73 77 73 73 76 76 75 76 51 14 7 7 42 31 6 7 13 14 12 13 18 15 14 15 14 14 13 13 13 12 12 13 11 8 8 7 7 9 10
68 68 71 72 73 73 71 75 77 74 77 78 77 77 36 13 7 9 14 13 10 12 8 5 13 10 12 12 14 15 15 14 14 15 14 16 15 13 12 10 10 10 9 9 9
68 67 72 73 74 72 70 76 76 75 77 73 71 48 30 19 13 16 14 12 18 14 20 16 8 13 14 14 12 13 17 16 15 14 15 14 17 16 13 12 12 11 11 10 8
66 70 72 74 73 73 75 77 76 75 70 73 73 33 19 13 11 12 12 12 9 9 13 20 20 13 15 13 12 13 16 22 15 14 14 15 21 14 12 12 12 13 12 11 10
66 70 72 73 74 79 78 76 71 66 69 70 55 27 18 26 14 13 11 15 14 12 11 16 18 21 13 16 15 10 12 13 14 10 13 16 20 13 11 12 13 13 13 12 12
67 71 72 71 75 78 77 74 56 60 52 28 24 17 17 20 16 15 10 10 14 16 15 14 19 17 12 12 14 12 12 11 12 10 10 15 16 14 12 12 15 13 12 12 12
69 70 70 70 71 75 52 24 17 30 16 20 23 25 19 12 14 9 10 9 12 13 16 13 13 16 9 9 9 9 10 11 12 8 10 12 12 11 11 11 13 14 13 14 14
69 70 70 70 70 71 32 24 31 37 25 20 24 25 20 12 11 7 9 13 14 16 14 15 16 10 7 8 7 6 9 12 8 7 9 9 12 13 12 10 10 12 12 13 14
68 69 70 72 67 49 32 35 32 35 33 16 19 18 14 11 13 12 12 15 17 20 17 17 13 10 11 10 10 10 9 10 10 8 8 10 11 10 9 9 8 8 8 10 12
69 70 72 74 58 29 31 30 30 44 33 17 14 16 11 12 14 10 14 16 19 22 18 20 15 14 13 12 10 13 8 9 8 11 12 10 14 9 8 8 8 8 9 10 9
68 69 71 69 35 22 32 33 35 50 26 13 11 9 10 13 14 13 11 13 22 26 28 28 22 19 16 14 10 10 9 11 11 12 14 11 9 9 8 9 9 9 9 10 13
68 70 68 45 39 35 35 39 43 47 22 14 11 15 15 14 13 13 14 16 22 28 22 22 18 21 18 16 14 13 12 12 15 15 23 16 12 9 8 10 10 12 13 18 22
69 72 55 37 39 41 44 36 32 18 11 15 19 17 19 18 16 16 20 19 33 45 37 27 22 17 17 19 16 16 19 21 29 27 26 12 12 12 8 7 9 17 24 27 27
72 66 60 37 39 48 41 41 49 17 16 18 20 20 19 16 20 20 21 26 24 42 49 39 45 26 38 36 20 18 19 23 31 27 20 9 12 9 7 7 12 19 25 28 29
67 48 44 50 51 48 37 65 23 22 30 34 23 21 19 19 22 24 29 41 36 40 92 69 50 34 27 25 27 18 20 14 22 17 20 11 9 9 8 10 21 26 27 32 35
41 41 44 54 56 50 45 31 23 25 27 30 35 28 30 25 30 34 42 40 35 29 37 70 88 36 31 43 31 16 12 21 20 30 25 12 13 12 13 14 22 25 30 36 41
45 42 51 53 56 43 65 28 28 29 31 35 32 34 30 36 36 40 52 44 26 27 33 55 91 50 57 53 29 16 17 14 16 19 23 21 14 10 11 13 18 24 32 38 41
45 73 49 50 49 35 33 30 51 31 33 35 38 37 39 40 41 40 57 34 24 29 43 77 93 70 54 46 48 35 16 14 21 22 16 16 14 16 13 18 20 36 33 37 41
41 39 50 53 85 38 38 33 32 32 30 33 36 33 37 38 42 34 32 24 24 31 47 56 68 78 43 59 54 54 23 15 17 16 18 27 18 21 18 27 37 38 36 37 38
47 84 46 51 41 56 52 40 37 31 31 30 33 34 36 36 31 36 32 25 29 29 53 51 72 85 90 88 65 97 66 25 23 31 19 17 14 46 22 21 39 39 36 36 36
62 66 43 82 74 42 42 36 40 39 32 32 31 33 39 42 35 33 29 31 28 38 35 45 73 62 45 32 40 49 68 40 41 43 34 22 14 22 26 28 36 38 38 39 46
92 44 44 36 44 47 55 38 36 30 36 34 34 29 31 39 36 39 36 40 41 35 43 45 62 46 45 40 40 57 71 62 36 29 23 21 24 16 34 34 32 38 39 52 48
41 40 40 44 46 48 40 38 35 31 33 29 32 36 39 33 32 36 38 37 39 47 55 60 61 56 46 34 58 84 62 53 56 54 33 39 26 35 22 67 41 44 55 57 47

GFSSW_sfc_rhum_123.txt.gz
RH
66 68 69 69 70 72 72 72 73 73 72 72 73 74 75 77 81 47 40 51 63 73 69 34 23 16 22 25 24 27 38 35 32 25 19 14 14 12 8 10 10 9 17 32 32
66 68 68 68 70 71 72 72 74 73 70 70 74 76 77 82 69 30 44 60 61 60 29 21 18 16 24 24 25 31 40 39 25 21 19 16 18 17 16 10 9 13 20 26 27
67 67 66 69 71 71 72 74 74 71 69 71 76 78 84 83 56 24 50 50 57 56 31 29 17 14 22 23 24 27 31 26 23 20 19 19 19 16 18 13 12 11 16 22 27
68 68 69 71 71 71 72 77 72 70 70 73 79 80 84 76 21 15 44 54 59 48 20 15 10 17 19 22 21 23 19 20 20 19 19 19 18 18 19 18 13 13 14 14 18
69 70 68 71 71 71 72 74 73 72 73 76 78 78 74 55 14 15 54 44 35 16 15 17 16 10 14 14 15 16 17 17 16 15 16 16 17 19 18 16 15 14 14 15 12
70 70 71 73 73 71 71 73 76 74 76 78 75 80 75 33 12 12 12 12 12 12 14 15 19 22 25 11 15 16 14 13 13 13 13 16 18 21 17 18 16 16 16 16 15
70 69 72 74 73 72 72 74 79 77 77 76 74 57 50 22 15 15 12 13 13 14 15 14 14 22 27 28 16 15 16 15 14 18 15 13 17 19 16 16 18 16 15 14 15
69 69 73 75 74 74 76 80 80 76 76 79 74 66 40 16 19 12 13 13 10 9 13 15 16 18 28 25 22 21 17 23 13 12 11 15 21 16 15 15 15 15 16 15 14
66 69 73 76 78 79 80 81 80 77 72 74 66 70 31 28 12 12 15 13 12 12 15 10 14 22 27 31 30 24 24 20 15 11 10 11 11 9 15 15 16 16 15 15 15
66 70 72 72 77 78 81 81 75 68 57 42 38 42 20 18 12 10 12 11 13 16 15 17 25 35 33 32 34 28 22 16 16 11 11 11 11 10 11 12 15 16 16 15 15
67 70 70 71 73 78 79 68 40 54 48 26 22 20 16 16 12 11 11 13 16 19 24 20 25 29 21 20 19 20 20 18 14 11 11 10 9 8 9 11 12 15 15 18 20
68 68 69 71 72 77 72 42 42 46 52 20 20 22 18 15 14 12 14 19 21 25 21 25 31 22 20 20 22 23 24 22 16 12 11 11 10 8 8 9 10 11 10 13 19
67 68 69 72 75 78 43 41 35 45 64 23 16 14 13 12 15 15 16 21 19 21 22 33 29 20 20 22 26 27 28 26 25 18 15 13 13 10 9 10 9 8 8 10 14
66 69 70 78 81 55 50 37 42 55 83 22 24 18 12 12 19 11 14 16 22 21 23 32 24 21 24 25 22 27 25 27 29 35 31 17 20 12 10 11 10 9 8 9 9
66 68 71 71 82 52 46 42 46 74 78 24 13 10 11 15 15 14 12 18 21 20 26 35 30 28 27 25 23 36 32 34 37 44 35 25 21 13 10 10 10 9 8 8 8
65 68 70 65 79 56 51 55 65 89 72 19 12 15 17 15 15 15 16 15 17 30 31 36 25 23 24 23 26 29 43 43 40 44 50 30 28 17 13 9 9 8 8 8 7
67 70 70 55 66 54 63 74 72 81 16 16 17 16 18 19 17 18 20 26 37 62 55 39 34 29 23 32 30 36 69 86 71 58 50 25 28 21 15 10 8 10 10 33 28
68 76 71 52 61 64 79 86 81 22 19 19 17 18 22 18 22 23 27 38 34 43 62 66 70 35 27 32 41 45 50 76 94 65 48 24 32 19 13 10 9 9 33 40 51
69 78 80 74 61 75 89 95 70 27 27 24 21 24 24 22 26 32 37 56 45 50 76 68 54 30 27 31 50 89 92 63 90 66 61 36 26 17 10 11 11 12 34 49 65
82 80 76 64 66 84 94 68 32 20 19 21 34 26 32 30 35 43 48 42 39 38 50 60 66 32 35 33 42 56 69 88 64 66 58 43 36 28 20 17 12 21 46 73 80
84 83 73 59 72 90 96 64 26 21 21 25 31 34 33 39 40 48 53 42 33 38 42 57 78 54 50 55 51 63 84 91 91 58 53 54 39 24 22 20 29 30 61 80 86
84 95 69 66 91 84 82 43 40 29 30 31 39 40 43 43 49 49 54 42 37 44 49 62 78 75 52 38 34 46 52 80 95 90 70 42 33 15 16 44 49 44 79 86 86
80 88 68 75 97 88 50 32 28 25 30 32 38 37 38 42 54 44 40 33 25 34 59 55 74 90 57 48 52 55 46 38 65 79 75 63 38 16 39 65 84 83 85 78 72
94 96 77 68 62 73 75 48 39 32 31 28 30 32 39 45 40 48 42 34 37 35 51 54 79 95 96 79 64 73 51 41 57 97 60 46 46 49 59 77 80 90 89 86 83
96 85 66 97 94 74 62 44 44 44 35 32 37 36 45 52 46 46 40 37 35 40 44 53 78 68 62 56 52 50 49 90 97 80 72 59 62 64 79 86 86 87 89 86 79
96 82 66 57 59 70 71 53 48 34 36 40 43 36 38 45 47 51 45 49 53 44 52 48 74 62 70 54 50 49 87 94 95 94 76 72 73 80 79 82 84 81 84 91 64
67 57 68 68 55 70 66 48 42 38 38 31 37 40 46 44 42 46 50 47 46 52 56 59 65 70 78 58 57 92 99 94 100 93 94 98 95 78 78 83 88 90 89 88 82

GFSSW_sfc_rhum_129.txt.gz
RH
68 69 70 70 71 73 73 73 74 73 72 72 73 76 80 83 86 71 31 32 40 66 70 40 25 25 28 35 34 38 49 63 51 45 36 26 28 25 21 23 23 19 22 30 46
67 69 68 68 71 72 73 73 74 74 72 72 74 78 82 86 88 26 32 53 60 66 18 29 18 30 24 33 33 34 52 48 37 33 32 28 28 24 27 23 23 24 22 20 50
68 71 69 68 70 72 72 73 74 72 71 72 77 79 85 91 63 29 41 54 64 62 28 27 29 31 26 21 33 47 40 35 30 28 29 30 30 25 28 25 26 24 21 19 35
71 72 71 69 71 72 73 74 73 72 72 74 76 78 85 87 40 19 54 63 73 47 21 20 23 21 16 16 20 24 19 22 25 19 18 20 25 19 16 20 20 22 21 20 21
75 73 71 69 72 72 73 73 73 74 75 75 77 79 82 57 17 16 45 36 18 16 17 19 22 29 35 34 25 18 21 22 20 16 17 16 17 16 16 13 16 19 22 22 21
75 72 72 70 73 74 72 72 75 77 76 76 77 80 77 50 15 17 14 15 16 16 16 18 21 19 24 35 33 27 27 25 19 18 15 16 17 22 13 15 16 20 20 21 22
73 72 71 70 74 74 71 73 76 77 77 77 75 69 75 39 18 19 15 18 19 17 16 17 17 23 26 24 31 28 34 27 21 14 16 17 15 15 13 15 12 11 16 16 22
72 71 69 74 75 74 74 76 79 77 79 75 70 76 63 20 24 12 15 15 16 15 15 14 18 22 26 27 28 29 28 30 20 17 15 16 19 13 13 13 12 11 9 10 14
72 70 68 74 74 75 76 80 79 75 76 73 62 71 41 25 16 13 18 17 16 16 17 13 17 26 31 37 38 33 39 35 30 20 24 21 24 17 15 14 13 11 10 9 11
71 68 69 70 72 78 81 79 74 68 57 44 43 50 32 22 18 15 14 16 17 22 17 21 29 32 34 38 50 42 42 34 32 28 24 29 26 21 18 18 18 17 15 11 9
70 68 68 67 71 76 86 59 33 48 47 38 34 29 21 18 16 14 17 19 18 20 26 25 32 41 38 36 32 33 35 34 25 22 26 31 31 27 23 22 21 18 16 14 11
69 68 64 68 70 74 80 45 46 43 28 29 28 24 23 19 19 14 19 22 23 26 26 29 39 35 28 30 32 33 35 33 28 28 34 37 38 29 25 23 21 19 16 14 11
70 67 64 68 72 62 48 44 45 44 48 43 26 26 22 17 18 16 19 23 22 28 29 33 36 31 30 33 33 33 35 36 43 34 30 33 36 28 23 22 21 20 18 16 15
72 69 70 70 67 71 48 42 50 56 52 32 27 21 14 15 22 13 18 16 25 27 30 36 37 34 37 36 34 44 34 36 37 43 55 37 68 45 32 28 23 21 20 17 15
72 71 71 69 75 62 46 47 55 64 40 30 26 15 13 17 17 19 18 18 27 31 31 42 42 41 43 38 32 38 35 40 41 50 52 53 70 45 30 31 26 22 19 17 13
73 70 72 84 89 62 55 58 65 69 47 31 16 18 17 18 19 19 22 22 32 40 40 40 36 39 40 34 33 34 42 47 56 62 84 57 61 47 35 29 26 23 20 17 13
72 70 73 68 80 66 66 71 82 68 23 21 20 20 20 21 22 24 32 40 44 46 51 49 45 40 34 39 38 44 52 78 75 66 56 38 60 47 34 28 22 23 20 18 16
74 75 71 66 72 74 75 85 79 30 26 21 21 22 24 22 29 33 34 44 44 51 62 69 58 44 35 44 46 53 86 90 95 71 66 54 72 42 26 41 49 38 19 58 98
72 84 83 77 74 78 85 96 43 37 28 25 21 28 32 32 34 38 44 62 44 53 66 70 62 40 34 36 43 66 84 55 94 80 86 60 49 34 34 70 74 82 79 93 88
83 85 85 80 74 85 92 64 51 26 22 26 32 33 40 36 44 48 49 45 43 48 58 58 73 42 40 43 52 61 50 83 90 92 80 68 52 52 49 74 62 80 87 83 88
83 91 81 74 80 92 95 74 33 27 28 32 38 43 41 43 45 51 55 47 41 46 50 56 70 55 51 66 54 65 78 70 79 93 94 85 55 39 65 73 78 84 84 92 94
89 98 79 76 94 94 90 67 37 30 35 37 41 39 46 47 49 51 57 43 41 46 55 63 77 75 51 43 46 50 48 62 97 86 71 89 72 62 82 76 82 84 86 88 92
96 96 78 78 95 96 68 38 34 36 35 38 43 43 43 45 50 47 46 47 37 44 54 55 74 82 51 50 42 52 44 49 92 96 92 96 71 50 73 75 83 89 87 86 88
92 97 80 80 79 80 70 47 41 38 36 35 35 37 42 46 43 51 52 49 51 45 50 58 78 73 82 64 70 79 55 63 96 97 91 77 91 83 80 87 87 90 90 88 88
94 89 67 89 91 74 64 48 43 45 38 34 35 39 46 46 48 53 50 50 48 44 52 55 77 86 74 65 53 53 63 87 97 97 97 91 85 92 91 94 87 83 86 86 88
95 86 75 81 72 71 72 58 48 43 40 42 48 44 43 50 48 51 52 54 54 52 56 57 57 63 60 55 54 61 86 80 86 92 73 72 72 90 93 91 87 88 84 89 94
82 69 70 69 80 71 70 50 48 43 50 41 42 49 54 50 46 46 49 50 47 56 59 61 72 72 75 61 65 96 95 78 85 85 96 96 98 98 98 97 90 90 87 88 92

GFSSW_sfc_rhum_132.txt.gz
RH
68 68 70 70 71 73 74 73 74 74 72 72 74 77 79 81 84 65 20 34 40 64 59 26 20 29 29 36 38 45 56 70 63 48 41 29 32 28 27 27 27 25 25 22 45
68 67 70 70 71 72 73 73 74 73 71 72 76 78 80 85 80 29 35 48 62 63 18 24 18 29 25 38 35 39 58 55 42 39 37 31 31 26 31 27 28 26 25 22 56
68 68 71 70 70 73 73 73 74 72 73 74 76 78 84 92 49 27 49 53 62 69 29 28 27 23 25 18 36 58 42 39 30 29 24 26 26 26 29 32 23 19 24 19 24
70 71 73 71 69 72 74 74 73 72 75 76 76 79 86 84 28 22 63 63 66 42 21 21 24 30 24 22 30 32 24 24 22 21 21 19 20 21 19 17 18 20 15 20 26
74 75 73 72 69 73 74 73 73 74 76 76 76 79 83 50 19 18 49 37 16 16 17 20 22 30 35 38 31 27 26 25 24 24 20 18 19 19 16 14 17 18 20 25 25
77 78 74 72 70 73 74 72 74 76 77 77 76 80 72 24 17 20 16 16 18 17 18 18 22 21 26 37 35 32 32 31 28 20 18 19 19 21 16 14 14 14 15 16 22
78 79 74 72 70 75 73 74 75 78 77 77 76 72 61 16 19 20 16 19 20 17 18 18 20 22 28 25 32 35 34 25 24 21 21 20 18 20 19 17 17 15 14 12 12
79 77 76 71 74 76 74 75 78 77 79 78 70 78 36 34 24 12 17 18 18 18 18 19 18 22 26 29 28 28 31 36 26 24 22 22 26 20 17 16 16 18 15 14 14
80 76 75 74 75 76 76 78 79 73 75 74 77 69 34 30 17 15 17 17 17 19 19 16 22 32 27 34 36 38 44 40 32 25 24 22 22 13 16 19 20 19 18 17 15
80 76 72 73 73 78 81 79 70 70 67 50 46 38 36 25 20 17 17 17 18 24 19 21 29 33 35 36 41 44 43 37 37 30 26 29 28 23 21 24 24 22 20 18 17
81 75 71 71 71 75 71 37 30 37 50 30 36 33 23 20 18 16 18 18 17 20 24 28 36 41 36 36 33 35 40 42 31 26 33 34 34 31 25 24 25 25 24 22 20
81 75 72 69 69 73 61 35 39 39 34 27 31 26 24 20 19 16 20 20 22 26 26 34 46 37 29 33 33 34 39 39 32 32 32 35 34 26 25 26 24 24 23 22 20
80 76 70 70 68 55 46 42 47 42 30 31 31 28 26 18 18 15 19 21 22 26 29 36 38 32 32 35 39 41 45 42 43 36 34 37 37 25 24 26 24 22 21 21 21
80 77 75 71 55 56 51 48 56 54 36 25 31 26 16 17 22 14 19 18 26 27 35 43 37 34 38 38 41 46 36 40 44 48 58 43 71 38 32 29 26 28 30 21 20
80 77 76 62 57 59 43 51 65 57 28 29 29 17 17 17 18 19 20 20 26 30 28 41 42 40 42 40 39 41 40 46 42 53 71 65 74 56 33 35 30 54 70 42 20
84 78 76 77 71 53 57 57 67 37 36 38 21 21 20 19 19 22 23 27 33 39 36 39 37 38 38 34 38 36 47 50 65 70 78 61 64 47 45 36 43 61 73 73 68
85 81 79 75 78 60 63 67 38 44 28 26 24 23 22 23 26 26 34 37 35 39 46 46 46 41 39 47 43 48 72 78 67 59 53 40 60 55 45 32 58 61 68 67 78
88 82 78 63 64 72 72 79 60 38 36 22 24 23 24 25 31 34 35 47 46 47 62 54 54 46 38 44 49 74 79 92 99 72 59 52 78 64 30 40 48 62 60 78 82
82 97 96 80 76 75 82 80 31 42 28 25 22 26 32 36 34 37 44 58 44 53 66 67 58 44 37 41 44 62 72 61 93 79 86 65 50 33 54 62 67 74 65 82 90
94 91 92 90 86 80 90 41 44 32 25 26 32 34 41 38 41 46 49 47 44 50 57 58 71 44 41 44 45 59 50 80 93 97 80 61 51 60 81 83 75 74 84 87 85
92 98 92 76 78 85 87 70 42 31 28 32 38 42 39 43 45 49 55 48 40 51 50 61 63 51 51 66 54 64 79 76 83 92 89 84 57 63 73 75 87 82 87 91 88
94 99 96 82 83 97 92 62 42 36 37 38 41 42 49 48 49 55 60 49 41 44 51 65 79 73 50 46 46 53 57 72 98 91 83 92 73 47 54 66 78 93 94 91 87
97 99 91 86 95 88 72 52 40 37 37 40 46 45 46 48 50 51 52 46 39 44 52 57 70 77 43 42 42 56 50 50 62 88 93 95 67 46 63 84 83 92 90 95 94
97 99 96 92 84 70 71 49 49 39 38 38 42 41 43 47 46 55 56 51 50 53 54 56 75 70 68 51 67 75 58 56 90 97 94 80 89 69 84 94 90 90 88 95 96
96 92 77 94 93 84 62 51 48 48 40 34 37 43 48 50 51 53 49 51 48 53 56 52 69 85 69 60 64 58 64 86 98 88 97 90 87 87 98 98 96 91 79 83 94
96 80 84 55 73 73 72 61 51 53 49 46 45 46 45 47 47 51 52 48 48 56 54 59 53 62 68 54 59 63 89 86 85 92 79 75 70 85 98 96 92 95 93 87 88
84 70 72 76 78 76 74 57 50 50 53 43 44 52 52 49 44 44 43 47 48 55 57 60 68 75 73 63 69 96 87 87 89 84 95 97 96 99 98 97 97 96 95 93 80

GFSSW_sfc_rhum_135.txt.gz
RH
69 67 68 70 71 72 74 74 73 74 71 72 74 77 78 82 84 55 13 20 27 63 52 16 14 20 19 24 26 30 37 40 38 39 32 23 21 20 16 19 15 15 19 14 15
70 67 67 69 70 71 73 74 73 73 72 74 75 76 80 87 71 19 32 58 67 63 16 17 16 18 17 22 24 28 37 38 34 30 25 20 16 15 14 14 12 13 12 14 12
71 68 69 70 70 71 73 75 73 72 73 75 76 77 85 84 40 19 51 58 67 49 19 18 18 12 16 12 22 29 26 29 21 20 17 14 11 10 10 8 10 13 15 13 15
74 71 71 72 69 69 73 76 73 72 74 76 76 78 86 66 10 15 62 57 55 28 14 16 19 20 19 16 23 18 19 18 16 16 18 15 13 12 13 10 12 14 14 12 13
81 76 74 73 70 69 73 75 72 73 76 77 77 78 68 25 21 13 46 37 12 12 13 15 17 21 20 23 22 22 18 19 21 18 15 16 15 15 12 12 13 13 12 12 12
84 80 77 75 71 69 74 73 74 74 77 77 77 79 52 10 14 15 13 14 13 12 12 13 15 15 20 24 18 23 23 24 18 16 16 18 16 16 13 14 13 12 10 10 12
84 82 80 76 72 70 74 74 74 75 77 78 76 68 47 13 14 15 14 14 13 12 12 12 15 15 19 18 23 26 22 19 16 20 19 14 11 14 13 14 13 14 14 14 13
85 84 85 78 73 73 75 78 77 75 78 78 72 66 28 29 19 10 12 12 13 13 13 13 16 20 22 22 22 22 24 18 18 21 18 14 9 15 10 13 15 16 16 17 16
86 85 84 82 78 78 78 79 78 76 75 73 65 55 22 32 14 11 12 12 14 15 18 16 22 25 22 23 21 25 22 27 24 20 20 17 17 14 12 17 18 17 17 18 18
86 86 83 80 79 80 80 75 72 68 65 52 44 38 25 21 16 14 12 15 16 16 17 20 24 24 25 18 14 31 31 29 27 20 20 22 21 15 14 17 20 19 19 19 19
89 86 83 80 79 79 75 48 33 35 48 24 28 22 20 16 14 13 14 14 15 19 21 26 23 28 28 27 26 28 30 27 22 20 25 23 21 20 19 19 20 20 21 21 26
91 85 83 79 75 74 73 30 27 30 24 27 31 29 21 15 15 14 15 15 20 22 22 28 33 28 25 26 25 25 26 27 26 25 26 23 25 22 20 19 20 21 24 39 36
93 90 83 78 77 77 50 35 42 33 23 18 30 26 23 16 16 15 16 17 20 22 23 29 31 27 26 32 28 27 30 32 32 29 28 32 20 24 16 19 19 21 36 39 42
92 89 86 80 74 53 43 43 47 41 18 18 32 26 21 17 16 12 15 16 19 28 34 33 30 28 30 31 32 32 27 30 36 36 34 34 32 24 23 20 21 26 37 43 47
90 88 87 79 62 43 41 52 63 44 20 27 28 14 15 15 17 19 19 20 23 25 24 32 33 32 31 29 32 30 30 36 37 40 47 43 46 28 18 25 30 39 45 50 50
91 90 85 90 92 55 46 57 58 28 21 34 20 19 18 16 17 21 24 25 28 31 31 35 30 30 27 29 32 32 39 41 47 52 50 39 42 27 25 38 55 53 55 58 65
91 88 86 89 88 80 62 65 37 32 26 28 26 20 21 22 23 24 29 31 28 36 32 36 37 33 31 32 32 38 49 34 31 35 24 32 37 33 37 50 52 57 61 66 81
91 86 83 91 93 92 90 89 54 30 32 20 24 23 24 24 28 30 34 36 36 39 45 33 37 35 32 32 34 50 58 52 53 44 38 40 49 29 41 38 44 52 75 78 85
91 97 97 94 93 91 84 78 48 35 28 26 22 23 30 31 31 32 36 46 42 45 55 50 40 36 32 34 35 44 47 48 74 61 70 44 33 28 40 47 55 65 85 91 94
96 96 96 92 91 92 97 52 34 31 24 20 29 29 35 35 36 40 45 41 41 42 50 47 46 36 35 36 36 43 39 58 59 78 69 41 39 56 55 62 66 92 94 94 94
92 98 96 96 92 98 94 48 50 26 25 28 34 38 37 40 39 43 52 42 39 46 43 52 47 44 41 47 38 50 55 53 63 65 74 64 38 49 61 65 93 94 95 96 95
97 98 94 94 98 98 92 54 53 36 34 36 41 41 44 43 45 48 57 44 42 43 43 56 65 46 36 35 36 42 46 60 76 76 68 67 52 43 57 66 90 94 94 94 94
98 100 95 87 96 95 72 50 43 41 38 39 43 41 43 45 48 47 47 42 36 41 56 59 58 44 35 36 37 47 39 42 55 68 77 82 44 40 54 70 76 91 95 95 94
99 99 100 100 96 85 70 58 52 40 41 41 44 41 43 46 48 52 48 46 42 46 53 52 62 66 47 36 43 57 46 44 80 88 70 61 73 51 68 91 80 92 95 94 92
99 94 87 97 98 68 61 55 48 49 38 36 39 40 47 50 49 52 50 50 48 52 49 46 62 67 48 38 40 42 48 57 98 79 90 70 70 70 89 99 97 90 78 74 84
99 95 87 74 84 66 76 65 43 51 43 46 47 44 44 46 45 53 46 44 48 47 44 49 36 50 52 42 44 49 61 79 77 78 74 65 62 70 79 85 84 77 83 80 78
93 70 73 86 96 89 80 58 48 51 52 42 47 55 52 48 50 50 46 44 46 46 48 45 48 61 54 53 59 84 76 74 82 77 86 93 89 84 87 91 96 90 85 83 76